<?xml version="1.0" encoding="UTF-8" standalone="no" ?>
<gpx xmlns="http://www.topografix.com/GPX/1/1" xmlns:xsi="http://www.w3.org/2001/XMLSchema-instance" xsi:schemaLocation="http://www.topografix.com/GPX/1/1 http://www.topografix.com/GPX/1/1/gpx.xsd" version="1.1" creator="VisuGPX - https://www.visugpx.com">
  <metadata>
    <name>mont rosset 2012</name>
    <desc><![CDATA[pont de la gitte mont rosset
]]></desc>
  </metadata>
  <trk>
    <name><![CDATA[mont rosset 201]]></name>
    <trkseg>
      <trkpt lat="45.59173" lon="6.67085">
        <ele>1412</ele>
        <time>2012-02-12T06:27:43Z</time>
      </trkpt>
      <trkpt lat="45.59173" lon="6.67085">
        <ele>1412</ele>
        <time>2012-02-12T06:27:53Z</time>
      </trkpt>
      <trkpt lat="45.59172" lon="6.67085">
        <ele>1412</ele>
        <time>2012-02-12T06:27:55Z</time>
      </trkpt>
      <trkpt lat="45.59173" lon="6.67085">
        <ele>1412</ele>
        <time>2012-02-12T06:27:58Z</time>
      </trkpt>
      <trkpt lat="45.59172" lon="6.67085">
        <ele>1412</ele>
        <time>2012-02-12T06:28:01Z</time>
      </trkpt>
      <trkpt lat="45.59172" lon="6.67085">
        <ele>1412</ele>
        <time>2012-02-12T06:28:03Z</time>
      </trkpt>
      <trkpt lat="45.59172" lon="6.67085">
        <ele>1412.1999511719</ele>
        <time>2012-02-12T06:28:08Z</time>
      </trkpt>
      <trkpt lat="45.59172" lon="6.67086">
        <ele>1412.1999511719</ele>
        <time>2012-02-12T06:28:13Z</time>
      </trkpt>
      <trkpt lat="45.59172" lon="6.67086">
        <ele>1412.1999511719</ele>
        <time>2012-02-12T06:28:14Z</time>
      </trkpt>
      <trkpt lat="45.59172" lon="6.67086">
        <ele>1412.1999511719</ele>
        <time>2012-02-12T06:28:16Z</time>
      </trkpt>
      <trkpt lat="45.59172" lon="6.67086">
        <ele>1412.4000244141</ele>
        <time>2012-02-12T06:28:17Z</time>
      </trkpt>
      <trkpt lat="45.59173" lon="6.67086">
        <ele>1412.4000244141</ele>
        <time>2012-02-12T06:28:22Z</time>
      </trkpt>
      <trkpt lat="45.59177" lon="6.67087">
        <ele>1413</ele>
        <time>2012-02-12T06:28:27Z</time>
      </trkpt>
      <trkpt lat="45.59178" lon="6.67087">
        <ele>1413.1999511719</ele>
        <time>2012-02-12T06:28:28Z</time>
      </trkpt>
      <trkpt lat="45.59185" lon="6.6709">
        <ele>1414.5999755859</ele>
        <time>2012-02-12T06:28:35Z</time>
      </trkpt>
      <trkpt lat="45.59196" lon="6.67093">
        <ele>1416.4000244141</ele>
        <time>2012-02-12T06:28:44Z</time>
      </trkpt>
      <trkpt lat="45.59204" lon="6.67091">
        <ele>1416.4000244141</ele>
        <time>2012-02-12T06:28:51Z</time>
      </trkpt>
      <trkpt lat="45.5921" lon="6.67088">
        <ele>1415.8000488281</ele>
        <time>2012-02-12T06:28:56Z</time>
      </trkpt>
      <trkpt lat="45.59216" lon="6.67086">
        <ele>1415.5999755859</ele>
        <time>2012-02-12T06:29:01Z</time>
      </trkpt>
      <trkpt lat="45.59223" lon="6.67086">
        <ele>1415.8000488281</ele>
        <time>2012-02-12T06:29:06Z</time>
      </trkpt>
      <trkpt lat="45.59225" lon="6.67085">
        <ele>1415.8000488281</ele>
        <time>2012-02-12T06:29:08Z</time>
      </trkpt>
      <trkpt lat="45.59231" lon="6.67083">
        <ele>1415.4000244141</ele>
        <time>2012-02-12T06:29:14Z</time>
      </trkpt>
      <trkpt lat="45.59233" lon="6.67081">
        <ele>1415</ele>
        <time>2012-02-12T06:29:16Z</time>
      </trkpt>
      <trkpt lat="45.59237" lon="6.6708">
        <ele>1415</ele>
        <time>2012-02-12T06:29:20Z</time>
      </trkpt>
      <trkpt lat="45.59247" lon="6.6708">
        <ele>1415.4000244141</ele>
        <time>2012-02-12T06:29:27Z</time>
      </trkpt>
      <trkpt lat="45.59254" lon="6.67081">
        <ele>1416.4000244141</ele>
        <time>2012-02-12T06:29:33Z</time>
      </trkpt>
      <trkpt lat="45.59257" lon="6.67081">
        <ele>1416.4000244141</ele>
        <time>2012-02-12T06:29:38Z</time>
      </trkpt>
      <trkpt lat="45.59258" lon="6.67081">
        <ele>1416.1999511719</ele>
        <time>2012-02-12T06:29:44Z</time>
      </trkpt>
      <trkpt lat="45.59258" lon="6.67081">
        <ele>1416.5999755859</ele>
        <time>2012-02-12T06:29:47Z</time>
      </trkpt>
      <trkpt lat="45.59259" lon="6.67081">
        <ele>1416.5999755859</ele>
        <time>2012-02-12T06:29:49Z</time>
      </trkpt>
      <trkpt lat="45.59266" lon="6.67082">
        <ele>1417.1999511719</ele>
        <time>2012-02-12T06:29:55Z</time>
      </trkpt>
      <trkpt lat="45.59274" lon="6.67081">
        <ele>1417.1999511719</ele>
        <time>2012-02-12T06:30:01Z</time>
      </trkpt>
      <trkpt lat="45.59283" lon="6.67079">
        <ele>1417</ele>
        <time>2012-02-12T06:30:08Z</time>
      </trkpt>
      <trkpt lat="45.59291" lon="6.67078">
        <ele>1416.8000488281</ele>
        <time>2012-02-12T06:30:14Z</time>
      </trkpt>
      <trkpt lat="45.59301" lon="6.67078">
        <ele>1417.1999511719</ele>
        <time>2012-02-12T06:30:21Z</time>
      </trkpt>
      <trkpt lat="45.59306" lon="6.67078">
        <ele>1417.4000244141</ele>
        <time>2012-02-12T06:30:26Z</time>
      </trkpt>
      <trkpt lat="45.59309" lon="6.67077">
        <ele>1417.1999511719</ele>
        <time>2012-02-12T06:30:30Z</time>
      </trkpt>
      <trkpt lat="45.59312" lon="6.67076">
        <ele>1417</ele>
        <time>2012-02-12T06:30:33Z</time>
      </trkpt>
      <trkpt lat="45.59315" lon="6.67076">
        <ele>1417</ele>
        <time>2012-02-12T06:30:41Z</time>
      </trkpt>
      <trkpt lat="45.59318" lon="6.67075">
        <ele>1416.8000488281</ele>
        <time>2012-02-12T06:30:48Z</time>
      </trkpt>
      <trkpt lat="45.59321" lon="6.67075">
        <ele>1417</ele>
        <time>2012-02-12T06:30:51Z</time>
      </trkpt>
      <trkpt lat="45.59328" lon="6.67077">
        <ele>1418.1999511719</ele>
        <time>2012-02-12T06:30:56Z</time>
      </trkpt>
      <trkpt lat="45.59336" lon="6.6708">
        <ele>1419.8000488281</ele>
        <time>2012-02-12T06:31:02Z</time>
      </trkpt>
      <trkpt lat="45.59343" lon="6.67082">
        <ele>1421.5999755859</ele>
        <time>2012-02-12T06:31:08Z</time>
      </trkpt>
      <trkpt lat="45.59353" lon="6.67083">
        <ele>1423.1999511719</ele>
        <time>2012-02-12T06:31:15Z</time>
      </trkpt>
      <trkpt lat="45.5936" lon="6.67083">
        <ele>1423.5999755859</ele>
        <time>2012-02-12T06:31:21Z</time>
      </trkpt>
      <trkpt lat="45.59367" lon="6.67081">
        <ele>1423.8000488281</ele>
        <time>2012-02-12T06:31:27Z</time>
      </trkpt>
      <trkpt lat="45.59375" lon="6.67079">
        <ele>1424</ele>
        <time>2012-02-12T06:31:33Z</time>
      </trkpt>
      <trkpt lat="45.59383" lon="6.67078">
        <ele>1424.1999511719</ele>
        <time>2012-02-12T06:31:39Z</time>
      </trkpt>
      <trkpt lat="45.59391" lon="6.67074">
        <ele>1423.8000488281</ele>
        <time>2012-02-12T06:31:46Z</time>
      </trkpt>
      <trkpt lat="45.59398" lon="6.67069">
        <ele>1422.8000488281</ele>
        <time>2012-02-12T06:31:53Z</time>
      </trkpt>
      <trkpt lat="45.594" lon="6.67068">
        <ele>1422.8000488281</ele>
        <time>2012-02-12T06:31:59Z</time>
      </trkpt>
      <trkpt lat="45.59402" lon="6.67067">
        <ele>1422.5999755859</ele>
        <time>2012-02-12T06:32:01Z</time>
      </trkpt>
      <trkpt lat="45.59407" lon="6.67063">
        <ele>1421.8000488281</ele>
        <time>2012-02-12T06:32:06Z</time>
      </trkpt>
      <trkpt lat="45.59414" lon="6.67057">
        <ele>1420.4000244141</ele>
        <time>2012-02-12T06:32:13Z</time>
      </trkpt>
      <trkpt lat="45.59416" lon="6.67055">
        <ele>1419.8000488281</ele>
        <time>2012-02-12T06:32:15Z</time>
      </trkpt>
      <trkpt lat="45.59419" lon="6.67052">
        <ele>1419.5999755859</ele>
        <time>2012-02-12T06:32:18Z</time>
      </trkpt>
      <trkpt lat="45.59424" lon="6.67048">
        <ele>1419.1999511719</ele>
        <time>2012-02-12T06:32:23Z</time>
      </trkpt>
      <trkpt lat="45.59426" lon="6.67046">
        <ele>1419</ele>
        <time>2012-02-12T06:32:26Z</time>
      </trkpt>
      <trkpt lat="45.59429" lon="6.67043">
        <ele>1418.8000488281</ele>
        <time>2012-02-12T06:32:29Z</time>
      </trkpt>
      <trkpt lat="45.59434" lon="6.67041">
        <ele>1419</ele>
        <time>2012-02-12T06:32:34Z</time>
      </trkpt>
      <trkpt lat="45.59436" lon="6.67038">
        <ele>1418.4000244141</ele>
        <time>2012-02-12T06:32:40Z</time>
      </trkpt>
      <trkpt lat="45.59436" lon="6.67038">
        <ele>1418.1999511719</ele>
        <time>2012-02-12T06:32:43Z</time>
      </trkpt>
      <trkpt lat="45.59435" lon="6.67037">
        <ele>1417.8000488281</ele>
        <time>2012-02-12T06:32:46Z</time>
      </trkpt>
      <trkpt lat="45.59435" lon="6.67036">
        <ele>1417.4000244141</ele>
        <time>2012-02-12T06:32:54Z</time>
      </trkpt>
      <trkpt lat="45.59435" lon="6.67035">
        <ele>1417.4000244141</ele>
        <time>2012-02-12T06:32:59Z</time>
      </trkpt>
      <trkpt lat="45.59435" lon="6.67035">
        <ele>1417.1999511719</ele>
        <time>2012-02-12T06:33:02Z</time>
      </trkpt>
      <trkpt lat="45.59435" lon="6.67035">
        <ele>1417.1999511719</ele>
        <time>2012-02-12T06:33:03Z</time>
      </trkpt>
      <trkpt lat="45.59436" lon="6.67036">
        <ele>1417.5999755859</ele>
        <time>2012-02-12T06:33:13Z</time>
      </trkpt>
      <trkpt lat="45.59436" lon="6.67036">
        <ele>1417.5999755859</ele>
        <time>2012-02-12T06:33:20Z</time>
      </trkpt>
      <trkpt lat="45.59436" lon="6.67035">
        <ele>1417.5999755859</ele>
        <time>2012-02-12T06:33:24Z</time>
      </trkpt>
      <trkpt lat="45.59436" lon="6.67035">
        <ele>1417.4000244141</ele>
        <time>2012-02-12T06:33:26Z</time>
      </trkpt>
      <trkpt lat="45.59436" lon="6.67035">
        <ele>1417.4000244141</ele>
        <time>2012-02-12T06:33:33Z</time>
      </trkpt>
      <trkpt lat="45.59436" lon="6.67034">
        <ele>1417.1999511719</ele>
        <time>2012-02-12T06:33:38Z</time>
      </trkpt>
      <trkpt lat="45.59435" lon="6.67034">
        <ele>1417</ele>
        <time>2012-02-12T06:33:43Z</time>
      </trkpt>
      <trkpt lat="45.59435" lon="6.67034">
        <ele>1416.5999755859</ele>
        <time>2012-02-12T06:33:53Z</time>
      </trkpt>
      <trkpt lat="45.59434" lon="6.67033">
        <ele>1416.5999755859</ele>
        <time>2012-02-12T06:34:01Z</time>
      </trkpt>
      <trkpt lat="45.59435" lon="6.67034">
        <ele>1417</ele>
        <time>2012-02-12T06:34:09Z</time>
      </trkpt>
      <trkpt lat="45.59435" lon="6.67036">
        <ele>1417.4000244141</ele>
        <time>2012-02-12T06:34:17Z</time>
      </trkpt>
      <trkpt lat="45.59436" lon="6.67035">
        <ele>1417.4000244141</ele>
        <time>2012-02-12T06:34:24Z</time>
      </trkpt>
      <trkpt lat="45.59436" lon="6.67036">
        <ele>1417.5999755859</ele>
        <time>2012-02-12T06:34:29Z</time>
      </trkpt>
      <trkpt lat="45.59438" lon="6.67035">
        <ele>1417.8000488281</ele>
        <time>2012-02-12T06:34:34Z</time>
      </trkpt>
      <trkpt lat="45.59444" lon="6.67034">
        <ele>1418.8000488281</ele>
        <time>2012-02-12T06:34:41Z</time>
      </trkpt>
      <trkpt lat="45.59445" lon="6.67033">
        <ele>1418.5999755859</ele>
        <time>2012-02-12T06:34:42Z</time>
      </trkpt>
      <trkpt lat="45.59447" lon="6.67033">
        <ele>1419.4000244141</ele>
        <time>2012-02-12T06:34:47Z</time>
      </trkpt>
      <trkpt lat="45.59448" lon="6.67033">
        <ele>1419.5999755859</ele>
        <time>2012-02-12T06:34:48Z</time>
      </trkpt>
      <trkpt lat="45.59449" lon="6.67034">
        <ele>1419.8000488281</ele>
        <time>2012-02-12T06:34:49Z</time>
      </trkpt>
      <trkpt lat="45.59451" lon="6.67034">
        <ele>1420.4000244141</ele>
        <time>2012-02-12T06:34:52Z</time>
      </trkpt>
      <trkpt lat="45.59457" lon="6.67035">
        <ele>1422</ele>
        <time>2012-02-12T06:34:59Z</time>
      </trkpt>
      <trkpt lat="45.59458" lon="6.67035">
        <ele>1422.1999511719</ele>
        <time>2012-02-12T06:35:00Z</time>
      </trkpt>
      <trkpt lat="45.59459" lon="6.67034">
        <ele>1422.4000244141</ele>
        <time>2012-02-12T06:35:01Z</time>
      </trkpt>
      <trkpt lat="45.59464" lon="6.67032">
        <ele>1422.5999755859</ele>
        <time>2012-02-12T06:35:05Z</time>
      </trkpt>
      <trkpt lat="45.5947" lon="6.67027">
        <ele>1422.1999511719</ele>
        <time>2012-02-12T06:35:11Z</time>
      </trkpt>
      <trkpt lat="45.59471" lon="6.67026">
        <ele>1422</ele>
        <time>2012-02-12T06:35:12Z</time>
      </trkpt>
      <trkpt lat="45.59473" lon="6.67024">
        <ele>1421.5999755859</ele>
        <time>2012-02-12T06:35:14Z</time>
      </trkpt>
      <trkpt lat="45.59474" lon="6.67023">
        <ele>1421.4000244141</ele>
        <time>2012-02-12T06:35:15Z</time>
      </trkpt>
      <trkpt lat="45.59478" lon="6.67017">
        <ele>1420.5999755859</ele>
        <time>2012-02-12T06:35:20Z</time>
      </trkpt>
      <trkpt lat="45.59484" lon="6.67012">
        <ele>1419.5999755859</ele>
        <time>2012-02-12T06:35:26Z</time>
      </trkpt>
      <trkpt lat="45.59485" lon="6.6701">
        <ele>1419.4000244141</ele>
        <time>2012-02-12T06:35:27Z</time>
      </trkpt>
      <trkpt lat="45.59485" lon="6.67009">
        <ele>1419</ele>
        <time>2012-02-12T06:35:28Z</time>
      </trkpt>
      <trkpt lat="45.59488" lon="6.67007">
        <ele>1419</ele>
        <time>2012-02-12T06:35:31Z</time>
      </trkpt>
      <trkpt lat="45.59492" lon="6.67004">
        <ele>1418.8000488281</ele>
        <time>2012-02-12T06:35:35Z</time>
      </trkpt>
      <trkpt lat="45.59494" lon="6.67003">
        <ele>1418.5999755859</ele>
        <time>2012-02-12T06:35:37Z</time>
      </trkpt>
      <trkpt lat="45.59497" lon="6.67">
        <ele>1418.5999755859</ele>
        <time>2012-02-12T06:35:40Z</time>
      </trkpt>
      <trkpt lat="45.59498" lon="6.66999">
        <ele>1418.4000244141</ele>
        <time>2012-02-12T06:35:41Z</time>
      </trkpt>
      <trkpt lat="45.59499" lon="6.66999">
        <ele>1418.5999755859</ele>
        <time>2012-02-12T06:35:42Z</time>
      </trkpt>
      <trkpt lat="45.59504" lon="6.66996">
        <ele>1419</ele>
        <time>2012-02-12T06:35:47Z</time>
      </trkpt>
      <trkpt lat="45.59506" lon="6.66995">
        <ele>1419.1999511719</ele>
        <time>2012-02-12T06:35:49Z</time>
      </trkpt>
      <trkpt lat="45.5951" lon="6.66993">
        <ele>1419.5999755859</ele>
        <time>2012-02-12T06:35:53Z</time>
      </trkpt>
      <trkpt lat="45.59517" lon="6.66992">
        <ele>1420.5999755859</ele>
        <time>2012-02-12T06:35:59Z</time>
      </trkpt>
      <trkpt lat="45.59523" lon="6.66993">
        <ele>1421.8000488281</ele>
        <time>2012-02-12T06:36:04Z</time>
      </trkpt>
      <trkpt lat="45.59526" lon="6.66993">
        <ele>1422</ele>
        <time>2012-02-12T06:36:06Z</time>
      </trkpt>
      <trkpt lat="45.59529" lon="6.66994">
        <ele>1422.5999755859</ele>
        <time>2012-02-12T06:36:09Z</time>
      </trkpt>
      <trkpt lat="45.59531" lon="6.66994">
        <ele>1422.8000488281</ele>
        <time>2012-02-12T06:36:11Z</time>
      </trkpt>
      <trkpt lat="45.59536" lon="6.66995">
        <ele>1423.8000488281</ele>
        <time>2012-02-12T06:36:16Z</time>
      </trkpt>
      <trkpt lat="45.59537" lon="6.66996">
        <ele>1424</ele>
        <time>2012-02-12T06:36:17Z</time>
      </trkpt>
      <trkpt lat="45.59545" lon="6.66997">
        <ele>1425.1999511719</ele>
        <time>2012-02-12T06:36:24Z</time>
      </trkpt>
      <trkpt lat="45.59553" lon="6.66997">
        <ele>1426.4000244141</ele>
        <time>2012-02-12T06:36:31Z</time>
      </trkpt>
      <trkpt lat="45.5956" lon="6.66997">
        <ele>1427.4000244141</ele>
        <time>2012-02-12T06:36:37Z</time>
      </trkpt>
      <trkpt lat="45.59563" lon="6.66997">
        <ele>1428</ele>
        <time>2012-02-12T06:36:40Z</time>
      </trkpt>
      <trkpt lat="45.59566" lon="6.66996">
        <ele>1428.4000244141</ele>
        <time>2012-02-12T06:36:43Z</time>
      </trkpt>
      <trkpt lat="45.59573" lon="6.66995">
        <ele>1429.4000244141</ele>
        <time>2012-02-12T06:36:49Z</time>
      </trkpt>
      <trkpt lat="45.59582" lon="6.66996">
        <ele>1430.5999755859</ele>
        <time>2012-02-12T06:36:56Z</time>
      </trkpt>
      <trkpt lat="45.59591" lon="6.66999">
        <ele>1432.1999511719</ele>
        <time>2012-02-12T06:37:04Z</time>
      </trkpt>
      <trkpt lat="45.59597" lon="6.67002">
        <ele>1434</ele>
        <time>2012-02-12T06:37:10Z</time>
      </trkpt>
      <trkpt lat="45.59599" lon="6.67003">
        <ele>1434.4000244141</ele>
        <time>2012-02-12T06:37:11Z</time>
      </trkpt>
      <trkpt lat="45.596" lon="6.67004">
        <ele>1435</ele>
        <time>2012-02-12T06:37:12Z</time>
      </trkpt>
      <trkpt lat="45.59603" lon="6.67005">
        <ele>1436</ele>
        <time>2012-02-12T06:37:15Z</time>
      </trkpt>
      <trkpt lat="45.59609" lon="6.67008">
        <ele>1438</ele>
        <time>2012-02-12T06:37:21Z</time>
      </trkpt>
      <trkpt lat="45.59617" lon="6.67012">
        <ele>1440.4000244141</ele>
        <time>2012-02-12T06:37:29Z</time>
      </trkpt>
      <trkpt lat="45.59625" lon="6.67014">
        <ele>1442.1999511719</ele>
        <time>2012-02-12T06:37:36Z</time>
      </trkpt>
      <trkpt lat="45.5963" lon="6.67015">
        <ele>1443.1999511719</ele>
        <time>2012-02-12T06:37:42Z</time>
      </trkpt>
      <trkpt lat="45.5963" lon="6.67015">
        <ele>1443.1999511719</ele>
        <time>2012-02-12T06:37:43Z</time>
      </trkpt>
      <trkpt lat="45.59633" lon="6.67014">
        <ele>1443.1999511719</ele>
        <time>2012-02-12T06:37:49Z</time>
      </trkpt>
      <trkpt lat="45.59637" lon="6.67008">
        <ele>1441.8000488281</ele>
        <time>2012-02-12T06:37:55Z</time>
      </trkpt>
      <trkpt lat="45.59641" lon="6.67">
        <ele>1440</ele>
        <time>2012-02-12T06:38:02Z</time>
      </trkpt>
      <trkpt lat="45.59643" lon="6.66997">
        <ele>1440.5999755859</ele>
        <time>2012-02-12T06:38:05Z</time>
      </trkpt>
      <trkpt lat="45.59645" lon="6.66995">
        <ele>1441.1999511719</ele>
        <time>2012-02-12T06:38:08Z</time>
      </trkpt>
      <trkpt lat="45.59646" lon="6.66994">
        <ele>1441.4000244141</ele>
        <time>2012-02-12T06:38:09Z</time>
      </trkpt>
      <trkpt lat="45.59648" lon="6.66992">
        <ele>1441.8000488281</ele>
        <time>2012-02-12T06:38:12Z</time>
      </trkpt>
      <trkpt lat="45.59649" lon="6.66991">
        <ele>1442</ele>
        <time>2012-02-12T06:38:13Z</time>
      </trkpt>
      <trkpt lat="45.5965" lon="6.6699">
        <ele>1442.1999511719</ele>
        <time>2012-02-12T06:38:15Z</time>
      </trkpt>
      <trkpt lat="45.59651" lon="6.66988">
        <ele>1442.5999755859</ele>
        <time>2012-02-12T06:38:18Z</time>
      </trkpt>
      <trkpt lat="45.59652" lon="6.66987">
        <ele>1443</ele>
        <time>2012-02-12T06:38:20Z</time>
      </trkpt>
      <trkpt lat="45.59653" lon="6.66986">
        <ele>1443.1999511719</ele>
        <time>2012-02-12T06:38:21Z</time>
      </trkpt>
      <trkpt lat="45.59654" lon="6.66985">
        <ele>1443.5999755859</ele>
        <time>2012-02-12T06:38:25Z</time>
      </trkpt>
      <trkpt lat="45.59655" lon="6.66984">
        <ele>1443.5999755859</ele>
        <time>2012-02-12T06:38:27Z</time>
      </trkpt>
      <trkpt lat="45.59657" lon="6.66981">
        <ele>1444.4000244141</ele>
        <time>2012-02-12T06:38:33Z</time>
      </trkpt>
      <trkpt lat="45.59656" lon="6.66981">
        <ele>1444.4000244141</ele>
        <time>2012-02-12T06:38:34Z</time>
      </trkpt>
      <trkpt lat="45.59658" lon="6.66978">
        <ele>1444.8000488281</ele>
        <time>2012-02-12T06:38:37Z</time>
      </trkpt>
      <trkpt lat="45.59659" lon="6.66976">
        <ele>1445.1999511719</ele>
        <time>2012-02-12T06:38:39Z</time>
      </trkpt>
      <trkpt lat="45.5966" lon="6.66975">
        <ele>1445.5999755859</ele>
        <time>2012-02-12T06:38:41Z</time>
      </trkpt>
      <trkpt lat="45.59662" lon="6.66973">
        <ele>1446.1999511719</ele>
        <time>2012-02-12T06:38:44Z</time>
      </trkpt>
      <trkpt lat="45.59665" lon="6.66969">
        <ele>1447.1999511719</ele>
        <time>2012-02-12T06:38:49Z</time>
      </trkpt>
      <trkpt lat="45.59665" lon="6.66969">
        <ele>1447.4000244141</ele>
        <time>2012-02-12T06:38:51Z</time>
      </trkpt>
      <trkpt lat="45.59666" lon="6.66968">
        <ele>1447.5999755859</ele>
        <time>2012-02-12T06:38:58Z</time>
      </trkpt>
      <trkpt lat="45.59667" lon="6.66966">
        <ele>1448</ele>
        <time>2012-02-12T06:39:02Z</time>
      </trkpt>
      <trkpt lat="45.59667" lon="6.66965">
        <ele>1448.4000244141</ele>
        <time>2012-02-12T06:39:04Z</time>
      </trkpt>
      <trkpt lat="45.59668" lon="6.66964">
        <ele>1448.5999755859</ele>
        <time>2012-02-12T06:39:05Z</time>
      </trkpt>
      <trkpt lat="45.5967" lon="6.66962">
        <ele>1449.4000244141</ele>
        <time>2012-02-12T06:39:09Z</time>
      </trkpt>
      <trkpt lat="45.59671" lon="6.66961">
        <ele>1449.5999755859</ele>
        <time>2012-02-12T06:39:10Z</time>
      </trkpt>
      <trkpt lat="45.59674" lon="6.66957">
        <ele>1450.8000488281</ele>
        <time>2012-02-12T06:39:16Z</time>
      </trkpt>
      <trkpt lat="45.59676" lon="6.66956">
        <ele>1451.4000244141</ele>
        <time>2012-02-12T06:39:22Z</time>
      </trkpt>
      <trkpt lat="45.59678" lon="6.66952">
        <ele>1452.4000244141</ele>
        <time>2012-02-12T06:39:27Z</time>
      </trkpt>
      <trkpt lat="45.5968" lon="6.66951">
        <ele>1453</ele>
        <time>2012-02-12T06:39:30Z</time>
      </trkpt>
      <trkpt lat="45.59682" lon="6.6695">
        <ele>1453.5999755859</ele>
        <time>2012-02-12T06:39:33Z</time>
      </trkpt>
      <trkpt lat="45.59682" lon="6.66949">
        <ele>1453.5999755859</ele>
        <time>2012-02-12T06:39:35Z</time>
      </trkpt>
      <trkpt lat="45.59682" lon="6.66948">
        <ele>1453.8000488281</ele>
        <time>2012-02-12T06:39:38Z</time>
      </trkpt>
      <trkpt lat="45.59682" lon="6.66946">
        <ele>1454</ele>
        <time>2012-02-12T06:39:39Z</time>
      </trkpt>
      <trkpt lat="45.59683" lon="6.66943">
        <ele>1454.5999755859</ele>
        <time>2012-02-12T06:39:42Z</time>
      </trkpt>
      <trkpt lat="45.59683" lon="6.66942">
        <ele>1455</ele>
        <time>2012-02-12T06:39:44Z</time>
      </trkpt>
      <trkpt lat="45.59684" lon="6.66939">
        <ele>1455.4000244141</ele>
        <time>2012-02-12T06:39:47Z</time>
      </trkpt>
      <trkpt lat="45.59686" lon="6.66938">
        <ele>1455.8000488281</ele>
        <time>2012-02-12T06:39:50Z</time>
      </trkpt>
      <trkpt lat="45.59687" lon="6.66939">
        <ele>1456</ele>
        <time>2012-02-12T06:39:52Z</time>
      </trkpt>
      <trkpt lat="45.59688" lon="6.66939">
        <ele>1456.4000244141</ele>
        <time>2012-02-12T06:39:54Z</time>
      </trkpt>
      <trkpt lat="45.59689" lon="6.66936">
        <ele>1457</ele>
        <time>2012-02-12T06:39:58Z</time>
      </trkpt>
      <trkpt lat="45.59689" lon="6.66935">
        <ele>1457.1999511719</ele>
        <time>2012-02-12T06:39:59Z</time>
      </trkpt>
      <trkpt lat="45.5969" lon="6.66928">
        <ele>1458.1999511719</ele>
        <time>2012-02-12T06:40:05Z</time>
      </trkpt>
      <trkpt lat="45.59693" lon="6.66925">
        <ele>1459.1999511719</ele>
        <time>2012-02-12T06:40:09Z</time>
      </trkpt>
      <trkpt lat="45.59694" lon="6.66924">
        <ele>1459.4000244141</ele>
        <time>2012-02-12T06:40:12Z</time>
      </trkpt>
      <trkpt lat="45.59694" lon="6.66923">
        <ele>1459.8000488281</ele>
        <time>2012-02-12T06:40:13Z</time>
      </trkpt>
      <trkpt lat="45.59695" lon="6.66923">
        <ele>1460</ele>
        <time>2012-02-12T06:40:14Z</time>
      </trkpt>
      <trkpt lat="45.59696" lon="6.66921">
        <ele>1460.4000244141</ele>
        <time>2012-02-12T06:40:16Z</time>
      </trkpt>
      <trkpt lat="45.59698" lon="6.66921">
        <ele>1461</ele>
        <time>2012-02-12T06:40:22Z</time>
      </trkpt>
      <trkpt lat="45.59698" lon="6.66921">
        <ele>1461</ele>
        <time>2012-02-12T06:40:23Z</time>
      </trkpt>
      <trkpt lat="45.59701" lon="6.66925">
        <ele>1461.1999511719</ele>
        <time>2012-02-12T06:40:28Z</time>
      </trkpt>
      <trkpt lat="45.59701" lon="6.66927">
        <ele>1461</ele>
        <time>2012-02-12T06:40:30Z</time>
      </trkpt>
      <trkpt lat="45.59703" lon="6.6693">
        <ele>1461</ele>
        <time>2012-02-12T06:40:33Z</time>
      </trkpt>
      <trkpt lat="45.59704" lon="6.66934">
        <ele>1460.8000488281</ele>
        <time>2012-02-12T06:40:38Z</time>
      </trkpt>
      <trkpt lat="45.59705" lon="6.66937">
        <ele>1460.5999755859</ele>
        <time>2012-02-12T06:40:46Z</time>
      </trkpt>
      <trkpt lat="45.59706" lon="6.66939">
        <ele>1460.5999755859</ele>
        <time>2012-02-12T06:40:54Z</time>
      </trkpt>
      <trkpt lat="45.59706" lon="6.66942">
        <ele>1460.1999511719</ele>
        <time>2012-02-12T06:41:01Z</time>
      </trkpt>
      <trkpt lat="45.59706" lon="6.66944">
        <ele>1460</ele>
        <time>2012-02-12T06:41:03Z</time>
      </trkpt>
      <trkpt lat="45.59706" lon="6.66944">
        <ele>1459.8000488281</ele>
        <time>2012-02-12T06:41:05Z</time>
      </trkpt>
      <trkpt lat="45.59705" lon="6.66946">
        <ele>1459.5999755859</ele>
        <time>2012-02-12T06:41:08Z</time>
      </trkpt>
      <trkpt lat="45.59705" lon="6.66946">
        <ele>1459.5999755859</ele>
        <time>2012-02-12T06:41:11Z</time>
      </trkpt>
      <trkpt lat="45.59705" lon="6.66946">
        <ele>1459.5999755859</ele>
        <time>2012-02-12T06:41:15Z</time>
      </trkpt>
      <trkpt lat="45.59704" lon="6.6695">
        <ele>1459</ele>
        <time>2012-02-12T06:41:21Z</time>
      </trkpt>
      <trkpt lat="45.59705" lon="6.6695">
        <ele>1459</ele>
        <time>2012-02-12T06:41:23Z</time>
      </trkpt>
      <trkpt lat="45.59707" lon="6.66949">
        <ele>1459.5999755859</ele>
        <time>2012-02-12T06:41:32Z</time>
      </trkpt>
      <trkpt lat="45.59708" lon="6.66948">
        <ele>1460</ele>
        <time>2012-02-12T06:41:38Z</time>
      </trkpt>
      <trkpt lat="45.59709" lon="6.66947">
        <ele>1460.1999511719</ele>
        <time>2012-02-12T06:41:43Z</time>
      </trkpt>
      <trkpt lat="45.59709" lon="6.66948">
        <ele>1460.1999511719</ele>
        <time>2012-02-12T06:41:45Z</time>
      </trkpt>
      <trkpt lat="45.59712" lon="6.66949">
        <ele>1460.8000488281</ele>
        <time>2012-02-12T06:41:50Z</time>
      </trkpt>
      <trkpt lat="45.59712" lon="6.66949">
        <ele>1461</ele>
        <time>2012-02-12T06:41:51Z</time>
      </trkpt>
      <trkpt lat="45.59715" lon="6.66949">
        <ele>1461.5999755859</ele>
        <time>2012-02-12T06:41:55Z</time>
      </trkpt>
      <trkpt lat="45.59716" lon="6.66949">
        <ele>1461.5999755859</ele>
        <time>2012-02-12T06:41:57Z</time>
      </trkpt>
      <trkpt lat="45.59719" lon="6.66951">
        <ele>1462.4000244141</ele>
        <time>2012-02-12T06:42:02Z</time>
      </trkpt>
      <trkpt lat="45.5972" lon="6.6695">
        <ele>1462.4000244141</ele>
        <time>2012-02-12T06:42:04Z</time>
      </trkpt>
      <trkpt lat="45.59721" lon="6.6695">
        <ele>1462.8000488281</ele>
        <time>2012-02-12T06:42:06Z</time>
      </trkpt>
      <trkpt lat="45.59721" lon="6.6695">
        <ele>1462.8000488281</ele>
        <time>2012-02-12T06:42:07Z</time>
      </trkpt>
      <trkpt lat="45.59724" lon="6.66948">
        <ele>1463.8000488281</ele>
        <time>2012-02-12T06:42:12Z</time>
      </trkpt>
      <trkpt lat="45.59726" lon="6.66947">
        <ele>1464.4000244141</ele>
        <time>2012-02-12T06:42:16Z</time>
      </trkpt>
      <trkpt lat="45.59729" lon="6.66951">
        <ele>1464.4000244141</ele>
        <time>2012-02-12T06:42:22Z</time>
      </trkpt>
      <trkpt lat="45.5973" lon="6.66952">
        <ele>1464.5999755859</ele>
        <time>2012-02-12T06:42:24Z</time>
      </trkpt>
      <trkpt lat="45.59731" lon="6.66953">
        <ele>1464.8000488281</ele>
        <time>2012-02-12T06:42:27Z</time>
      </trkpt>
      <trkpt lat="45.59733" lon="6.66953">
        <ele>1465.1999511719</ele>
        <time>2012-02-12T06:42:30Z</time>
      </trkpt>
      <trkpt lat="45.59733" lon="6.66953">
        <ele>1465.1999511719</ele>
        <time>2012-02-12T06:42:32Z</time>
      </trkpt>
      <trkpt lat="45.59734" lon="6.66955">
        <ele>1465.1999511719</ele>
        <time>2012-02-12T06:42:37Z</time>
      </trkpt>
      <trkpt lat="45.59736" lon="6.66957">
        <ele>1465.1999511719</ele>
        <time>2012-02-12T06:42:43Z</time>
      </trkpt>
      <trkpt lat="45.59737" lon="6.66959">
        <ele>1465.4000244141</ele>
        <time>2012-02-12T06:42:47Z</time>
      </trkpt>
      <trkpt lat="45.59737" lon="6.66959">
        <ele>1465.4000244141</ele>
        <time>2012-02-12T06:42:48Z</time>
      </trkpt>
      <trkpt lat="45.59739" lon="6.6696">
        <ele>1465.5999755859</ele>
        <time>2012-02-12T06:42:51Z</time>
      </trkpt>
      <trkpt lat="45.59739" lon="6.6696">
        <ele>1465.8000488281</ele>
        <time>2012-02-12T06:42:53Z</time>
      </trkpt>
      <trkpt lat="45.5974" lon="6.6696">
        <ele>1466</ele>
        <time>2012-02-12T06:42:59Z</time>
      </trkpt>
      <trkpt lat="45.59741" lon="6.66958">
        <ele>1466.4000244141</ele>
        <time>2012-02-12T06:43:04Z</time>
      </trkpt>
      <trkpt lat="45.59741" lon="6.66958">
        <ele>1466.4000244141</ele>
        <time>2012-02-12T06:43:05Z</time>
      </trkpt>
      <trkpt lat="45.59741" lon="6.66957">
        <ele>1466.4000244141</ele>
        <time>2012-02-12T06:43:11Z</time>
      </trkpt>
      <trkpt lat="45.59741" lon="6.66957">
        <ele>1466.5999755859</ele>
        <time>2012-02-12T06:43:14Z</time>
      </trkpt>
      <trkpt lat="45.5974" lon="6.66951">
        <ele>1467.1999511719</ele>
        <time>2012-02-12T06:43:21Z</time>
      </trkpt>
      <trkpt lat="45.5974" lon="6.6695">
        <ele>1467.4000244141</ele>
        <time>2012-02-12T06:43:23Z</time>
      </trkpt>
      <trkpt lat="45.5974" lon="6.66946">
        <ele>1467.8000488281</ele>
        <time>2012-02-12T06:43:26Z</time>
      </trkpt>
      <trkpt lat="45.5974" lon="6.66944">
        <ele>1468</ele>
        <time>2012-02-12T06:43:28Z</time>
      </trkpt>
      <trkpt lat="45.59741" lon="6.66943">
        <ele>1468.4000244141</ele>
        <time>2012-02-12T06:43:31Z</time>
      </trkpt>
      <trkpt lat="45.59743" lon="6.66944">
        <ele>1468.5999755859</ele>
        <time>2012-02-12T06:43:34Z</time>
      </trkpt>
      <trkpt lat="45.59745" lon="6.66945">
        <ele>1469</ele>
        <time>2012-02-12T06:43:36Z</time>
      </trkpt>
      <trkpt lat="45.59746" lon="6.66946">
        <ele>1469.1999511719</ele>
        <time>2012-02-12T06:43:38Z</time>
      </trkpt>
      <trkpt lat="45.59751" lon="6.66949">
        <ele>1470</ele>
        <time>2012-02-12T06:43:44Z</time>
      </trkpt>
      <trkpt lat="45.59757" lon="6.6695">
        <ele>1470.4000244141</ele>
        <time>2012-02-12T06:43:50Z</time>
      </trkpt>
      <trkpt lat="45.59757" lon="6.6695">
        <ele>1470.5999755859</ele>
        <time>2012-02-12T06:43:52Z</time>
      </trkpt>
      <trkpt lat="45.5976" lon="6.66948">
        <ele>1471.1999511719</ele>
        <time>2012-02-12T06:43:55Z</time>
      </trkpt>
      <trkpt lat="45.59761" lon="6.66946">
        <ele>1471.8000488281</ele>
        <time>2012-02-12T06:43:58Z</time>
      </trkpt>
      <trkpt lat="45.59764" lon="6.66944">
        <ele>1472.4000244141</ele>
        <time>2012-02-12T06:44:02Z</time>
      </trkpt>
      <trkpt lat="45.59766" lon="6.66943">
        <ele>1472.8000488281</ele>
        <time>2012-02-12T06:44:05Z</time>
      </trkpt>
      <trkpt lat="45.59767" lon="6.66943">
        <ele>1473</ele>
        <time>2012-02-12T06:44:06Z</time>
      </trkpt>
      <trkpt lat="45.59767" lon="6.66941">
        <ele>1473.4000244141</ele>
        <time>2012-02-12T06:44:08Z</time>
      </trkpt>
      <trkpt lat="45.59769" lon="6.66938">
        <ele>1474</ele>
        <time>2012-02-12T06:44:12Z</time>
      </trkpt>
      <trkpt lat="45.5977" lon="6.66935">
        <ele>1474.5999755859</ele>
        <time>2012-02-12T06:44:15Z</time>
      </trkpt>
      <trkpt lat="45.5977" lon="6.66933">
        <ele>1475</ele>
        <time>2012-02-12T06:44:18Z</time>
      </trkpt>
      <trkpt lat="45.5977" lon="6.66933">
        <ele>1475</ele>
        <time>2012-02-12T06:44:21Z</time>
      </trkpt>
      <trkpt lat="45.5977" lon="6.66932">
        <ele>1475</ele>
        <time>2012-02-12T06:44:26Z</time>
      </trkpt>
      <trkpt lat="45.5977" lon="6.66932">
        <ele>1475</ele>
        <time>2012-02-12T06:44:30Z</time>
      </trkpt>
      <trkpt lat="45.5977" lon="6.66932">
        <ele>1475.1999511719</ele>
        <time>2012-02-12T06:44:33Z</time>
      </trkpt>
      <trkpt lat="45.5977" lon="6.66931">
        <ele>1475.1999511719</ele>
        <time>2012-02-12T06:44:35Z</time>
      </trkpt>
      <trkpt lat="45.5977" lon="6.66931">
        <ele>1475.1999511719</ele>
        <time>2012-02-12T06:44:39Z</time>
      </trkpt>
      <trkpt lat="45.5977" lon="6.66931">
        <ele>1475.1999511719</ele>
        <time>2012-02-12T06:44:42Z</time>
      </trkpt>
      <trkpt lat="45.5977" lon="6.66931">
        <ele>1475</ele>
        <time>2012-02-12T06:44:45Z</time>
      </trkpt>
      <trkpt lat="45.5977" lon="6.66931">
        <ele>1475.1999511719</ele>
        <time>2012-02-12T06:44:55Z</time>
      </trkpt>
      <trkpt lat="45.5977" lon="6.6693">
        <ele>1475.4000244141</ele>
        <time>2012-02-12T06:44:56Z</time>
      </trkpt>
      <trkpt lat="45.59771" lon="6.66925">
        <ele>1476.4000244141</ele>
        <time>2012-02-12T06:45:02Z</time>
      </trkpt>
      <trkpt lat="45.59771" lon="6.66923">
        <ele>1476.4000244141</ele>
        <time>2012-02-12T06:45:03Z</time>
      </trkpt>
      <trkpt lat="45.59772" lon="6.66919">
        <ele>1477.4000244141</ele>
        <time>2012-02-12T06:45:08Z</time>
      </trkpt>
      <trkpt lat="45.59773" lon="6.66918">
        <ele>1477.5999755859</ele>
        <time>2012-02-12T06:45:09Z</time>
      </trkpt>
      <trkpt lat="45.59774" lon="6.66913">
        <ele>1478.4000244141</ele>
        <time>2012-02-12T06:45:14Z</time>
      </trkpt>
      <trkpt lat="45.59775" lon="6.66911">
        <ele>1478.8000488281</ele>
        <time>2012-02-12T06:45:16Z</time>
      </trkpt>
      <trkpt lat="45.59776" lon="6.6691">
        <ele>1478.8000488281</ele>
        <time>2012-02-12T06:45:17Z</time>
      </trkpt>
      <trkpt lat="45.59776" lon="6.66909">
        <ele>1479</ele>
        <time>2012-02-12T06:45:18Z</time>
      </trkpt>
      <trkpt lat="45.59777" lon="6.66907">
        <ele>1479.4000244141</ele>
        <time>2012-02-12T06:45:20Z</time>
      </trkpt>
      <trkpt lat="45.59778" lon="6.66904">
        <ele>1479.8000488281</ele>
        <time>2012-02-12T06:45:23Z</time>
      </trkpt>
      <trkpt lat="45.59778" lon="6.66903">
        <ele>1479.8000488281</ele>
        <time>2012-02-12T06:45:24Z</time>
      </trkpt>
      <trkpt lat="45.59778" lon="6.66902">
        <ele>1480</ele>
        <time>2012-02-12T06:45:25Z</time>
      </trkpt>
      <trkpt lat="45.5978" lon="6.66898">
        <ele>1480.8000488281</ele>
        <time>2012-02-12T06:45:30Z</time>
      </trkpt>
      <trkpt lat="45.59782" lon="6.66896">
        <ele>1481.1999511719</ele>
        <time>2012-02-12T06:45:32Z</time>
      </trkpt>
      <trkpt lat="45.59783" lon="6.66894">
        <ele>1481.8000488281</ele>
        <time>2012-02-12T06:45:35Z</time>
      </trkpt>
      <trkpt lat="45.59785" lon="6.66892">
        <ele>1482.1999511719</ele>
        <time>2012-02-12T06:45:39Z</time>
      </trkpt>
      <trkpt lat="45.59785" lon="6.66891">
        <ele>1482.4000244141</ele>
        <time>2012-02-12T06:45:41Z</time>
      </trkpt>
      <trkpt lat="45.59787" lon="6.66889">
        <ele>1483</ele>
        <time>2012-02-12T06:45:44Z</time>
      </trkpt>
      <trkpt lat="45.59789" lon="6.66887">
        <ele>1483.5999755859</ele>
        <time>2012-02-12T06:45:48Z</time>
      </trkpt>
      <trkpt lat="45.5979" lon="6.66887">
        <ele>1484</ele>
        <time>2012-02-12T06:45:52Z</time>
      </trkpt>
      <trkpt lat="45.5979" lon="6.66887">
        <ele>1484</ele>
        <time>2012-02-12T06:45:55Z</time>
      </trkpt>
      <trkpt lat="45.59791" lon="6.66887">
        <ele>1484</ele>
        <time>2012-02-12T06:45:59Z</time>
      </trkpt>
      <trkpt lat="45.59792" lon="6.66887">
        <ele>1484.4000244141</ele>
        <time>2012-02-12T06:46:01Z</time>
      </trkpt>
      <trkpt lat="45.59794" lon="6.66888">
        <ele>1484.5999755859</ele>
        <time>2012-02-12T06:46:03Z</time>
      </trkpt>
      <trkpt lat="45.59795" lon="6.66889">
        <ele>1484.8000488281</ele>
        <time>2012-02-12T06:46:05Z</time>
      </trkpt>
      <trkpt lat="45.59795" lon="6.66889">
        <ele>1484.5999755859</ele>
        <time>2012-02-12T06:46:06Z</time>
      </trkpt>
      <trkpt lat="45.59796" lon="6.66884">
        <ele>1485.4000244141</ele>
        <time>2012-02-12T06:46:12Z</time>
      </trkpt>
      <trkpt lat="45.59794" lon="6.66877">
        <ele>1485.8000488281</ele>
        <time>2012-02-12T06:46:17Z</time>
      </trkpt>
      <trkpt lat="45.59794" lon="6.66875">
        <ele>1486</ele>
        <time>2012-02-12T06:46:19Z</time>
      </trkpt>
      <trkpt lat="45.59794" lon="6.66873">
        <ele>1486.1999511719</ele>
        <time>2012-02-12T06:46:24Z</time>
      </trkpt>
      <trkpt lat="45.59795" lon="6.66872">
        <ele>1486.5999755859</ele>
        <time>2012-02-12T06:46:31Z</time>
      </trkpt>
      <trkpt lat="45.59796" lon="6.66869">
        <ele>1487.1999511719</ele>
        <time>2012-02-12T06:46:38Z</time>
      </trkpt>
      <trkpt lat="45.59796" lon="6.66869">
        <ele>1487.4000244141</ele>
        <time>2012-02-12T06:46:39Z</time>
      </trkpt>
      <trkpt lat="45.59799" lon="6.66865">
        <ele>1488.4000244141</ele>
        <time>2012-02-12T06:46:44Z</time>
      </trkpt>
      <trkpt lat="45.598" lon="6.66864">
        <ele>1488.5999755859</ele>
        <time>2012-02-12T06:46:45Z</time>
      </trkpt>
      <trkpt lat="45.59802" lon="6.6686">
        <ele>1489.5999755859</ele>
        <time>2012-02-12T06:46:50Z</time>
      </trkpt>
      <trkpt lat="45.59802" lon="6.66859">
        <ele>1489.8000488281</ele>
        <time>2012-02-12T06:46:51Z</time>
      </trkpt>
      <trkpt lat="45.59804" lon="6.66855">
        <ele>1490.8000488281</ele>
        <time>2012-02-12T06:46:56Z</time>
      </trkpt>
      <trkpt lat="45.59804" lon="6.66854">
        <ele>1491</ele>
        <time>2012-02-12T06:46:57Z</time>
      </trkpt>
      <trkpt lat="45.59806" lon="6.66852">
        <ele>1491.5999755859</ele>
        <time>2012-02-12T06:47:00Z</time>
      </trkpt>
      <trkpt lat="45.59806" lon="6.66851">
        <ele>1491.8000488281</ele>
        <time>2012-02-12T06:47:01Z</time>
      </trkpt>
      <trkpt lat="45.59806" lon="6.6685">
        <ele>1492</ele>
        <time>2012-02-12T06:47:02Z</time>
      </trkpt>
      <trkpt lat="45.59809" lon="6.66844">
        <ele>1493.4000244141</ele>
        <time>2012-02-12T06:47:08Z</time>
      </trkpt>
      <trkpt lat="45.59809" lon="6.66843">
        <ele>1493.8000488281</ele>
        <time>2012-02-12T06:47:09Z</time>
      </trkpt>
      <trkpt lat="45.5981" lon="6.66842">
        <ele>1494.1999511719</ele>
        <time>2012-02-12T06:47:11Z</time>
      </trkpt>
      <trkpt lat="45.59811" lon="6.66841">
        <ele>1494.5999755859</ele>
        <time>2012-02-12T06:47:13Z</time>
      </trkpt>
      <trkpt lat="45.59812" lon="6.66841">
        <ele>1494.8000488281</ele>
        <time>2012-02-12T06:47:14Z</time>
      </trkpt>
      <trkpt lat="45.59814" lon="6.66837">
        <ele>1496</ele>
        <time>2012-02-12T06:47:19Z</time>
      </trkpt>
      <trkpt lat="45.59815" lon="6.66836">
        <ele>1496.4000244141</ele>
        <time>2012-02-12T06:47:21Z</time>
      </trkpt>
      <trkpt lat="45.59817" lon="6.66834">
        <ele>1497.1999511719</ele>
        <time>2012-02-12T06:47:24Z</time>
      </trkpt>
      <trkpt lat="45.59819" lon="6.66831">
        <ele>1498.4000244141</ele>
        <time>2012-02-12T06:47:28Z</time>
      </trkpt>
      <trkpt lat="45.5982" lon="6.66829">
        <ele>1499</ele>
        <time>2012-02-12T06:47:30Z</time>
      </trkpt>
      <trkpt lat="45.59821" lon="6.66828">
        <ele>1499.5999755859</ele>
        <time>2012-02-12T06:47:32Z</time>
      </trkpt>
      <trkpt lat="45.59823" lon="6.66825">
        <ele>1500.8000488281</ele>
        <time>2012-02-12T06:47:36Z</time>
      </trkpt>
      <trkpt lat="45.59823" lon="6.66824">
        <ele>1501</ele>
        <time>2012-02-12T06:47:37Z</time>
      </trkpt>
      <trkpt lat="45.59827" lon="6.66817">
        <ele>1503.4000244141</ele>
        <time>2012-02-12T06:47:47Z</time>
      </trkpt>
      <trkpt lat="45.59828" lon="6.66812">
        <ele>1504.8000488281</ele>
        <time>2012-02-12T06:47:52Z</time>
      </trkpt>
      <trkpt lat="45.59828" lon="6.66811">
        <ele>1505</ele>
        <time>2012-02-12T06:47:53Z</time>
      </trkpt>
      <trkpt lat="45.59829" lon="6.66805">
        <ele>1506.4000244141</ele>
        <time>2012-02-12T06:48:00Z</time>
      </trkpt>
      <trkpt lat="45.59828" lon="6.66806">
        <ele>1506.1999511719</ele>
        <time>2012-02-12T06:48:01Z</time>
      </trkpt>
      <trkpt lat="45.59831" lon="6.66805">
        <ele>1507</ele>
        <time>2012-02-12T06:48:05Z</time>
      </trkpt>
      <trkpt lat="45.59832" lon="6.66803">
        <ele>1507.5999755859</ele>
        <time>2012-02-12T06:48:07Z</time>
      </trkpt>
      <trkpt lat="45.59832" lon="6.66799">
        <ele>1508.5999755859</ele>
        <time>2012-02-12T06:48:12Z</time>
      </trkpt>
      <trkpt lat="45.59832" lon="6.66798">
        <ele>1509</ele>
        <time>2012-02-12T06:48:13Z</time>
      </trkpt>
      <trkpt lat="45.59831" lon="6.66791">
        <ele>1510</ele>
        <time>2012-02-12T06:48:19Z</time>
      </trkpt>
      <trkpt lat="45.59831" lon="6.66789">
        <ele>1510.4000244141</ele>
        <time>2012-02-12T06:48:21Z</time>
      </trkpt>
      <trkpt lat="45.59831" lon="6.66787">
        <ele>1510.8000488281</ele>
        <time>2012-02-12T06:48:23Z</time>
      </trkpt>
      <trkpt lat="45.5983" lon="6.66785">
        <ele>1511.1999511719</ele>
        <time>2012-02-12T06:48:25Z</time>
      </trkpt>
      <trkpt lat="45.5983" lon="6.66781">
        <ele>1511.8000488281</ele>
        <time>2012-02-12T06:48:28Z</time>
      </trkpt>
      <trkpt lat="45.5983" lon="6.66779">
        <ele>1512.1999511719</ele>
        <time>2012-02-12T06:48:30Z</time>
      </trkpt>
      <trkpt lat="45.59831" lon="6.66777">
        <ele>1512.5999755859</ele>
        <time>2012-02-12T06:48:31Z</time>
      </trkpt>
      <trkpt lat="45.59831" lon="6.66776">
        <ele>1513.1999511719</ele>
        <time>2012-02-12T06:48:33Z</time>
      </trkpt>
      <trkpt lat="45.59832" lon="6.66775">
        <ele>1513.5999755859</ele>
        <time>2012-02-12T06:48:35Z</time>
      </trkpt>
      <trkpt lat="45.59833" lon="6.66774">
        <ele>1514</ele>
        <time>2012-02-12T06:48:36Z</time>
      </trkpt>
      <trkpt lat="45.59836" lon="6.66773">
        <ele>1515</ele>
        <time>2012-02-12T06:48:41Z</time>
      </trkpt>
      <trkpt lat="45.59839" lon="6.66772">
        <ele>1516.1999511719</ele>
        <time>2012-02-12T06:48:46Z</time>
      </trkpt>
      <trkpt lat="45.5984" lon="6.66771">
        <ele>1516.8000488281</ele>
        <time>2012-02-12T06:48:48Z</time>
      </trkpt>
      <trkpt lat="45.59841" lon="6.66767">
        <ele>1517.8000488281</ele>
        <time>2012-02-12T06:48:52Z</time>
      </trkpt>
      <trkpt lat="45.59841" lon="6.66766">
        <ele>1518.4000244141</ele>
        <time>2012-02-12T06:48:54Z</time>
      </trkpt>
      <trkpt lat="45.59841" lon="6.66763">
        <ele>1519</ele>
        <time>2012-02-12T06:48:57Z</time>
      </trkpt>
      <trkpt lat="45.59841" lon="6.6676">
        <ele>1519.4000244141</ele>
        <time>2012-02-12T06:49:00Z</time>
      </trkpt>
      <trkpt lat="45.59841" lon="6.66759">
        <ele>1519.8000488281</ele>
        <time>2012-02-12T06:49:01Z</time>
      </trkpt>
      <trkpt lat="45.59841" lon="6.66757">
        <ele>1520.1999511719</ele>
        <time>2012-02-12T06:49:03Z</time>
      </trkpt>
      <trkpt lat="45.59842" lon="6.66754">
        <ele>1520.8000488281</ele>
        <time>2012-02-12T06:49:06Z</time>
      </trkpt>
      <trkpt lat="45.59842" lon="6.66754">
        <ele>1520.8000488281</ele>
        <time>2012-02-12T06:49:11Z</time>
      </trkpt>
      <trkpt lat="45.59841" lon="6.66754">
        <ele>1520.8000488281</ele>
        <time>2012-02-12T06:49:13Z</time>
      </trkpt>
      <trkpt lat="45.59842" lon="6.66752">
        <ele>1521.4000244141</ele>
        <time>2012-02-12T06:49:16Z</time>
      </trkpt>
      <trkpt lat="45.59842" lon="6.66749">
        <ele>1522</ele>
        <time>2012-02-12T06:49:19Z</time>
      </trkpt>
      <trkpt lat="45.59842" lon="6.66749">
        <ele>1522</ele>
        <time>2012-02-12T06:49:20Z</time>
      </trkpt>
      <trkpt lat="45.59841" lon="6.66745">
        <ele>1523</ele>
        <time>2012-02-12T06:49:24Z</time>
      </trkpt>
      <trkpt lat="45.5984" lon="6.66743">
        <ele>1523.1999511719</ele>
        <time>2012-02-12T06:49:30Z</time>
      </trkpt>
      <trkpt lat="45.5984" lon="6.66741">
        <ele>1523.5999755859</ele>
        <time>2012-02-12T06:49:31Z</time>
      </trkpt>
      <trkpt lat="45.59841" lon="6.66739">
        <ele>1524.5999755859</ele>
        <time>2012-02-12T06:49:33Z</time>
      </trkpt>
      <trkpt lat="45.59842" lon="6.66738">
        <ele>1525.1999511719</ele>
        <time>2012-02-12T06:49:35Z</time>
      </trkpt>
      <trkpt lat="45.59844" lon="6.66738">
        <ele>1525.8000488281</ele>
        <time>2012-02-12T06:49:39Z</time>
      </trkpt>
      <trkpt lat="45.59846" lon="6.66739">
        <ele>1526.4000244141</ele>
        <time>2012-02-12T06:49:44Z</time>
      </trkpt>
      <trkpt lat="45.59848" lon="6.66737">
        <ele>1527.1999511719</ele>
        <time>2012-02-12T06:49:51Z</time>
      </trkpt>
      <trkpt lat="45.59851" lon="6.66735">
        <ele>1528.5999755859</ele>
        <time>2012-02-12T06:49:57Z</time>
      </trkpt>
      <trkpt lat="45.59851" lon="6.66735">
        <ele>1528.8000488281</ele>
        <time>2012-02-12T06:49:58Z</time>
      </trkpt>
      <trkpt lat="45.59854" lon="6.66733">
        <ele>1530.1999511719</ele>
        <time>2012-02-12T06:50:02Z</time>
      </trkpt>
      <trkpt lat="45.59855" lon="6.66733">
        <ele>1530.8000488281</ele>
        <time>2012-02-12T06:50:04Z</time>
      </trkpt>
      <trkpt lat="45.59857" lon="6.66734">
        <ele>1531</ele>
        <time>2012-02-12T06:50:08Z</time>
      </trkpt>
      <trkpt lat="45.59858" lon="6.66734">
        <ele>1531.1999511719</ele>
        <time>2012-02-12T06:50:09Z</time>
      </trkpt>
      <trkpt lat="45.5986" lon="6.66735">
        <ele>1531.5999755859</ele>
        <time>2012-02-12T06:50:13Z</time>
      </trkpt>
      <trkpt lat="45.59862" lon="6.66736">
        <ele>1531.8000488281</ele>
        <time>2012-02-12T06:50:15Z</time>
      </trkpt>
      <trkpt lat="45.59863" lon="6.66737">
        <ele>1532</ele>
        <time>2012-02-12T06:50:18Z</time>
      </trkpt>
      <trkpt lat="45.59866" lon="6.66739">
        <ele>1532.1999511719</ele>
        <time>2012-02-12T06:50:22Z</time>
      </trkpt>
      <trkpt lat="45.59867" lon="6.66741">
        <ele>1532.4000244141</ele>
        <time>2012-02-12T06:50:26Z</time>
      </trkpt>
      <trkpt lat="45.59868" lon="6.66742">
        <ele>1532.4000244141</ele>
        <time>2012-02-12T06:50:30Z</time>
      </trkpt>
      <trkpt lat="45.59871" lon="6.66745">
        <ele>1532.1999511719</ele>
        <time>2012-02-12T06:50:35Z</time>
      </trkpt>
      <trkpt lat="45.59872" lon="6.66747">
        <ele>1532.4000244141</ele>
        <time>2012-02-12T06:50:37Z</time>
      </trkpt>
      <trkpt lat="45.59874" lon="6.6675">
        <ele>1532.1999511719</ele>
        <time>2012-02-12T06:50:41Z</time>
      </trkpt>
      <trkpt lat="45.59875" lon="6.66751">
        <ele>1532.1999511719</ele>
        <time>2012-02-12T06:50:43Z</time>
      </trkpt>
      <trkpt lat="45.59876" lon="6.66752">
        <ele>1532.4000244141</ele>
        <time>2012-02-12T06:50:47Z</time>
      </trkpt>
      <trkpt lat="45.59876" lon="6.66751">
        <ele>1532.5999755859</ele>
        <time>2012-02-12T06:50:49Z</time>
      </trkpt>
      <trkpt lat="45.59877" lon="6.66746">
        <ele>1534</ele>
        <time>2012-02-12T06:50:55Z</time>
      </trkpt>
      <trkpt lat="45.59878" lon="6.66741">
        <ele>1535.5999755859</ele>
        <time>2012-02-12T06:51:00Z</time>
      </trkpt>
      <trkpt lat="45.59879" lon="6.66737">
        <ele>1536.8000488281</ele>
        <time>2012-02-12T06:51:04Z</time>
      </trkpt>
      <trkpt lat="45.5988" lon="6.66734">
        <ele>1537.8000488281</ele>
        <time>2012-02-12T06:51:07Z</time>
      </trkpt>
      <trkpt lat="45.59881" lon="6.6673">
        <ele>1539.1999511719</ele>
        <time>2012-02-12T06:51:12Z</time>
      </trkpt>
      <trkpt lat="45.59882" lon="6.66729">
        <ele>1539.5999755859</ele>
        <time>2012-02-12T06:51:14Z</time>
      </trkpt>
      <trkpt lat="45.59882" lon="6.66727">
        <ele>1540</ele>
        <time>2012-02-12T06:51:16Z</time>
      </trkpt>
      <trkpt lat="45.59883" lon="6.66725">
        <ele>1540.8000488281</ele>
        <time>2012-02-12T06:51:19Z</time>
      </trkpt>
      <trkpt lat="45.59883" lon="6.66722">
        <ele>1541.5999755859</ele>
        <time>2012-02-12T06:51:22Z</time>
      </trkpt>
      <trkpt lat="45.59884" lon="6.66719">
        <ele>1542.5999755859</ele>
        <time>2012-02-12T06:51:25Z</time>
      </trkpt>
      <trkpt lat="45.59885" lon="6.66717">
        <ele>1543.1999511719</ele>
        <time>2012-02-12T06:51:28Z</time>
      </trkpt>
      <trkpt lat="45.59885" lon="6.66716">
        <ele>1543.5999755859</ele>
        <time>2012-02-12T06:51:31Z</time>
      </trkpt>
      <trkpt lat="45.59887" lon="6.66712">
        <ele>1544.8000488281</ele>
        <time>2012-02-12T06:51:34Z</time>
      </trkpt>
      <trkpt lat="45.59887" lon="6.6671">
        <ele>1545.1999511719</ele>
        <time>2012-02-12T06:51:36Z</time>
      </trkpt>
      <trkpt lat="45.59887" lon="6.66709">
        <ele>1545.5999755859</ele>
        <time>2012-02-12T06:51:38Z</time>
      </trkpt>
      <trkpt lat="45.59888" lon="6.66705">
        <ele>1546.5999755859</ele>
        <time>2012-02-12T06:51:42Z</time>
      </trkpt>
      <trkpt lat="45.59889" lon="6.667">
        <ele>1548</ele>
        <time>2012-02-12T06:51:48Z</time>
      </trkpt>
      <trkpt lat="45.5989" lon="6.667">
        <ele>1548.1999511719</ele>
        <time>2012-02-12T06:51:50Z</time>
      </trkpt>
      <trkpt lat="45.59891" lon="6.66701">
        <ele>1548.4000244141</ele>
        <time>2012-02-12T06:51:53Z</time>
      </trkpt>
      <trkpt lat="45.59892" lon="6.66702">
        <ele>1548.4000244141</ele>
        <time>2012-02-12T06:51:54Z</time>
      </trkpt>
      <trkpt lat="45.59893" lon="6.66703">
        <ele>1548.4000244141</ele>
        <time>2012-02-12T06:51:55Z</time>
      </trkpt>
      <trkpt lat="45.59895" lon="6.66704">
        <ele>1548.5999755859</ele>
        <time>2012-02-12T06:51:58Z</time>
      </trkpt>
      <trkpt lat="45.59895" lon="6.66705">
        <ele>1548.5999755859</ele>
        <time>2012-02-12T06:51:59Z</time>
      </trkpt>
      <trkpt lat="45.59899" lon="6.66708">
        <ele>1549</ele>
        <time>2012-02-12T06:52:05Z</time>
      </trkpt>
      <trkpt lat="45.59901" lon="6.66709">
        <ele>1549.1999511719</ele>
        <time>2012-02-12T06:52:10Z</time>
      </trkpt>
      <trkpt lat="45.59903" lon="6.66711">
        <ele>1549.4000244141</ele>
        <time>2012-02-12T06:52:11Z</time>
      </trkpt>
      <trkpt lat="45.59906" lon="6.66713">
        <ele>1550</ele>
        <time>2012-02-12T06:52:16Z</time>
      </trkpt>
      <trkpt lat="45.59906" lon="6.66712">
        <ele>1549.8000488281</ele>
        <time>2012-02-12T06:52:17Z</time>
      </trkpt>
      <trkpt lat="45.59909" lon="6.66714">
        <ele>1550.4000244141</ele>
        <time>2012-02-12T06:52:20Z</time>
      </trkpt>
      <trkpt lat="45.5991" lon="6.66714">
        <ele>1550.5999755859</ele>
        <time>2012-02-12T06:52:26Z</time>
      </trkpt>
      <trkpt lat="45.59911" lon="6.66715">
        <ele>1551</ele>
        <time>2012-02-12T06:52:32Z</time>
      </trkpt>
      <trkpt lat="45.59912" lon="6.66715">
        <ele>1551</ele>
        <time>2012-02-12T06:52:38Z</time>
      </trkpt>
      <trkpt lat="45.59911" lon="6.66714">
        <ele>1551</ele>
        <time>2012-02-12T06:52:45Z</time>
      </trkpt>
      <trkpt lat="45.59912" lon="6.66715">
        <ele>1551.1999511719</ele>
        <time>2012-02-12T06:52:48Z</time>
      </trkpt>
      <trkpt lat="45.59914" lon="6.66715">
        <ele>1551.8000488281</ele>
        <time>2012-02-12T06:52:51Z</time>
      </trkpt>
      <trkpt lat="45.59915" lon="6.66715">
        <ele>1552</ele>
        <time>2012-02-12T06:52:52Z</time>
      </trkpt>
      <trkpt lat="45.59916" lon="6.66715">
        <ele>1552.1999511719</ele>
        <time>2012-02-12T06:52:54Z</time>
      </trkpt>
      <trkpt lat="45.59919" lon="6.66717">
        <ele>1553.1999511719</ele>
        <time>2012-02-12T06:52:58Z</time>
      </trkpt>
      <trkpt lat="45.59919" lon="6.66717">
        <ele>1553.1999511719</ele>
        <time>2012-02-12T06:53:00Z</time>
      </trkpt>
      <trkpt lat="45.59921" lon="6.66718">
        <ele>1554</ele>
        <time>2012-02-12T06:53:02Z</time>
      </trkpt>
      <trkpt lat="45.59924" lon="6.6672">
        <ele>1554.5999755859</ele>
        <time>2012-02-12T06:53:06Z</time>
      </trkpt>
      <trkpt lat="45.59927" lon="6.66721">
        <ele>1556</ele>
        <time>2012-02-12T06:53:11Z</time>
      </trkpt>
      <trkpt lat="45.59928" lon="6.66723">
        <ele>1556</ele>
        <time>2012-02-12T06:53:12Z</time>
      </trkpt>
      <trkpt lat="45.5993" lon="6.66724">
        <ele>1556.8000488281</ele>
        <time>2012-02-12T06:53:15Z</time>
      </trkpt>
      <trkpt lat="45.59931" lon="6.66724">
        <ele>1557</ele>
        <time>2012-02-12T06:53:16Z</time>
      </trkpt>
      <trkpt lat="45.59933" lon="6.66726">
        <ele>1557.8000488281</ele>
        <time>2012-02-12T06:53:20Z</time>
      </trkpt>
      <trkpt lat="45.59934" lon="6.66727">
        <ele>1558.1999511719</ele>
        <time>2012-02-12T06:53:22Z</time>
      </trkpt>
      <trkpt lat="45.59937" lon="6.66728">
        <ele>1559.1999511719</ele>
        <time>2012-02-12T06:53:27Z</time>
      </trkpt>
      <trkpt lat="45.59941" lon="6.66731">
        <ele>1560.1999511719</ele>
        <time>2012-02-12T06:53:32Z</time>
      </trkpt>
      <trkpt lat="45.59941" lon="6.66731">
        <ele>1560.1999511719</ele>
        <time>2012-02-12T06:53:34Z</time>
      </trkpt>
      <trkpt lat="45.59943" lon="6.66731">
        <ele>1561.4000244141</ele>
        <time>2012-02-12T06:53:39Z</time>
      </trkpt>
      <trkpt lat="45.59944" lon="6.66731">
        <ele>1561.5999755859</ele>
        <time>2012-02-12T06:53:40Z</time>
      </trkpt>
      <trkpt lat="45.59946" lon="6.66731">
        <ele>1562.5999755859</ele>
        <time>2012-02-12T06:53:43Z</time>
      </trkpt>
      <trkpt lat="45.59946" lon="6.66731">
        <ele>1562.5999755859</ele>
        <time>2012-02-12T06:53:45Z</time>
      </trkpt>
      <trkpt lat="45.59948" lon="6.66733">
        <ele>1563</ele>
        <time>2012-02-12T06:53:46Z</time>
      </trkpt>
      <trkpt lat="45.59948" lon="6.66735">
        <ele>1562.8000488281</ele>
        <time>2012-02-12T06:53:49Z</time>
      </trkpt>
      <trkpt lat="45.59948" lon="6.66736">
        <ele>1562.5999755859</ele>
        <time>2012-02-12T06:53:50Z</time>
      </trkpt>
      <trkpt lat="45.5995" lon="6.6674">
        <ele>1562.1999511719</ele>
        <time>2012-02-12T06:53:55Z</time>
      </trkpt>
      <trkpt lat="45.59951" lon="6.66742">
        <ele>1562</ele>
        <time>2012-02-12T06:53:57Z</time>
      </trkpt>
      <trkpt lat="45.59951" lon="6.66744">
        <ele>1561.8000488281</ele>
        <time>2012-02-12T06:54:00Z</time>
      </trkpt>
      <trkpt lat="45.59952" lon="6.66746">
        <ele>1561.8000488281</ele>
        <time>2012-02-12T06:54:02Z</time>
      </trkpt>
      <trkpt lat="45.59952" lon="6.66745">
        <ele>1561.8000488281</ele>
        <time>2012-02-12T06:54:03Z</time>
      </trkpt>
      <trkpt lat="45.59954" lon="6.66749">
        <ele>1562</ele>
        <time>2012-02-12T06:54:06Z</time>
      </trkpt>
      <trkpt lat="45.59954" lon="6.66749">
        <ele>1562</ele>
        <time>2012-02-12T06:54:07Z</time>
      </trkpt>
      <trkpt lat="45.59958" lon="6.66753">
        <ele>1562.5999755859</ele>
        <time>2012-02-12T06:54:13Z</time>
      </trkpt>
      <trkpt lat="45.5996" lon="6.66755">
        <ele>1563</ele>
        <time>2012-02-12T06:54:18Z</time>
      </trkpt>
      <trkpt lat="45.59962" lon="6.66756">
        <ele>1563.5999755859</ele>
        <time>2012-02-12T06:54:20Z</time>
      </trkpt>
      <trkpt lat="45.59964" lon="6.66756">
        <ele>1564.4000244141</ele>
        <time>2012-02-12T06:54:23Z</time>
      </trkpt>
      <trkpt lat="45.59964" lon="6.66756">
        <ele>1564.4000244141</ele>
        <time>2012-02-12T06:54:25Z</time>
      </trkpt>
      <trkpt lat="45.59965" lon="6.66755">
        <ele>1564.8000488281</ele>
        <time>2012-02-12T06:54:29Z</time>
      </trkpt>
      <trkpt lat="45.59966" lon="6.66753">
        <ele>1565.8000488281</ele>
        <time>2012-02-12T06:54:35Z</time>
      </trkpt>
      <trkpt lat="45.59965" lon="6.66752">
        <ele>1565.8000488281</ele>
        <time>2012-02-12T06:54:43Z</time>
      </trkpt>
      <trkpt lat="45.59967" lon="6.66748">
        <ele>1567.8000488281</ele>
        <time>2012-02-12T06:54:47Z</time>
      </trkpt>
      <trkpt lat="45.59968" lon="6.66745">
        <ele>1568.5999755859</ele>
        <time>2012-02-12T06:54:49Z</time>
      </trkpt>
      <trkpt lat="45.59968" lon="6.66744">
        <ele>1569.1999511719</ele>
        <time>2012-02-12T06:54:55Z</time>
      </trkpt>
      <trkpt lat="45.59968" lon="6.66742">
        <ele>1569.5999755859</ele>
        <time>2012-02-12T06:54:59Z</time>
      </trkpt>
      <trkpt lat="45.59969" lon="6.66741">
        <ele>1570</ele>
        <time>2012-02-12T06:55:00Z</time>
      </trkpt>
      <trkpt lat="45.59971" lon="6.66736">
        <ele>1572.4000244141</ele>
        <time>2012-02-12T06:55:06Z</time>
      </trkpt>
      <trkpt lat="45.59971" lon="6.66735">
        <ele>1572.8000488281</ele>
        <time>2012-02-12T06:55:07Z</time>
      </trkpt>
      <trkpt lat="45.59972" lon="6.66732">
        <ele>1574</ele>
        <time>2012-02-12T06:55:10Z</time>
      </trkpt>
      <trkpt lat="45.59973" lon="6.66729">
        <ele>1575.1999511719</ele>
        <time>2012-02-12T06:55:13Z</time>
      </trkpt>
      <trkpt lat="45.59974" lon="6.66728">
        <ele>1575.8000488281</ele>
        <time>2012-02-12T06:55:14Z</time>
      </trkpt>
      <trkpt lat="45.59974" lon="6.66727">
        <ele>1576</ele>
        <time>2012-02-12T06:55:15Z</time>
      </trkpt>
      <trkpt lat="45.59975" lon="6.66723">
        <ele>1577.8000488281</ele>
        <time>2012-02-12T06:55:19Z</time>
      </trkpt>
      <trkpt lat="45.59978" lon="6.66718">
        <ele>1580.1999511719</ele>
        <time>2012-02-12T06:55:25Z</time>
      </trkpt>
      <trkpt lat="45.59978" lon="6.66717">
        <ele>1580.5999755859</ele>
        <time>2012-02-12T06:55:26Z</time>
      </trkpt>
      <trkpt lat="45.59978" lon="6.66716">
        <ele>1581</ele>
        <time>2012-02-12T06:55:27Z</time>
      </trkpt>
      <trkpt lat="45.59978" lon="6.66715">
        <ele>1581.4000244141</ele>
        <time>2012-02-12T06:55:28Z</time>
      </trkpt>
      <trkpt lat="45.59978" lon="6.66711">
        <ele>1582.5999755859</ele>
        <time>2012-02-12T06:55:31Z</time>
      </trkpt>
      <trkpt lat="45.59978" lon="6.66701">
        <ele>1584.8000488281</ele>
        <time>2012-02-12T06:55:38Z</time>
      </trkpt>
      <trkpt lat="45.59978" lon="6.66698">
        <ele>1585.8000488281</ele>
        <time>2012-02-12T06:55:41Z</time>
      </trkpt>
      <trkpt lat="45.59978" lon="6.66693">
        <ele>1586.8000488281</ele>
        <time>2012-02-12T06:55:45Z</time>
      </trkpt>
      <trkpt lat="45.59977" lon="6.66688">
        <ele>1588</ele>
        <time>2012-02-12T06:55:50Z</time>
      </trkpt>
      <trkpt lat="45.59977" lon="6.66685">
        <ele>1588.8000488281</ele>
        <time>2012-02-12T06:55:53Z</time>
      </trkpt>
      <trkpt lat="45.59976" lon="6.66681">
        <ele>1589.5999755859</ele>
        <time>2012-02-12T06:55:56Z</time>
      </trkpt>
      <trkpt lat="45.59976" lon="6.66677">
        <ele>1590.1999511719</ele>
        <time>2012-02-12T06:56:00Z</time>
      </trkpt>
      <trkpt lat="45.59975" lon="6.66676">
        <ele>1590.4000244141</ele>
        <time>2012-02-12T06:56:05Z</time>
      </trkpt>
      <trkpt lat="45.59974" lon="6.66668">
        <ele>1591.5999755859</ele>
        <time>2012-02-12T06:56:12Z</time>
      </trkpt>
      <trkpt lat="45.59973" lon="6.66666">
        <ele>1591.8000488281</ele>
        <time>2012-02-12T06:56:14Z</time>
      </trkpt>
      <trkpt lat="45.59972" lon="6.66661">
        <ele>1592.4000244141</ele>
        <time>2012-02-12T06:56:18Z</time>
      </trkpt>
      <trkpt lat="45.59972" lon="6.6666">
        <ele>1592.4000244141</ele>
        <time>2012-02-12T06:56:19Z</time>
      </trkpt>
      <trkpt lat="45.59972" lon="6.66659">
        <ele>1592.5999755859</ele>
        <time>2012-02-12T06:56:20Z</time>
      </trkpt>
      <trkpt lat="45.59972" lon="6.66657">
        <ele>1592.8000488281</ele>
        <time>2012-02-12T06:56:22Z</time>
      </trkpt>
      <trkpt lat="45.59971" lon="6.66655">
        <ele>1593</ele>
        <time>2012-02-12T06:56:24Z</time>
      </trkpt>
      <trkpt lat="45.59969" lon="6.66649">
        <ele>1593.4000244141</ele>
        <time>2012-02-12T06:56:30Z</time>
      </trkpt>
      <trkpt lat="45.59968" lon="6.66647">
        <ele>1593.5999755859</ele>
        <time>2012-02-12T06:56:33Z</time>
      </trkpt>
      <trkpt lat="45.59967" lon="6.66643">
        <ele>1594</ele>
        <time>2012-02-12T06:56:36Z</time>
      </trkpt>
      <trkpt lat="45.59962" lon="6.66635">
        <ele>1592.8000488281</ele>
        <time>2012-02-12T06:56:43Z</time>
      </trkpt>
      <trkpt lat="45.59961" lon="6.66633">
        <ele>1593</ele>
        <time>2012-02-12T06:56:46Z</time>
      </trkpt>
      <trkpt lat="45.59964" lon="6.66633">
        <ele>1594.4000244141</ele>
        <time>2012-02-12T06:56:51Z</time>
      </trkpt>
      <trkpt lat="45.59968" lon="6.66637">
        <ele>1595.8000488281</ele>
        <time>2012-02-12T06:56:57Z</time>
      </trkpt>
      <trkpt lat="45.5997" lon="6.66638">
        <ele>1596.4000244141</ele>
        <time>2012-02-12T06:56:59Z</time>
      </trkpt>
      <trkpt lat="45.59971" lon="6.66637">
        <ele>1597.4000244141</ele>
        <time>2012-02-12T06:57:03Z</time>
      </trkpt>
      <trkpt lat="45.59971" lon="6.66637">
        <ele>1597.1999511719</ele>
        <time>2012-02-12T06:57:04Z</time>
      </trkpt>
      <trkpt lat="45.59971" lon="6.66635">
        <ele>1597.5999755859</ele>
        <time>2012-02-12T06:57:05Z</time>
      </trkpt>
      <trkpt lat="45.5997" lon="6.66633">
        <ele>1597.8000488281</ele>
        <time>2012-02-12T06:57:07Z</time>
      </trkpt>
      <trkpt lat="45.5997" lon="6.66632">
        <ele>1597.8000488281</ele>
        <time>2012-02-12T06:57:08Z</time>
      </trkpt>
      <trkpt lat="45.59969" lon="6.6663">
        <ele>1598.1999511719</ele>
        <time>2012-02-12T06:57:10Z</time>
      </trkpt>
      <trkpt lat="45.59969" lon="6.66626">
        <ele>1599</ele>
        <time>2012-02-12T06:57:14Z</time>
      </trkpt>
      <trkpt lat="45.59969" lon="6.66626">
        <ele>1599.1999511719</ele>
        <time>2012-02-12T06:57:15Z</time>
      </trkpt>
      <trkpt lat="45.59969" lon="6.66621">
        <ele>1599.8000488281</ele>
        <time>2012-02-12T06:57:20Z</time>
      </trkpt>
      <trkpt lat="45.59968" lon="6.6662">
        <ele>1600</ele>
        <time>2012-02-12T06:57:22Z</time>
      </trkpt>
      <trkpt lat="45.59967" lon="6.66615">
        <ele>1600.8000488281</ele>
        <time>2012-02-12T06:57:27Z</time>
      </trkpt>
      <trkpt lat="45.59967" lon="6.66614">
        <ele>1600.8000488281</ele>
        <time>2012-02-12T06:57:28Z</time>
      </trkpt>
      <trkpt lat="45.59967" lon="6.66611">
        <ele>1601.4000244141</ele>
        <time>2012-02-12T06:57:31Z</time>
      </trkpt>
      <trkpt lat="45.59966" lon="6.66609">
        <ele>1601.4000244141</ele>
        <time>2012-02-12T06:57:34Z</time>
      </trkpt>
      <trkpt lat="45.59966" lon="6.66607">
        <ele>1601.5999755859</ele>
        <time>2012-02-12T06:57:39Z</time>
      </trkpt>
      <trkpt lat="45.59965" lon="6.66603">
        <ele>1602</ele>
        <time>2012-02-12T06:57:44Z</time>
      </trkpt>
      <trkpt lat="45.59964" lon="6.66602">
        <ele>1602.1999511719</ele>
        <time>2012-02-12T06:57:45Z</time>
      </trkpt>
      <trkpt lat="45.59963" lon="6.66596">
        <ele>1603.1999511719</ele>
        <time>2012-02-12T06:57:52Z</time>
      </trkpt>
      <trkpt lat="45.59963" lon="6.66594">
        <ele>1603.5999755859</ele>
        <time>2012-02-12T06:57:53Z</time>
      </trkpt>
      <trkpt lat="45.59962" lon="6.66589">
        <ele>1604.1999511719</ele>
        <time>2012-02-12T06:57:58Z</time>
      </trkpt>
      <trkpt lat="45.59961" lon="6.66586">
        <ele>1604.4000244141</ele>
        <time>2012-02-12T06:58:02Z</time>
      </trkpt>
      <trkpt lat="45.5996" lon="6.66584">
        <ele>1604.4000244141</ele>
        <time>2012-02-12T06:58:04Z</time>
      </trkpt>
      <trkpt lat="45.5996" lon="6.66583">
        <ele>1604.5999755859</ele>
        <time>2012-02-12T06:58:05Z</time>
      </trkpt>
      <trkpt lat="45.59959" lon="6.6658">
        <ele>1604.5999755859</ele>
        <time>2012-02-12T06:58:11Z</time>
      </trkpt>
      <trkpt lat="45.59957" lon="6.66573">
        <ele>1605.4000244141</ele>
        <time>2012-02-12T06:58:18Z</time>
      </trkpt>
      <trkpt lat="45.59957" lon="6.66568">
        <ele>1606.1999511719</ele>
        <time>2012-02-12T06:58:23Z</time>
      </trkpt>
      <trkpt lat="45.59957" lon="6.66564">
        <ele>1607.1999511719</ele>
        <time>2012-02-12T06:58:28Z</time>
      </trkpt>
      <trkpt lat="45.59958" lon="6.66557">
        <ele>1609.4000244141</ele>
        <time>2012-02-12T06:58:35Z</time>
      </trkpt>
      <trkpt lat="45.59959" lon="6.66552">
        <ele>1611.1999511719</ele>
        <time>2012-02-12T06:58:40Z</time>
      </trkpt>
      <trkpt lat="45.59959" lon="6.66547">
        <ele>1612.4000244141</ele>
        <time>2012-02-12T06:58:46Z</time>
      </trkpt>
      <trkpt lat="45.59959" lon="6.6654">
        <ele>1613.5999755859</ele>
        <time>2012-02-12T06:58:52Z</time>
      </trkpt>
      <trkpt lat="45.59959" lon="6.66534">
        <ele>1615.4000244141</ele>
        <time>2012-02-12T06:58:58Z</time>
      </trkpt>
      <trkpt lat="45.5996" lon="6.66528">
        <ele>1617.1999511719</ele>
        <time>2012-02-12T06:59:04Z</time>
      </trkpt>
      <trkpt lat="45.59962" lon="6.66522">
        <ele>1619.8000488281</ele>
        <time>2012-02-12T06:59:11Z</time>
      </trkpt>
      <trkpt lat="45.59962" lon="6.6651">
        <ele>1622.5999755859</ele>
        <time>2012-02-12T06:59:22Z</time>
      </trkpt>
      <trkpt lat="45.59962" lon="6.66504">
        <ele>1623.8000488281</ele>
        <time>2012-02-12T06:59:28Z</time>
      </trkpt>
      <trkpt lat="45.59962" lon="6.66501">
        <ele>1624.4000244141</ele>
        <time>2012-02-12T06:59:30Z</time>
      </trkpt>
      <trkpt lat="45.5996" lon="6.66492">
        <ele>1625</ele>
        <time>2012-02-12T06:59:40Z</time>
      </trkpt>
      <trkpt lat="45.5996" lon="6.66491">
        <ele>1625</ele>
        <time>2012-02-12T06:59:42Z</time>
      </trkpt>
      <trkpt lat="45.59959" lon="6.66485">
        <ele>1625.4000244141</ele>
        <time>2012-02-12T06:59:47Z</time>
      </trkpt>
      <trkpt lat="45.59959" lon="6.6648">
        <ele>1626.1999511719</ele>
        <time>2012-02-12T06:59:52Z</time>
      </trkpt>
      <trkpt lat="45.59959" lon="6.66476">
        <ele>1626.8000488281</ele>
        <time>2012-02-12T06:59:55Z</time>
      </trkpt>
      <trkpt lat="45.59959" lon="6.66472">
        <ele>1627.4000244141</ele>
        <time>2012-02-12T06:59:59Z</time>
      </trkpt>
      <trkpt lat="45.59959" lon="6.66468">
        <ele>1627.8000488281</ele>
        <time>2012-02-12T07:00:04Z</time>
      </trkpt>
      <trkpt lat="45.59959" lon="6.66464">
        <ele>1628.5999755859</ele>
        <time>2012-02-12T07:00:08Z</time>
      </trkpt>
      <trkpt lat="45.5996" lon="6.66457">
        <ele>1630</ele>
        <time>2012-02-12T07:00:15Z</time>
      </trkpt>
      <trkpt lat="45.59961" lon="6.66451">
        <ele>1631</ele>
        <time>2012-02-12T07:00:21Z</time>
      </trkpt>
      <trkpt lat="45.59962" lon="6.66444">
        <ele>1632.4000244141</ele>
        <time>2012-02-12T07:00:27Z</time>
      </trkpt>
      <trkpt lat="45.59963" lon="6.6644">
        <ele>1633.5999755859</ele>
        <time>2012-02-12T07:00:31Z</time>
      </trkpt>
      <trkpt lat="45.59964" lon="6.66436">
        <ele>1634.4000244141</ele>
        <time>2012-02-12T07:00:36Z</time>
      </trkpt>
      <trkpt lat="45.59965" lon="6.66434">
        <ele>1635.1999511719</ele>
        <time>2012-02-12T07:00:38Z</time>
      </trkpt>
      <trkpt lat="45.59966" lon="6.66432">
        <ele>1635.8000488281</ele>
        <time>2012-02-12T07:00:42Z</time>
      </trkpt>
      <trkpt lat="45.59968" lon="6.6643">
        <ele>1637</ele>
        <time>2012-02-12T07:00:48Z</time>
      </trkpt>
      <trkpt lat="45.59969" lon="6.66423">
        <ele>1638.1999511719</ele>
        <time>2012-02-12T07:00:53Z</time>
      </trkpt>
      <trkpt lat="45.59969" lon="6.66422">
        <ele>1638.4000244141</ele>
        <time>2012-02-12T07:00:56Z</time>
      </trkpt>
      <trkpt lat="45.59971" lon="6.6641">
        <ele>1640.4000244141</ele>
        <time>2012-02-12T07:01:06Z</time>
      </trkpt>
      <trkpt lat="45.59972" lon="6.66402">
        <ele>1641.4000244141</ele>
        <time>2012-02-12T07:01:12Z</time>
      </trkpt>
      <trkpt lat="45.59973" lon="6.66397">
        <ele>1642.5999755859</ele>
        <time>2012-02-12T07:01:19Z</time>
      </trkpt>
      <trkpt lat="45.59974" lon="6.6639">
        <ele>1643.4000244141</ele>
        <time>2012-02-12T07:01:26Z</time>
      </trkpt>
      <trkpt lat="45.59973" lon="6.66386">
        <ele>1643.5999755859</ele>
        <time>2012-02-12T07:01:29Z</time>
      </trkpt>
      <trkpt lat="45.59976" lon="6.66385">
        <ele>1644.5999755859</ele>
        <time>2012-02-12T07:01:37Z</time>
      </trkpt>
      <trkpt lat="45.59979" lon="6.66383">
        <ele>1645.8000488281</ele>
        <time>2012-02-12T07:01:46Z</time>
      </trkpt>
      <trkpt lat="45.59979" lon="6.66379">
        <ele>1646.1999511719</ele>
        <time>2012-02-12T07:01:53Z</time>
      </trkpt>
      <trkpt lat="45.59981" lon="6.66373">
        <ele>1647</ele>
        <time>2012-02-12T07:01:58Z</time>
      </trkpt>
      <trkpt lat="45.59982" lon="6.66371">
        <ele>1647.5999755859</ele>
        <time>2012-02-12T07:02:01Z</time>
      </trkpt>
      <trkpt lat="45.59983" lon="6.66365">
        <ele>1648.4000244141</ele>
        <time>2012-02-12T07:02:06Z</time>
      </trkpt>
      <trkpt lat="45.59984" lon="6.6636">
        <ele>1649</ele>
        <time>2012-02-12T07:02:11Z</time>
      </trkpt>
      <trkpt lat="45.59986" lon="6.66357">
        <ele>1649.5999755859</ele>
        <time>2012-02-12T07:02:15Z</time>
      </trkpt>
      <trkpt lat="45.59987" lon="6.66355">
        <ele>1650.1999511719</ele>
        <time>2012-02-12T07:02:18Z</time>
      </trkpt>
      <trkpt lat="45.5999" lon="6.66351">
        <ele>1651</ele>
        <time>2012-02-12T07:02:24Z</time>
      </trkpt>
      <trkpt lat="45.59992" lon="6.6635">
        <ele>1651.5999755859</ele>
        <time>2012-02-12T07:02:31Z</time>
      </trkpt>
      <trkpt lat="45.59995" lon="6.66351">
        <ele>1652.1999511719</ele>
        <time>2012-02-12T07:02:36Z</time>
      </trkpt>
      <trkpt lat="45.59999" lon="6.66351">
        <ele>1652.8000488281</ele>
        <time>2012-02-12T07:02:42Z</time>
      </trkpt>
      <trkpt lat="45.6" lon="6.66353">
        <ele>1653</ele>
        <time>2012-02-12T07:02:45Z</time>
      </trkpt>
      <trkpt lat="45.6" lon="6.66353">
        <ele>1653.1999511719</ele>
        <time>2012-02-12T07:02:47Z</time>
      </trkpt>
      <trkpt lat="45.59999" lon="6.6634">
        <ele>1653.5999755859</ele>
        <time>2012-02-12T07:03:02Z</time>
      </trkpt>
      <trkpt lat="45.59999" lon="6.66333">
        <ele>1654</ele>
        <time>2012-02-12T07:03:07Z</time>
      </trkpt>
      <trkpt lat="45.59998" lon="6.66324">
        <ele>1654.8000488281</ele>
        <time>2012-02-12T07:03:13Z</time>
      </trkpt>
      <trkpt lat="45.59998" lon="6.66321">
        <ele>1655.1999511719</ele>
        <time>2012-02-12T07:03:18Z</time>
      </trkpt>
      <trkpt lat="45.59998" lon="6.66312">
        <ele>1656.1999511719</ele>
        <time>2012-02-12T07:03:25Z</time>
      </trkpt>
      <trkpt lat="45.59998" lon="6.66295">
        <ele>1658.4000244141</ele>
        <time>2012-02-12T07:03:38Z</time>
      </trkpt>
      <trkpt lat="45.59999" lon="6.66286">
        <ele>1659.5999755859</ele>
        <time>2012-02-12T07:03:46Z</time>
      </trkpt>
      <trkpt lat="45.6" lon="6.66282">
        <ele>1660.4000244141</ele>
        <time>2012-02-12T07:03:50Z</time>
      </trkpt>
      <trkpt lat="45.60001" lon="6.66279">
        <ele>1660.8000488281</ele>
        <time>2012-02-12T07:03:54Z</time>
      </trkpt>
      <trkpt lat="45.60002" lon="6.66275">
        <ele>1662</ele>
        <time>2012-02-12T07:03:58Z</time>
      </trkpt>
      <trkpt lat="45.60004" lon="6.66268">
        <ele>1663.8000488281</ele>
        <time>2012-02-12T07:04:06Z</time>
      </trkpt>
      <trkpt lat="45.60007" lon="6.66266">
        <ele>1665</ele>
        <time>2012-02-12T07:04:10Z</time>
      </trkpt>
      <trkpt lat="45.60008" lon="6.66263">
        <ele>1666.1999511719</ele>
        <time>2012-02-12T07:04:15Z</time>
      </trkpt>
      <trkpt lat="45.60011" lon="6.66257">
        <ele>1667.8000488281</ele>
        <time>2012-02-12T07:04:22Z</time>
      </trkpt>
      <trkpt lat="45.60013" lon="6.66253">
        <ele>1669.1999511719</ele>
        <time>2012-02-12T07:04:28Z</time>
      </trkpt>
      <trkpt lat="45.60014" lon="6.66252">
        <ele>1669.5999755859</ele>
        <time>2012-02-12T07:04:31Z</time>
      </trkpt>
      <trkpt lat="45.60016" lon="6.66249">
        <ele>1671.1999511719</ele>
        <time>2012-02-12T07:04:35Z</time>
      </trkpt>
      <trkpt lat="45.6002" lon="6.66247">
        <ele>1672.8000488281</ele>
        <time>2012-02-12T07:04:41Z</time>
      </trkpt>
      <trkpt lat="45.60021" lon="6.66248">
        <ele>1673</ele>
        <time>2012-02-12T07:04:45Z</time>
      </trkpt>
      <trkpt lat="45.60024" lon="6.66249">
        <ele>1674</ele>
        <time>2012-02-12T07:04:50Z</time>
      </trkpt>
      <trkpt lat="45.60027" lon="6.66245">
        <ele>1676</ele>
        <time>2012-02-12T07:04:59Z</time>
      </trkpt>
      <trkpt lat="45.60027" lon="6.66243">
        <ele>1676.4000244141</ele>
        <time>2012-02-12T07:05:04Z</time>
      </trkpt>
      <trkpt lat="45.60036" lon="6.66255">
        <ele>1679</ele>
        <time>2012-02-12T07:05:17Z</time>
      </trkpt>
      <trkpt lat="45.60037" lon="6.66257">
        <ele>1679.4000244141</ele>
        <time>2012-02-12T07:05:20Z</time>
      </trkpt>
      <trkpt lat="45.60041" lon="6.66259">
        <ele>1680.5999755859</ele>
        <time>2012-02-12T07:05:33Z</time>
      </trkpt>
      <trkpt lat="45.60041" lon="6.6626">
        <ele>1680.5999755859</ele>
        <time>2012-02-12T07:05:43Z</time>
      </trkpt>
      <trkpt lat="45.6004" lon="6.66257">
        <ele>1680.1999511719</ele>
        <time>2012-02-12T07:05:53Z</time>
      </trkpt>
      <trkpt lat="45.60039" lon="6.66247">
        <ele>1680.8000488281</ele>
        <time>2012-02-12T07:06:06Z</time>
      </trkpt>
      <trkpt lat="45.60039" lon="6.66242">
        <ele>1681.4000244141</ele>
        <time>2012-02-12T07:06:17Z</time>
      </trkpt>
      <trkpt lat="45.6004" lon="6.66242">
        <ele>1681.5999755859</ele>
        <time>2012-02-12T07:06:22Z</time>
      </trkpt>
      <trkpt lat="45.6004" lon="6.66242">
        <ele>1681.5999755859</ele>
        <time>2012-02-12T07:06:35Z</time>
      </trkpt>
      <trkpt lat="45.6004" lon="6.66238">
        <ele>1682.1999511719</ele>
        <time>2012-02-12T07:06:42Z</time>
      </trkpt>
      <trkpt lat="45.6004" lon="6.66233">
        <ele>1682.8000488281</ele>
        <time>2012-02-12T07:06:48Z</time>
      </trkpt>
      <trkpt lat="45.60041" lon="6.66226">
        <ele>1684.1999511719</ele>
        <time>2012-02-12T07:06:56Z</time>
      </trkpt>
      <trkpt lat="45.60041" lon="6.66219">
        <ele>1684.8000488281</ele>
        <time>2012-02-12T07:07:01Z</time>
      </trkpt>
      <trkpt lat="45.60042" lon="6.66213">
        <ele>1685.8000488281</ele>
        <time>2012-02-12T07:07:06Z</time>
      </trkpt>
      <trkpt lat="45.60042" lon="6.66207">
        <ele>1686.5999755859</ele>
        <time>2012-02-12T07:07:11Z</time>
      </trkpt>
      <trkpt lat="45.60042" lon="6.66199">
        <ele>1687.4000244141</ele>
        <time>2012-02-12T07:07:18Z</time>
      </trkpt>
      <trkpt lat="45.60044" lon="6.66197">
        <ele>1688.1999511719</ele>
        <time>2012-02-12T07:07:23Z</time>
      </trkpt>
      <trkpt lat="45.60046" lon="6.66199">
        <ele>1688.5999755859</ele>
        <time>2012-02-12T07:07:29Z</time>
      </trkpt>
      <trkpt lat="45.60048" lon="6.66201">
        <ele>1689.1999511719</ele>
        <time>2012-02-12T07:07:33Z</time>
      </trkpt>
      <trkpt lat="45.6005" lon="6.66204">
        <ele>1689.4000244141</ele>
        <time>2012-02-12T07:07:37Z</time>
      </trkpt>
      <trkpt lat="45.60054" lon="6.66208">
        <ele>1690.4000244141</ele>
        <time>2012-02-12T07:07:45Z</time>
      </trkpt>
      <trkpt lat="45.60057" lon="6.66212">
        <ele>1691</ele>
        <time>2012-02-12T07:07:51Z</time>
      </trkpt>
      <trkpt lat="45.60059" lon="6.66215">
        <ele>1691.4000244141</ele>
        <time>2012-02-12T07:07:56Z</time>
      </trkpt>
      <trkpt lat="45.60061" lon="6.66218">
        <ele>1692</ele>
        <time>2012-02-12T07:08:03Z</time>
      </trkpt>
      <trkpt lat="45.60065" lon="6.66223">
        <ele>1693</ele>
        <time>2012-02-12T07:08:09Z</time>
      </trkpt>
      <trkpt lat="45.60067" lon="6.66227">
        <ele>1693.5999755859</ele>
        <time>2012-02-12T07:08:15Z</time>
      </trkpt>
      <trkpt lat="45.6007" lon="6.66231">
        <ele>1694.4000244141</ele>
        <time>2012-02-12T07:08:21Z</time>
      </trkpt>
      <trkpt lat="45.60073" lon="6.66236">
        <ele>1695.1999511719</ele>
        <time>2012-02-12T07:08:27Z</time>
      </trkpt>
      <trkpt lat="45.60074" lon="6.66237">
        <ele>1695.5999755859</ele>
        <time>2012-02-12T07:08:34Z</time>
      </trkpt>
      <trkpt lat="45.60076" lon="6.66235">
        <ele>1696.4000244141</ele>
        <time>2012-02-12T07:08:39Z</time>
      </trkpt>
      <trkpt lat="45.60077" lon="6.66232">
        <ele>1697</ele>
        <time>2012-02-12T07:08:44Z</time>
      </trkpt>
      <trkpt lat="45.60079" lon="6.66226">
        <ele>1698</ele>
        <time>2012-02-12T07:08:50Z</time>
      </trkpt>
      <trkpt lat="45.60081" lon="6.66223">
        <ele>1698.8000488281</ele>
        <time>2012-02-12T07:08:54Z</time>
      </trkpt>
      <trkpt lat="45.60082" lon="6.6622">
        <ele>1699.4000244141</ele>
        <time>2012-02-12T07:08:57Z</time>
      </trkpt>
      <trkpt lat="45.60084" lon="6.66215">
        <ele>1700.1999511719</ele>
        <time>2012-02-12T07:09:04Z</time>
      </trkpt>
      <trkpt lat="45.60085" lon="6.6621">
        <ele>1701.4000244141</ele>
        <time>2012-02-12T07:09:09Z</time>
      </trkpt>
      <trkpt lat="45.60087" lon="6.66205">
        <ele>1703</ele>
        <time>2012-02-12T07:09:17Z</time>
      </trkpt>
      <trkpt lat="45.60089" lon="6.66201">
        <ele>1704.4000244141</ele>
        <time>2012-02-12T07:09:21Z</time>
      </trkpt>
      <trkpt lat="45.60091" lon="6.66194">
        <ele>1705.5999755859</ele>
        <time>2012-02-12T07:09:29Z</time>
      </trkpt>
      <trkpt lat="45.60091" lon="6.6619">
        <ele>1706.1999511719</ele>
        <time>2012-02-12T07:09:33Z</time>
      </trkpt>
      <trkpt lat="45.60092" lon="6.66185">
        <ele>1706.8000488281</ele>
        <time>2012-02-12T07:09:38Z</time>
      </trkpt>
      <trkpt lat="45.60093" lon="6.66179">
        <ele>1708</ele>
        <time>2012-02-12T07:09:45Z</time>
      </trkpt>
      <trkpt lat="45.60094" lon="6.66174">
        <ele>1708.8000488281</ele>
        <time>2012-02-12T07:09:50Z</time>
      </trkpt>
      <trkpt lat="45.60095" lon="6.66171">
        <ele>1709.5999755859</ele>
        <time>2012-02-12T07:09:53Z</time>
      </trkpt>
      <trkpt lat="45.60097" lon="6.66165">
        <ele>1711.1999511719</ele>
        <time>2012-02-12T07:10:00Z</time>
      </trkpt>
      <trkpt lat="45.60098" lon="6.66164">
        <ele>1712</ele>
        <time>2012-02-12T07:10:02Z</time>
      </trkpt>
      <trkpt lat="45.60099" lon="6.66159">
        <ele>1713.5999755859</ele>
        <time>2012-02-12T07:10:07Z</time>
      </trkpt>
      <trkpt lat="45.601" lon="6.66156">
        <ele>1714.8000488281</ele>
        <time>2012-02-12T07:10:11Z</time>
      </trkpt>
      <trkpt lat="45.601" lon="6.6615">
        <ele>1715.8000488281</ele>
        <time>2012-02-12T07:10:17Z</time>
      </trkpt>
      <trkpt lat="45.601" lon="6.66144">
        <ele>1716.8000488281</ele>
        <time>2012-02-12T07:10:23Z</time>
      </trkpt>
      <trkpt lat="45.601" lon="6.6614">
        <ele>1717.4000244141</ele>
        <time>2012-02-12T07:10:28Z</time>
      </trkpt>
      <trkpt lat="45.601" lon="6.66133">
        <ele>1719</ele>
        <time>2012-02-12T07:10:34Z</time>
      </trkpt>
      <trkpt lat="45.60101" lon="6.66129">
        <ele>1719.8000488281</ele>
        <time>2012-02-12T07:10:38Z</time>
      </trkpt>
      <trkpt lat="45.60101" lon="6.66126">
        <ele>1720.8000488281</ele>
        <time>2012-02-12T07:10:41Z</time>
      </trkpt>
      <trkpt lat="45.60103" lon="6.66127">
        <ele>1722.1999511719</ele>
        <time>2012-02-12T07:10:48Z</time>
      </trkpt>
      <trkpt lat="45.60108" lon="6.66128">
        <ele>1725</ele>
        <time>2012-02-12T07:10:58Z</time>
      </trkpt>
      <trkpt lat="45.60108" lon="6.66126">
        <ele>1725.5999755859</ele>
        <time>2012-02-12T07:11:04Z</time>
      </trkpt>
      <trkpt lat="45.60107" lon="6.6612">
        <ele>1725.8000488281</ele>
        <time>2012-02-12T07:11:10Z</time>
      </trkpt>
      <trkpt lat="45.60105" lon="6.66111">
        <ele>1725.4000244141</ele>
        <time>2012-02-12T07:11:18Z</time>
      </trkpt>
      <trkpt lat="45.60101" lon="6.66098">
        <ele>1725.5999755859</ele>
        <time>2012-02-12T07:11:29Z</time>
      </trkpt>
      <trkpt lat="45.60099" lon="6.66083">
        <ele>1726.8000488281</ele>
        <time>2012-02-12T07:11:42Z</time>
      </trkpt>
      <trkpt lat="45.60099" lon="6.66077">
        <ele>1727.4000244141</ele>
        <time>2012-02-12T07:11:47Z</time>
      </trkpt>
      <trkpt lat="45.60099" lon="6.66073">
        <ele>1728.4000244141</ele>
        <time>2012-02-12T07:11:51Z</time>
      </trkpt>
      <trkpt lat="45.601" lon="6.66068">
        <ele>1730.1999511719</ele>
        <time>2012-02-12T07:11:57Z</time>
      </trkpt>
      <trkpt lat="45.60104" lon="6.66065">
        <ele>1733</ele>
        <time>2012-02-12T07:12:06Z</time>
      </trkpt>
      <trkpt lat="45.60104" lon="6.66064">
        <ele>1732.8000488281</ele>
        <time>2012-02-12T07:12:10Z</time>
      </trkpt>
      <trkpt lat="45.60103" lon="6.66058">
        <ele>1733.4000244141</ele>
        <time>2012-02-12T07:12:20Z</time>
      </trkpt>
      <trkpt lat="45.60097" lon="6.66041">
        <ele>1733.5999755859</ele>
        <time>2012-02-12T07:12:35Z</time>
      </trkpt>
      <trkpt lat="45.60097" lon="6.66033">
        <ele>1735</ele>
        <time>2012-02-12T07:12:41Z</time>
      </trkpt>
      <trkpt lat="45.60097" lon="6.66018">
        <ele>1737.5999755859</ele>
        <time>2012-02-12T07:12:53Z</time>
      </trkpt>
      <trkpt lat="45.60093" lon="6.6601">
        <ele>1737.1999511719</ele>
        <time>2012-02-12T07:13:00Z</time>
      </trkpt>
      <trkpt lat="45.60087" lon="6.66001">
        <ele>1736</ele>
        <time>2012-02-12T07:13:09Z</time>
      </trkpt>
      <trkpt lat="45.60084" lon="6.65992">
        <ele>1735.5999755859</ele>
        <time>2012-02-12T07:13:17Z</time>
      </trkpt>
      <trkpt lat="45.60084" lon="6.65987">
        <ele>1736.4000244141</ele>
        <time>2012-02-12T07:13:21Z</time>
      </trkpt>
      <trkpt lat="45.6009" lon="6.65987">
        <ele>1739</ele>
        <time>2012-02-12T07:13:27Z</time>
      </trkpt>
      <trkpt lat="45.6009" lon="6.65989">
        <ele>1739.1999511719</ele>
        <time>2012-02-12T07:13:34Z</time>
      </trkpt>
      <trkpt lat="45.60091" lon="6.65989">
        <ele>1739.5999755859</ele>
        <time>2012-02-12T07:13:37Z</time>
      </trkpt>
      <trkpt lat="45.60093" lon="6.6599">
        <ele>1740.4000244141</ele>
        <time>2012-02-12T07:13:39Z</time>
      </trkpt>
      <trkpt lat="45.60095" lon="6.65986">
        <ele>1741.8000488281</ele>
        <time>2012-02-12T07:13:45Z</time>
      </trkpt>
      <trkpt lat="45.60094" lon="6.65984">
        <ele>1741.5999755859</ele>
        <time>2012-02-12T07:14:01Z</time>
      </trkpt>
      <trkpt lat="45.60095" lon="6.65984">
        <ele>1742</ele>
        <time>2012-02-12T07:14:10Z</time>
      </trkpt>
      <trkpt lat="45.60095" lon="6.65983">
        <ele>1742.1999511719</ele>
        <time>2012-02-12T07:14:20Z</time>
      </trkpt>
      <trkpt lat="45.60095" lon="6.65983">
        <ele>1742.1999511719</ele>
        <time>2012-02-12T07:14:27Z</time>
      </trkpt>
      <trkpt lat="45.60095" lon="6.65983">
        <ele>1742</ele>
        <time>2012-02-12T07:14:34Z</time>
      </trkpt>
      <trkpt lat="45.60095" lon="6.65982">
        <ele>1742.1999511719</ele>
        <time>2012-02-12T07:14:40Z</time>
      </trkpt>
      <trkpt lat="45.60095" lon="6.65978">
        <ele>1742.5999755859</ele>
        <time>2012-02-12T07:14:45Z</time>
      </trkpt>
      <trkpt lat="45.60096" lon="6.65973">
        <ele>1743.8000488281</ele>
        <time>2012-02-12T07:14:51Z</time>
      </trkpt>
      <trkpt lat="45.60097" lon="6.65967">
        <ele>1745.1999511719</ele>
        <time>2012-02-12T07:14:58Z</time>
      </trkpt>
      <trkpt lat="45.60095" lon="6.65959">
        <ele>1745.5999755859</ele>
        <time>2012-02-12T07:15:05Z</time>
      </trkpt>
      <trkpt lat="45.60096" lon="6.65954">
        <ele>1746.4000244141</ele>
        <time>2012-02-12T07:15:10Z</time>
      </trkpt>
      <trkpt lat="45.60096" lon="6.65951">
        <ele>1747</ele>
        <time>2012-02-12T07:15:12Z</time>
      </trkpt>
      <trkpt lat="45.60097" lon="6.65948">
        <ele>1747.5999755859</ele>
        <time>2012-02-12T07:15:16Z</time>
      </trkpt>
      <trkpt lat="45.60098" lon="6.65944">
        <ele>1748.5999755859</ele>
        <time>2012-02-12T07:15:20Z</time>
      </trkpt>
      <trkpt lat="45.60099" lon="6.65941">
        <ele>1749.4000244141</ele>
        <time>2012-02-12T07:15:22Z</time>
      </trkpt>
      <trkpt lat="45.60102" lon="6.6594">
        <ele>1751</ele>
        <time>2012-02-12T07:15:26Z</time>
      </trkpt>
      <trkpt lat="45.60105" lon="6.65938">
        <ele>1752.1999511719</ele>
        <time>2012-02-12T07:15:29Z</time>
      </trkpt>
      <trkpt lat="45.60107" lon="6.65936">
        <ele>1753.4000244141</ele>
        <time>2012-02-12T07:15:33Z</time>
      </trkpt>
      <trkpt lat="45.6011" lon="6.65932">
        <ele>1755</ele>
        <time>2012-02-12T07:15:39Z</time>
      </trkpt>
      <trkpt lat="45.60113" lon="6.65929">
        <ele>1756.5999755859</ele>
        <time>2012-02-12T07:15:45Z</time>
      </trkpt>
      <trkpt lat="45.60116" lon="6.65928">
        <ele>1758.1999511719</ele>
        <time>2012-02-12T07:15:49Z</time>
      </trkpt>
      <trkpt lat="45.60118" lon="6.65928">
        <ele>1759.1999511719</ele>
        <time>2012-02-12T07:15:52Z</time>
      </trkpt>
      <trkpt lat="45.6012" lon="6.6593">
        <ele>1759.5999755859</ele>
        <time>2012-02-12T07:15:54Z</time>
      </trkpt>
      <trkpt lat="45.6012" lon="6.65932">
        <ele>1759.8000488281</ele>
        <time>2012-02-12T07:15:56Z</time>
      </trkpt>
      <trkpt lat="45.60121" lon="6.65934">
        <ele>1759.8000488281</ele>
        <time>2012-02-12T07:16:02Z</time>
      </trkpt>
      <trkpt lat="45.60126" lon="6.65934">
        <ele>1761.8000488281</ele>
        <time>2012-02-12T07:16:08Z</time>
      </trkpt>
      <trkpt lat="45.60129" lon="6.65933">
        <ele>1763.4000244141</ele>
        <time>2012-02-12T07:16:13Z</time>
      </trkpt>
      <trkpt lat="45.60129" lon="6.65929">
        <ele>1763.5999755859</ele>
        <time>2012-02-12T07:16:18Z</time>
      </trkpt>
      <trkpt lat="45.6013" lon="6.65925">
        <ele>1764.4000244141</ele>
        <time>2012-02-12T07:16:22Z</time>
      </trkpt>
      <trkpt lat="45.60132" lon="6.65924">
        <ele>1765</ele>
        <time>2012-02-12T07:16:24Z</time>
      </trkpt>
      <trkpt lat="45.60134" lon="6.65925">
        <ele>1766</ele>
        <time>2012-02-12T07:16:27Z</time>
      </trkpt>
      <trkpt lat="45.60136" lon="6.65927">
        <ele>1766.8000488281</ele>
        <time>2012-02-12T07:16:33Z</time>
      </trkpt>
      <trkpt lat="45.60137" lon="6.65927">
        <ele>1767.1999511719</ele>
        <time>2012-02-12T07:16:35Z</time>
      </trkpt>
      <trkpt lat="45.60141" lon="6.65933">
        <ele>1768.5999755859</ele>
        <time>2012-02-12T07:16:43Z</time>
      </trkpt>
      <trkpt lat="45.60144" lon="6.65934">
        <ele>1769.5999755859</ele>
        <time>2012-02-12T07:16:47Z</time>
      </trkpt>
      <trkpt lat="45.60147" lon="6.6593">
        <ele>1771.1999511719</ele>
        <time>2012-02-12T07:16:53Z</time>
      </trkpt>
      <trkpt lat="45.60149" lon="6.65926">
        <ele>1772.1999511719</ele>
        <time>2012-02-12T07:16:57Z</time>
      </trkpt>
      <trkpt lat="45.60151" lon="6.65925">
        <ele>1773</ele>
        <time>2012-02-12T07:16:59Z</time>
      </trkpt>
      <trkpt lat="45.60154" lon="6.65926">
        <ele>1774.1999511719</ele>
        <time>2012-02-12T07:17:03Z</time>
      </trkpt>
      <trkpt lat="45.60158" lon="6.6593">
        <ele>1775.8000488281</ele>
        <time>2012-02-12T07:17:10Z</time>
      </trkpt>
      <trkpt lat="45.60163" lon="6.65928">
        <ele>1777.8000488281</ele>
        <time>2012-02-12T07:17:17Z</time>
      </trkpt>
      <trkpt lat="45.60164" lon="6.65926">
        <ele>1778.4000244141</ele>
        <time>2012-02-12T07:17:22Z</time>
      </trkpt>
      <trkpt lat="45.60166" lon="6.65919">
        <ele>1779.8000488281</ele>
        <time>2012-02-12T07:17:28Z</time>
      </trkpt>
      <trkpt lat="45.60167" lon="6.65916">
        <ele>1780.1999511719</ele>
        <time>2012-02-12T07:17:31Z</time>
      </trkpt>
      <trkpt lat="45.60168" lon="6.6591">
        <ele>1781.4000244141</ele>
        <time>2012-02-12T07:17:37Z</time>
      </trkpt>
      <trkpt lat="45.60169" lon="6.65906">
        <ele>1782.4000244141</ele>
        <time>2012-02-12T07:17:41Z</time>
      </trkpt>
      <trkpt lat="45.60169" lon="6.65901">
        <ele>1782.5999755859</ele>
        <time>2012-02-12T07:17:46Z</time>
      </trkpt>
      <trkpt lat="45.60169" lon="6.659">
        <ele>1782.5999755859</ele>
        <time>2012-02-12T07:17:49Z</time>
      </trkpt>
      <trkpt lat="45.60172" lon="6.65898">
        <ele>1784.4000244141</ele>
        <time>2012-02-12T07:17:52Z</time>
      </trkpt>
      <trkpt lat="45.60176" lon="6.65898">
        <ele>1786.8000488281</ele>
        <time>2012-02-12T07:17:57Z</time>
      </trkpt>
      <trkpt lat="45.60181" lon="6.65899">
        <ele>1789.4000244141</ele>
        <time>2012-02-12T07:18:06Z</time>
      </trkpt>
      <trkpt lat="45.60185" lon="6.65898">
        <ele>1792.1999511719</ele>
        <time>2012-02-12T07:18:13Z</time>
      </trkpt>
      <trkpt lat="45.60187" lon="6.65893">
        <ele>1793.4000244141</ele>
        <time>2012-02-12T07:18:19Z</time>
      </trkpt>
      <trkpt lat="45.60192" lon="6.65889">
        <ele>1796.4000244141</ele>
        <time>2012-02-12T07:18:27Z</time>
      </trkpt>
      <trkpt lat="45.60195" lon="6.65885">
        <ele>1798.1999511719</ele>
        <time>2012-02-12T07:18:33Z</time>
      </trkpt>
      <trkpt lat="45.60198" lon="6.65884">
        <ele>1800.4000244141</ele>
        <time>2012-02-12T07:18:39Z</time>
      </trkpt>
      <trkpt lat="45.60199" lon="6.65884">
        <ele>1801</ele>
        <time>2012-02-12T07:18:42Z</time>
      </trkpt>
      <trkpt lat="45.60201" lon="6.6588">
        <ele>1802</ele>
        <time>2012-02-12T07:18:47Z</time>
      </trkpt>
      <trkpt lat="45.60203" lon="6.65877">
        <ele>1803</ele>
        <time>2012-02-12T07:18:53Z</time>
      </trkpt>
      <trkpt lat="45.60203" lon="6.65875">
        <ele>1803.4000244141</ele>
        <time>2012-02-12T07:18:57Z</time>
      </trkpt>
      <trkpt lat="45.60206" lon="6.65878">
        <ele>1805</ele>
        <time>2012-02-12T07:19:03Z</time>
      </trkpt>
      <trkpt lat="45.60208" lon="6.6588">
        <ele>1806.1999511719</ele>
        <time>2012-02-12T07:19:08Z</time>
      </trkpt>
      <trkpt lat="45.6021" lon="6.65881">
        <ele>1807.4000244141</ele>
        <time>2012-02-12T07:19:14Z</time>
      </trkpt>
      <trkpt lat="45.6021" lon="6.65869">
        <ele>1807.1999511719</ele>
        <time>2012-02-12T07:19:25Z</time>
      </trkpt>
      <trkpt lat="45.60209" lon="6.65858">
        <ele>1807</ele>
        <time>2012-02-12T07:19:33Z</time>
      </trkpt>
      <trkpt lat="45.60208" lon="6.65847">
        <ele>1806.4000244141</ele>
        <time>2012-02-12T07:19:43Z</time>
      </trkpt>
      <trkpt lat="45.60207" lon="6.65839">
        <ele>1805.5999755859</ele>
        <time>2012-02-12T07:19:50Z</time>
      </trkpt>
      <trkpt lat="45.6021" lon="6.65833">
        <ele>1807.1999511719</ele>
        <time>2012-02-12T07:19:55Z</time>
      </trkpt>
      <trkpt lat="45.6021" lon="6.65824">
        <ele>1807.8000488281</ele>
        <time>2012-02-12T07:20:01Z</time>
      </trkpt>
      <trkpt lat="45.60207" lon="6.65819">
        <ele>1807</ele>
        <time>2012-02-12T07:20:06Z</time>
      </trkpt>
      <trkpt lat="45.60208" lon="6.65808">
        <ele>1808.1999511719</ele>
        <time>2012-02-12T07:20:15Z</time>
      </trkpt>
      <trkpt lat="45.60209" lon="6.65801">
        <ele>1808.8000488281</ele>
        <time>2012-02-12T07:20:21Z</time>
      </trkpt>
      <trkpt lat="45.60209" lon="6.65795">
        <ele>1809.1999511719</ele>
        <time>2012-02-12T07:20:26Z</time>
      </trkpt>
      <trkpt lat="45.60208" lon="6.65786">
        <ele>1809.5999755859</ele>
        <time>2012-02-12T07:20:33Z</time>
      </trkpt>
      <trkpt lat="45.60208" lon="6.6578">
        <ele>1809.8000488281</ele>
        <time>2012-02-12T07:20:39Z</time>
      </trkpt>
      <trkpt lat="45.60207" lon="6.65771">
        <ele>1810</ele>
        <time>2012-02-12T07:20:46Z</time>
      </trkpt>
      <trkpt lat="45.60207" lon="6.65763">
        <ele>1810.5999755859</ele>
        <time>2012-02-12T07:20:53Z</time>
      </trkpt>
      <trkpt lat="45.60211" lon="6.65751">
        <ele>1813.1999511719</ele>
        <time>2012-02-12T07:21:05Z</time>
      </trkpt>
      <trkpt lat="45.60213" lon="6.65745">
        <ele>1814.4000244141</ele>
        <time>2012-02-12T07:21:12Z</time>
      </trkpt>
      <trkpt lat="45.60213" lon="6.65742">
        <ele>1814.5999755859</ele>
        <time>2012-02-12T07:21:16Z</time>
      </trkpt>
      <trkpt lat="45.60215" lon="6.65738">
        <ele>1815.4000244141</ele>
        <time>2012-02-12T07:21:20Z</time>
      </trkpt>
      <trkpt lat="45.60216" lon="6.6573">
        <ele>1816.5999755859</ele>
        <time>2012-02-12T07:21:29Z</time>
      </trkpt>
      <trkpt lat="45.60217" lon="6.65726">
        <ele>1817</ele>
        <time>2012-02-12T07:21:35Z</time>
      </trkpt>
      <trkpt lat="45.60218" lon="6.65721">
        <ele>1817.8000488281</ele>
        <time>2012-02-12T07:21:40Z</time>
      </trkpt>
      <trkpt lat="45.6022" lon="6.65718">
        <ele>1818.4000244141</ele>
        <time>2012-02-12T07:21:44Z</time>
      </trkpt>
      <trkpt lat="45.60222" lon="6.65709">
        <ele>1819.8000488281</ele>
        <time>2012-02-12T07:21:52Z</time>
      </trkpt>
      <trkpt lat="45.60224" lon="6.65705">
        <ele>1820.8000488281</ele>
        <time>2012-02-12T07:21:58Z</time>
      </trkpt>
      <trkpt lat="45.60225" lon="6.657">
        <ele>1821.5999755859</ele>
        <time>2012-02-12T07:22:03Z</time>
      </trkpt>
      <trkpt lat="45.60226" lon="6.65696">
        <ele>1822.1999511719</ele>
        <time>2012-02-12T07:22:07Z</time>
      </trkpt>
      <trkpt lat="45.60229" lon="6.65689">
        <ele>1823.8000488281</ele>
        <time>2012-02-12T07:22:14Z</time>
      </trkpt>
      <trkpt lat="45.60231" lon="6.65677">
        <ele>1825</ele>
        <time>2012-02-12T07:22:24Z</time>
      </trkpt>
      <trkpt lat="45.60232" lon="6.65671">
        <ele>1825.8000488281</ele>
        <time>2012-02-12T07:22:29Z</time>
      </trkpt>
      <trkpt lat="45.60234" lon="6.65663">
        <ele>1827</ele>
        <time>2012-02-12T07:22:37Z</time>
      </trkpt>
      <trkpt lat="45.60235" lon="6.65659">
        <ele>1827.1999511719</ele>
        <time>2012-02-12T07:22:40Z</time>
      </trkpt>
      <trkpt lat="45.60237" lon="6.65653">
        <ele>1828.4000244141</ele>
        <time>2012-02-12T07:22:47Z</time>
      </trkpt>
      <trkpt lat="45.60241" lon="6.65636">
        <ele>1830.4000244141</ele>
        <time>2012-02-12T07:23:01Z</time>
      </trkpt>
      <trkpt lat="45.60244" lon="6.65629">
        <ele>1831.4000244141</ele>
        <time>2012-02-12T07:23:07Z</time>
      </trkpt>
      <trkpt lat="45.60245" lon="6.65623">
        <ele>1832.1999511719</ele>
        <time>2012-02-12T07:23:13Z</time>
      </trkpt>
      <trkpt lat="45.60246" lon="6.65621">
        <ele>1832.4000244141</ele>
        <time>2012-02-12T07:23:17Z</time>
      </trkpt>
      <trkpt lat="45.60249" lon="6.65617">
        <ele>1833.5999755859</ele>
        <time>2012-02-12T07:23:21Z</time>
      </trkpt>
      <trkpt lat="45.60251" lon="6.65616">
        <ele>1834.5999755859</ele>
        <time>2012-02-12T07:23:24Z</time>
      </trkpt>
      <trkpt lat="45.60253" lon="6.65613">
        <ele>1835.5999755859</ele>
        <time>2012-02-12T07:23:29Z</time>
      </trkpt>
      <trkpt lat="45.60257" lon="6.6561">
        <ele>1836.8000488281</ele>
        <time>2012-02-12T07:23:33Z</time>
      </trkpt>
      <trkpt lat="45.60258" lon="6.65608">
        <ele>1837.5999755859</ele>
        <time>2012-02-12T07:23:36Z</time>
      </trkpt>
      <trkpt lat="45.6026" lon="6.65606">
        <ele>1838.1999511719</ele>
        <time>2012-02-12T07:23:39Z</time>
      </trkpt>
      <trkpt lat="45.60261" lon="6.65604">
        <ele>1838.8000488281</ele>
        <time>2012-02-12T07:23:42Z</time>
      </trkpt>
      <trkpt lat="45.60263" lon="6.65601">
        <ele>1839.8000488281</ele>
        <time>2012-02-12T07:23:48Z</time>
      </trkpt>
      <trkpt lat="45.60267" lon="6.65597">
        <ele>1841.1999511719</ele>
        <time>2012-02-12T07:23:53Z</time>
      </trkpt>
      <trkpt lat="45.60271" lon="6.65592">
        <ele>1842.5999755859</ele>
        <time>2012-02-12T07:23:59Z</time>
      </trkpt>
      <trkpt lat="45.60275" lon="6.65588">
        <ele>1844.1999511719</ele>
        <time>2012-02-12T07:24:06Z</time>
      </trkpt>
      <trkpt lat="45.60279" lon="6.65585">
        <ele>1845.8000488281</ele>
        <time>2012-02-12T07:24:12Z</time>
      </trkpt>
      <trkpt lat="45.60281" lon="6.65583">
        <ele>1846.4000244141</ele>
        <time>2012-02-12T07:24:16Z</time>
      </trkpt>
      <trkpt lat="45.60284" lon="6.6558">
        <ele>1847.5999755859</ele>
        <time>2012-02-12T07:24:21Z</time>
      </trkpt>
      <trkpt lat="45.60288" lon="6.65577">
        <ele>1849.1999511719</ele>
        <time>2012-02-12T07:24:27Z</time>
      </trkpt>
      <trkpt lat="45.60293" lon="6.65573">
        <ele>1851</ele>
        <time>2012-02-12T07:24:35Z</time>
      </trkpt>
      <trkpt lat="45.60296" lon="6.65571">
        <ele>1852.4000244141</ele>
        <time>2012-02-12T07:24:41Z</time>
      </trkpt>
      <trkpt lat="45.60298" lon="6.65569">
        <ele>1853</ele>
        <time>2012-02-12T07:24:44Z</time>
      </trkpt>
      <trkpt lat="45.60304" lon="6.65566">
        <ele>1855</ele>
        <time>2012-02-12T07:24:52Z</time>
      </trkpt>
      <trkpt lat="45.60306" lon="6.65564">
        <ele>1855.8000488281</ele>
        <time>2012-02-12T07:24:56Z</time>
      </trkpt>
      <trkpt lat="45.6031" lon="6.6556">
        <ele>1857</ele>
        <time>2012-02-12T07:25:02Z</time>
      </trkpt>
      <trkpt lat="45.60312" lon="6.65558">
        <ele>1857.8000488281</ele>
        <time>2012-02-12T07:25:06Z</time>
      </trkpt>
      <trkpt lat="45.60317" lon="6.65554">
        <ele>1859.4000244141</ele>
        <time>2012-02-12T07:25:13Z</time>
      </trkpt>
      <trkpt lat="45.60318" lon="6.65553">
        <ele>1859.8000488281</ele>
        <time>2012-02-12T07:25:17Z</time>
      </trkpt>
      <trkpt lat="45.60323" lon="6.6555">
        <ele>1861.5999755859</ele>
        <time>2012-02-12T07:25:23Z</time>
      </trkpt>
      <trkpt lat="45.60327" lon="6.65548">
        <ele>1862.8000488281</ele>
        <time>2012-02-12T07:25:30Z</time>
      </trkpt>
      <trkpt lat="45.60329" lon="6.65547">
        <ele>1863.4000244141</ele>
        <time>2012-02-12T07:25:33Z</time>
      </trkpt>
      <trkpt lat="45.60334" lon="6.65544">
        <ele>1865</ele>
        <time>2012-02-12T07:25:40Z</time>
      </trkpt>
      <trkpt lat="45.60339" lon="6.65541">
        <ele>1866.1999511719</ele>
        <time>2012-02-12T07:25:47Z</time>
      </trkpt>
      <trkpt lat="45.60342" lon="6.65539">
        <ele>1867.1999511719</ele>
        <time>2012-02-12T07:25:52Z</time>
      </trkpt>
      <trkpt lat="45.60344" lon="6.65538">
        <ele>1867.5999755859</ele>
        <time>2012-02-12T07:25:55Z</time>
      </trkpt>
      <trkpt lat="45.6035" lon="6.65534">
        <ele>1869.1999511719</ele>
        <time>2012-02-12T07:26:05Z</time>
      </trkpt>
      <trkpt lat="45.60351" lon="6.65534">
        <ele>1869.5999755859</ele>
        <time>2012-02-12T07:26:07Z</time>
      </trkpt>
      <trkpt lat="45.60355" lon="6.65532">
        <ele>1870.5999755859</ele>
        <time>2012-02-12T07:26:12Z</time>
      </trkpt>
      <trkpt lat="45.60359" lon="6.65531">
        <ele>1871.8000488281</ele>
        <time>2012-02-12T07:26:18Z</time>
      </trkpt>
      <trkpt lat="45.60362" lon="6.65532">
        <ele>1872.8000488281</ele>
        <time>2012-02-12T07:26:22Z</time>
      </trkpt>
      <trkpt lat="45.60369" lon="6.65532">
        <ele>1874.8000488281</ele>
        <time>2012-02-12T07:26:32Z</time>
      </trkpt>
      <trkpt lat="45.60373" lon="6.65532">
        <ele>1876.1999511719</ele>
        <time>2012-02-12T07:26:37Z</time>
      </trkpt>
      <trkpt lat="45.60381" lon="6.65531">
        <ele>1878.5999755859</ele>
        <time>2012-02-12T07:26:48Z</time>
      </trkpt>
      <trkpt lat="45.60384" lon="6.6553">
        <ele>1879.5999755859</ele>
        <time>2012-02-12T07:26:53Z</time>
      </trkpt>
      <trkpt lat="45.60389" lon="6.65532">
        <ele>1881.4000244141</ele>
        <time>2012-02-12T07:27:00Z</time>
      </trkpt>
      <trkpt lat="45.60392" lon="6.65538">
        <ele>1883</ele>
        <time>2012-02-12T07:27:06Z</time>
      </trkpt>
      <trkpt lat="45.60393" lon="6.65545">
        <ele>1884.4000244141</ele>
        <time>2012-02-12T07:27:13Z</time>
      </trkpt>
      <trkpt lat="45.60395" lon="6.65552">
        <ele>1886</ele>
        <time>2012-02-12T07:27:20Z</time>
      </trkpt>
      <trkpt lat="45.60397" lon="6.65557">
        <ele>1887.4000244141</ele>
        <time>2012-02-12T07:27:25Z</time>
      </trkpt>
      <trkpt lat="45.60401" lon="6.65558">
        <ele>1888.5999755859</ele>
        <time>2012-02-12T07:27:30Z</time>
      </trkpt>
      <trkpt lat="45.60407" lon="6.65558">
        <ele>1890.5999755859</ele>
        <time>2012-02-12T07:27:38Z</time>
      </trkpt>
      <trkpt lat="45.6041" lon="6.65557">
        <ele>1891.8000488281</ele>
        <time>2012-02-12T07:27:43Z</time>
      </trkpt>
      <trkpt lat="45.60411" lon="6.65557">
        <ele>1892.1999511719</ele>
        <time>2012-02-12T07:27:45Z</time>
      </trkpt>
      <trkpt lat="45.60416" lon="6.65557">
        <ele>1893.5999755859</ele>
        <time>2012-02-12T07:27:51Z</time>
      </trkpt>
      <trkpt lat="45.6042" lon="6.65558">
        <ele>1894.8000488281</ele>
        <time>2012-02-12T07:27:56Z</time>
      </trkpt>
      <trkpt lat="45.6042" lon="6.65559">
        <ele>1895.4000244141</ele>
        <time>2012-02-12T07:27:58Z</time>
      </trkpt>
      <trkpt lat="45.6042" lon="6.65562">
        <ele>1896</ele>
        <time>2012-02-12T07:28:01Z</time>
      </trkpt>
      <trkpt lat="45.60421" lon="6.65568">
        <ele>1897</ele>
        <time>2012-02-12T07:28:07Z</time>
      </trkpt>
      <trkpt lat="45.60422" lon="6.65572">
        <ele>1897.8000488281</ele>
        <time>2012-02-12T07:28:11Z</time>
      </trkpt>
      <trkpt lat="45.60423" lon="6.65578">
        <ele>1899.1999511719</ele>
        <time>2012-02-12T07:28:18Z</time>
      </trkpt>
      <trkpt lat="45.60425" lon="6.65578">
        <ele>1900</ele>
        <time>2012-02-12T07:28:22Z</time>
      </trkpt>
      <trkpt lat="45.60428" lon="6.65578">
        <ele>1900.5999755859</ele>
        <time>2012-02-12T07:28:25Z</time>
      </trkpt>
      <trkpt lat="45.60431" lon="6.65579">
        <ele>1901.5999755859</ele>
        <time>2012-02-12T07:28:29Z</time>
      </trkpt>
      <trkpt lat="45.60434" lon="6.6558">
        <ele>1903</ele>
        <time>2012-02-12T07:28:34Z</time>
      </trkpt>
      <trkpt lat="45.60437" lon="6.65582">
        <ele>1904</ele>
        <time>2012-02-12T07:28:38Z</time>
      </trkpt>
      <trkpt lat="45.60443" lon="6.65582">
        <ele>1905.8000488281</ele>
        <time>2012-02-12T07:28:46Z</time>
      </trkpt>
      <trkpt lat="45.60448" lon="6.6558">
        <ele>1907.1999511719</ele>
        <time>2012-02-12T07:28:53Z</time>
      </trkpt>
      <trkpt lat="45.60454" lon="6.65579">
        <ele>1908.8000488281</ele>
        <time>2012-02-12T07:29:02Z</time>
      </trkpt>
      <trkpt lat="45.60457" lon="6.65578">
        <ele>1909.8000488281</ele>
        <time>2012-02-12T07:29:07Z</time>
      </trkpt>
      <trkpt lat="45.60459" lon="6.65578">
        <ele>1910.4000244141</ele>
        <time>2012-02-12T07:29:12Z</time>
      </trkpt>
      <trkpt lat="45.60465" lon="6.65576">
        <ele>1912.1999511719</ele>
        <time>2012-02-12T07:29:19Z</time>
      </trkpt>
      <trkpt lat="45.60467" lon="6.65577">
        <ele>1912.8000488281</ele>
        <time>2012-02-12T07:29:22Z</time>
      </trkpt>
      <trkpt lat="45.60466" lon="6.65579">
        <ele>1912.8000488281</ele>
        <time>2012-02-12T07:29:25Z</time>
      </trkpt>
      <trkpt lat="45.60464" lon="6.65584">
        <ele>1913</ele>
        <time>2012-02-12T07:29:31Z</time>
      </trkpt>
      <trkpt lat="45.60462" lon="6.6559">
        <ele>1913.1999511719</ele>
        <time>2012-02-12T07:29:37Z</time>
      </trkpt>
      <trkpt lat="45.60459" lon="6.65596">
        <ele>1913</ele>
        <time>2012-02-12T07:29:44Z</time>
      </trkpt>
      <trkpt lat="45.60456" lon="6.65602">
        <ele>1913</ele>
        <time>2012-02-12T07:29:51Z</time>
      </trkpt>
      <trkpt lat="45.60452" lon="6.65609">
        <ele>1912.8000488281</ele>
        <time>2012-02-12T07:29:58Z</time>
      </trkpt>
      <trkpt lat="45.60449" lon="6.65616">
        <ele>1912.4000244141</ele>
        <time>2012-02-12T07:30:06Z</time>
      </trkpt>
      <trkpt lat="45.60446" lon="6.65619">
        <ele>1912.1999511719</ele>
        <time>2012-02-12T07:30:13Z</time>
      </trkpt>
      <trkpt lat="45.60443" lon="6.65627">
        <ele>1912.1999511719</ele>
        <time>2012-02-12T07:30:20Z</time>
      </trkpt>
      <trkpt lat="45.60444" lon="6.65635">
        <ele>1913.8000488281</ele>
        <time>2012-02-12T07:30:30Z</time>
      </trkpt>
      <trkpt lat="45.60447" lon="6.6564">
        <ele>1915.4000244141</ele>
        <time>2012-02-12T07:30:37Z</time>
      </trkpt>
      <trkpt lat="45.60448" lon="6.65643">
        <ele>1916.1999511719</ele>
        <time>2012-02-12T07:30:41Z</time>
      </trkpt>
      <trkpt lat="45.6045" lon="6.65647">
        <ele>1917.1999511719</ele>
        <time>2012-02-12T07:30:45Z</time>
      </trkpt>
      <trkpt lat="45.60453" lon="6.65652">
        <ele>1918.5999755859</ele>
        <time>2012-02-12T07:30:52Z</time>
      </trkpt>
      <trkpt lat="45.60455" lon="6.65654">
        <ele>1919.8000488281</ele>
        <time>2012-02-12T07:30:58Z</time>
      </trkpt>
      <trkpt lat="45.60459" lon="6.65655">
        <ele>1921</ele>
        <time>2012-02-12T07:31:04Z</time>
      </trkpt>
      <trkpt lat="45.60465" lon="6.65654">
        <ele>1922.8000488281</ele>
        <time>2012-02-12T07:31:11Z</time>
      </trkpt>
      <trkpt lat="45.60473" lon="6.65657">
        <ele>1925.5999755859</ele>
        <time>2012-02-12T07:31:21Z</time>
      </trkpt>
      <trkpt lat="45.60479" lon="6.65658">
        <ele>1927.4000244141</ele>
        <time>2012-02-12T07:31:28Z</time>
      </trkpt>
      <trkpt lat="45.60484" lon="6.65658">
        <ele>1929.1999511719</ele>
        <time>2012-02-12T07:31:35Z</time>
      </trkpt>
      <trkpt lat="45.60489" lon="6.6566">
        <ele>1930.8000488281</ele>
        <time>2012-02-12T07:31:41Z</time>
      </trkpt>
      <trkpt lat="45.60493" lon="6.65661">
        <ele>1932.1999511719</ele>
        <time>2012-02-12T07:31:46Z</time>
      </trkpt>
      <trkpt lat="45.60498" lon="6.65663">
        <ele>1933.8000488281</ele>
        <time>2012-02-12T07:31:52Z</time>
      </trkpt>
      <trkpt lat="45.60503" lon="6.65666">
        <ele>1935.5999755859</ele>
        <time>2012-02-12T07:31:59Z</time>
      </trkpt>
      <trkpt lat="45.60508" lon="6.65668">
        <ele>1937.4000244141</ele>
        <time>2012-02-12T07:32:05Z</time>
      </trkpt>
      <trkpt lat="45.60514" lon="6.6567">
        <ele>1939.4000244141</ele>
        <time>2012-02-12T07:32:14Z</time>
      </trkpt>
      <trkpt lat="45.60517" lon="6.65671">
        <ele>1940</ele>
        <time>2012-02-12T07:32:17Z</time>
      </trkpt>
      <trkpt lat="45.6052" lon="6.65671">
        <ele>1940.8000488281</ele>
        <time>2012-02-12T07:32:21Z</time>
      </trkpt>
      <trkpt lat="45.60523" lon="6.65673">
        <ele>1941.8000488281</ele>
        <time>2012-02-12T07:32:26Z</time>
      </trkpt>
      <trkpt lat="45.6052" lon="6.65678">
        <ele>1942.4000244141</ele>
        <time>2012-02-12T07:32:36Z</time>
      </trkpt>
      <trkpt lat="45.60516" lon="6.65683">
        <ele>1942.5999755859</ele>
        <time>2012-02-12T07:32:43Z</time>
      </trkpt>
      <trkpt lat="45.60511" lon="6.65692">
        <ele>1943.4000244141</ele>
        <time>2012-02-12T07:32:55Z</time>
      </trkpt>
      <trkpt lat="45.60508" lon="6.65697">
        <ele>1944</ele>
        <time>2012-02-12T07:33:01Z</time>
      </trkpt>
      <trkpt lat="45.60508" lon="6.65701">
        <ele>1944.5999755859</ele>
        <time>2012-02-12T07:33:05Z</time>
      </trkpt>
      <trkpt lat="45.60505" lon="6.65707">
        <ele>1945.4000244141</ele>
        <time>2012-02-12T07:33:13Z</time>
      </trkpt>
      <trkpt lat="45.60502" lon="6.65713">
        <ele>1946.1999511719</ele>
        <time>2012-02-12T07:33:20Z</time>
      </trkpt>
      <trkpt lat="45.60501" lon="6.65717">
        <ele>1946.5999755859</ele>
        <time>2012-02-12T07:33:24Z</time>
      </trkpt>
      <trkpt lat="45.60499" lon="6.6572">
        <ele>1946.8000488281</ele>
        <time>2012-02-12T07:33:29Z</time>
      </trkpt>
      <trkpt lat="45.60497" lon="6.65725">
        <ele>1947</ele>
        <time>2012-02-12T07:33:34Z</time>
      </trkpt>
      <trkpt lat="45.60496" lon="6.65729">
        <ele>1947.5999755859</ele>
        <time>2012-02-12T07:33:39Z</time>
      </trkpt>
      <trkpt lat="45.60495" lon="6.65735">
        <ele>1948.1999511719</ele>
        <time>2012-02-12T07:33:45Z</time>
      </trkpt>
      <trkpt lat="45.60495" lon="6.65738">
        <ele>1948.8000488281</ele>
        <time>2012-02-12T07:33:48Z</time>
      </trkpt>
      <trkpt lat="45.60494" lon="6.65745">
        <ele>1949.8000488281</ele>
        <time>2012-02-12T07:33:55Z</time>
      </trkpt>
      <trkpt lat="45.60493" lon="6.65752">
        <ele>1951.1999511719</ele>
        <time>2012-02-12T07:34:03Z</time>
      </trkpt>
      <trkpt lat="45.60494" lon="6.65759">
        <ele>1952.8000488281</ele>
        <time>2012-02-12T07:34:12Z</time>
      </trkpt>
      <trkpt lat="45.60495" lon="6.65758">
        <ele>1953.4000244141</ele>
        <time>2012-02-12T07:34:21Z</time>
      </trkpt>
      <trkpt lat="45.605" lon="6.65757">
        <ele>1955.1999511719</ele>
        <time>2012-02-12T07:34:28Z</time>
      </trkpt>
      <trkpt lat="45.60502" lon="6.65755">
        <ele>1955.5999755859</ele>
        <time>2012-02-12T07:34:32Z</time>
      </trkpt>
      <trkpt lat="45.60506" lon="6.65754">
        <ele>1956.4000244141</ele>
        <time>2012-02-12T07:34:37Z</time>
      </trkpt>
      <trkpt lat="45.60511" lon="6.65753">
        <ele>1957.5999755859</ele>
        <time>2012-02-12T07:34:44Z</time>
      </trkpt>
      <trkpt lat="45.60515" lon="6.65753">
        <ele>1958.5999755859</ele>
        <time>2012-02-12T07:34:50Z</time>
      </trkpt>
      <trkpt lat="45.60521" lon="6.65753">
        <ele>1960</ele>
        <time>2012-02-12T07:34:57Z</time>
      </trkpt>
      <trkpt lat="45.60524" lon="6.65754">
        <ele>1960.8000488281</ele>
        <time>2012-02-12T07:35:03Z</time>
      </trkpt>
      <trkpt lat="45.60529" lon="6.65755">
        <ele>1962.1999511719</ele>
        <time>2012-02-12T07:35:08Z</time>
      </trkpt>
      <trkpt lat="45.60532" lon="6.65756">
        <ele>1963.4000244141</ele>
        <time>2012-02-12T07:35:13Z</time>
      </trkpt>
      <trkpt lat="45.60538" lon="6.65759">
        <ele>1965.1999511719</ele>
        <time>2012-02-12T07:35:21Z</time>
      </trkpt>
      <trkpt lat="45.60542" lon="6.65761">
        <ele>1966.8000488281</ele>
        <time>2012-02-12T07:35:27Z</time>
      </trkpt>
      <trkpt lat="45.6055" lon="6.65764">
        <ele>1969.1999511719</ele>
        <time>2012-02-12T07:35:38Z</time>
      </trkpt>
      <trkpt lat="45.60554" lon="6.65765">
        <ele>1970.5999755859</ele>
        <time>2012-02-12T07:35:44Z</time>
      </trkpt>
      <trkpt lat="45.60559" lon="6.65766">
        <ele>1972.1999511719</ele>
        <time>2012-02-12T07:35:50Z</time>
      </trkpt>
      <trkpt lat="45.60564" lon="6.65769">
        <ele>1974</ele>
        <time>2012-02-12T07:35:57Z</time>
      </trkpt>
      <trkpt lat="45.60565" lon="6.6577">
        <ele>1974.4000244141</ele>
        <time>2012-02-12T07:35:59Z</time>
      </trkpt>
      <trkpt lat="45.60564" lon="6.65776">
        <ele>1975.4000244141</ele>
        <time>2012-02-12T07:36:04Z</time>
      </trkpt>
      <trkpt lat="45.60564" lon="6.65781">
        <ele>1976.4000244141</ele>
        <time>2012-02-12T07:36:10Z</time>
      </trkpt>
      <trkpt lat="45.60564" lon="6.65786">
        <ele>1977.4000244141</ele>
        <time>2012-02-12T07:36:14Z</time>
      </trkpt>
      <trkpt lat="45.60564" lon="6.65792">
        <ele>1978.5999755859</ele>
        <time>2012-02-12T07:36:19Z</time>
      </trkpt>
      <trkpt lat="45.60564" lon="6.65798">
        <ele>1979.8000488281</ele>
        <time>2012-02-12T07:36:25Z</time>
      </trkpt>
      <trkpt lat="45.60564" lon="6.65803">
        <ele>1980.8000488281</ele>
        <time>2012-02-12T07:36:31Z</time>
      </trkpt>
      <trkpt lat="45.60564" lon="6.65809">
        <ele>1982</ele>
        <time>2012-02-12T07:36:36Z</time>
      </trkpt>
      <trkpt lat="45.60564" lon="6.65816">
        <ele>1983.4000244141</ele>
        <time>2012-02-12T07:36:43Z</time>
      </trkpt>
      <trkpt lat="45.60564" lon="6.65822">
        <ele>1984.8000488281</ele>
        <time>2012-02-12T07:36:49Z</time>
      </trkpt>
      <trkpt lat="45.60564" lon="6.65828">
        <ele>1986</ele>
        <time>2012-02-12T07:36:55Z</time>
      </trkpt>
      <trkpt lat="45.60565" lon="6.65833">
        <ele>1987.1999511719</ele>
        <time>2012-02-12T07:37:00Z</time>
      </trkpt>
      <trkpt lat="45.60566" lon="6.65838">
        <ele>1988</ele>
        <time>2012-02-12T07:37:05Z</time>
      </trkpt>
      <trkpt lat="45.60566" lon="6.65844">
        <ele>1988.5999755859</ele>
        <time>2012-02-12T07:37:10Z</time>
      </trkpt>
      <trkpt lat="45.60566" lon="6.65853">
        <ele>1989.5999755859</ele>
        <time>2012-02-12T07:37:18Z</time>
      </trkpt>
      <trkpt lat="45.60567" lon="6.65862">
        <ele>1990.5999755859</ele>
        <time>2012-02-12T07:37:26Z</time>
      </trkpt>
      <trkpt lat="45.60566" lon="6.6587">
        <ele>1991.4000244141</ele>
        <time>2012-02-12T07:37:33Z</time>
      </trkpt>
      <trkpt lat="45.60567" lon="6.65877">
        <ele>1992.4000244141</ele>
        <time>2012-02-12T07:37:39Z</time>
      </trkpt>
      <trkpt lat="45.60571" lon="6.65887">
        <ele>1994.4000244141</ele>
        <time>2012-02-12T07:37:48Z</time>
      </trkpt>
      <trkpt lat="45.60578" lon="6.65897">
        <ele>1997.4000244141</ele>
        <time>2012-02-12T07:37:59Z</time>
      </trkpt>
      <trkpt lat="45.60581" lon="6.65903">
        <ele>1998.8000488281</ele>
        <time>2012-02-12T07:38:05Z</time>
      </trkpt>
      <trkpt lat="45.60584" lon="6.65909">
        <ele>2000.4000244141</ele>
        <time>2012-02-12T07:38:11Z</time>
      </trkpt>
      <trkpt lat="45.60587" lon="6.65916">
        <ele>2002</ele>
        <time>2012-02-12T07:38:18Z</time>
      </trkpt>
      <trkpt lat="45.6059" lon="6.65921">
        <ele>2002.8000488281</ele>
        <time>2012-02-12T07:38:23Z</time>
      </trkpt>
      <trkpt lat="45.60595" lon="6.65931">
        <ele>2004.5999755859</ele>
        <time>2012-02-12T07:38:34Z</time>
      </trkpt>
      <trkpt lat="45.606" lon="6.6594">
        <ele>2005.8000488281</ele>
        <time>2012-02-12T07:38:44Z</time>
      </trkpt>
      <trkpt lat="45.60603" lon="6.65943">
        <ele>2007</ele>
        <time>2012-02-12T07:38:49Z</time>
      </trkpt>
      <trkpt lat="45.60608" lon="6.65947">
        <ele>2008.5999755859</ele>
        <time>2012-02-12T07:38:56Z</time>
      </trkpt>
      <trkpt lat="45.60613" lon="6.65951">
        <ele>2009.8000488281</ele>
        <time>2012-02-12T07:39:03Z</time>
      </trkpt>
      <trkpt lat="45.60615" lon="6.65955">
        <ele>2010.5999755859</ele>
        <time>2012-02-12T07:39:09Z</time>
      </trkpt>
      <trkpt lat="45.60617" lon="6.65957">
        <ele>2011.4000244141</ele>
        <time>2012-02-12T07:39:12Z</time>
      </trkpt>
      <trkpt lat="45.60621" lon="6.6596">
        <ele>2012.5999755859</ele>
        <time>2012-02-12T07:39:18Z</time>
      </trkpt>
      <trkpt lat="45.60626" lon="6.65963">
        <ele>2014.1999511719</ele>
        <time>2012-02-12T07:39:24Z</time>
      </trkpt>
      <trkpt lat="45.60633" lon="6.65966">
        <ele>2016.1999511719</ele>
        <time>2012-02-12T07:39:34Z</time>
      </trkpt>
      <trkpt lat="45.60637" lon="6.65968">
        <ele>2017.5999755859</ele>
        <time>2012-02-12T07:39:39Z</time>
      </trkpt>
      <trkpt lat="45.60646" lon="6.65975">
        <ele>2020.5999755859</ele>
        <time>2012-02-12T07:39:53Z</time>
      </trkpt>
      <trkpt lat="45.60651" lon="6.65977">
        <ele>2022.4000244141</ele>
        <time>2012-02-12T07:40:00Z</time>
      </trkpt>
      <trkpt lat="45.60656" lon="6.65979">
        <ele>2024</ele>
        <time>2012-02-12T07:40:06Z</time>
      </trkpt>
      <trkpt lat="45.60659" lon="6.65979">
        <ele>2024.8000488281</ele>
        <time>2012-02-12T07:40:09Z</time>
      </trkpt>
      <trkpt lat="45.60664" lon="6.6598">
        <ele>2026.4000244141</ele>
        <time>2012-02-12T07:40:16Z</time>
      </trkpt>
      <trkpt lat="45.60671" lon="6.6598">
        <ele>2028.1999511719</ele>
        <time>2012-02-12T07:40:24Z</time>
      </trkpt>
      <trkpt lat="45.60679" lon="6.6598">
        <ele>2030.1999511719</ele>
        <time>2012-02-12T07:40:34Z</time>
      </trkpt>
      <trkpt lat="45.60688" lon="6.65981">
        <ele>2032.5999755859</ele>
        <time>2012-02-12T07:40:45Z</time>
      </trkpt>
      <trkpt lat="45.60697" lon="6.65982">
        <ele>2034.8000488281</ele>
        <time>2012-02-12T07:40:56Z</time>
      </trkpt>
      <trkpt lat="45.60704" lon="6.65981">
        <ele>2036.4000244141</ele>
        <time>2012-02-12T07:41:04Z</time>
      </trkpt>
      <trkpt lat="45.60708" lon="6.65981">
        <ele>2037.5999755859</ele>
        <time>2012-02-12T07:41:10Z</time>
      </trkpt>
      <trkpt lat="45.60716" lon="6.65982">
        <ele>2039.5999755859</ele>
        <time>2012-02-12T07:41:20Z</time>
      </trkpt>
      <trkpt lat="45.60722" lon="6.65983">
        <ele>2041</ele>
        <time>2012-02-12T07:41:27Z</time>
      </trkpt>
      <trkpt lat="45.60728" lon="6.65984">
        <ele>2042.5999755859</ele>
        <time>2012-02-12T07:41:35Z</time>
      </trkpt>
      <trkpt lat="45.60732" lon="6.65986">
        <ele>2043.4000244141</ele>
        <time>2012-02-12T07:41:39Z</time>
      </trkpt>
      <trkpt lat="45.60734" lon="6.65979">
        <ele>2043.8000488281</ele>
        <time>2012-02-12T07:41:47Z</time>
      </trkpt>
      <trkpt lat="45.60735" lon="6.65976">
        <ele>2044</ele>
        <time>2012-02-12T07:41:50Z</time>
      </trkpt>
      <trkpt lat="45.60735" lon="6.65973">
        <ele>2044</ele>
        <time>2012-02-12T07:41:53Z</time>
      </trkpt>
      <trkpt lat="45.60737" lon="6.65968">
        <ele>2044.1999511719</ele>
        <time>2012-02-12T07:41:58Z</time>
      </trkpt>
      <trkpt lat="45.60738" lon="6.65963">
        <ele>2044.5999755859</ele>
        <time>2012-02-12T07:42:03Z</time>
      </trkpt>
      <trkpt lat="45.60741" lon="6.65959">
        <ele>2045.1999511719</ele>
        <time>2012-02-12T07:42:08Z</time>
      </trkpt>
      <trkpt lat="45.60743" lon="6.65954">
        <ele>2045.8000488281</ele>
        <time>2012-02-12T07:42:14Z</time>
      </trkpt>
      <trkpt lat="45.60749" lon="6.65949">
        <ele>2047.1999511719</ele>
        <time>2012-02-12T07:42:23Z</time>
      </trkpt>
      <trkpt lat="45.60752" lon="6.65948">
        <ele>2048</ele>
        <time>2012-02-12T07:42:27Z</time>
      </trkpt>
      <trkpt lat="45.60757" lon="6.6595">
        <ele>2049.1999511719</ele>
        <time>2012-02-12T07:42:33Z</time>
      </trkpt>
      <trkpt lat="45.60765" lon="6.65951">
        <ele>2051.1999511719</ele>
        <time>2012-02-12T07:42:43Z</time>
      </trkpt>
      <trkpt lat="45.6077" lon="6.65949">
        <ele>2052.3999023438</ele>
        <time>2012-02-12T07:42:50Z</time>
      </trkpt>
      <trkpt lat="45.60775" lon="6.65945">
        <ele>2053.6000976562</ele>
        <time>2012-02-12T07:42:57Z</time>
      </trkpt>
      <trkpt lat="45.60779" lon="6.65943">
        <ele>2054.3999023438</ele>
        <time>2012-02-12T07:43:02Z</time>
      </trkpt>
      <trkpt lat="45.60781" lon="6.65939">
        <ele>2054.8000488281</ele>
        <time>2012-02-12T07:43:08Z</time>
      </trkpt>
      <trkpt lat="45.60784" lon="6.65932">
        <ele>2055.1999511719</ele>
        <time>2012-02-12T07:43:16Z</time>
      </trkpt>
      <trkpt lat="45.60786" lon="6.65931">
        <ele>2055.8000488281</ele>
        <time>2012-02-12T07:43:19Z</time>
      </trkpt>
      <trkpt lat="45.60791" lon="6.65931">
        <ele>2057</ele>
        <time>2012-02-12T07:43:25Z</time>
      </trkpt>
      <trkpt lat="45.60796" lon="6.65932">
        <ele>2058</ele>
        <time>2012-02-12T07:43:31Z</time>
      </trkpt>
      <trkpt lat="45.608" lon="6.65932">
        <ele>2059.1999511719</ele>
        <time>2012-02-12T07:43:37Z</time>
      </trkpt>
      <trkpt lat="45.60805" lon="6.65931">
        <ele>2060.3999023438</ele>
        <time>2012-02-12T07:43:44Z</time>
      </trkpt>
      <trkpt lat="45.60808" lon="6.65931">
        <ele>2061</ele>
        <time>2012-02-12T07:43:47Z</time>
      </trkpt>
      <trkpt lat="45.60815" lon="6.6593">
        <ele>2062.6000976562</ele>
        <time>2012-02-12T07:43:57Z</time>
      </trkpt>
      <trkpt lat="45.60823" lon="6.65931">
        <ele>2064.6000976562</ele>
        <time>2012-02-12T07:44:06Z</time>
      </trkpt>
      <trkpt lat="45.60833" lon="6.65934">
        <ele>2067.3999023438</ele>
        <time>2012-02-12T07:44:18Z</time>
      </trkpt>
      <trkpt lat="45.60838" lon="6.65936">
        <ele>2068.8000488281</ele>
        <time>2012-02-12T07:44:23Z</time>
      </trkpt>
      <trkpt lat="45.60842" lon="6.65937">
        <ele>2070.3999023438</ele>
        <time>2012-02-12T07:44:29Z</time>
      </trkpt>
      <trkpt lat="45.60849" lon="6.65939">
        <ele>2072.8000488281</ele>
        <time>2012-02-12T07:44:37Z</time>
      </trkpt>
      <trkpt lat="45.60855" lon="6.6594">
        <ele>2075</ele>
        <time>2012-02-12T07:44:44Z</time>
      </trkpt>
      <trkpt lat="45.60861" lon="6.65943">
        <ele>2077.1999511719</ele>
        <time>2012-02-12T07:44:53Z</time>
      </trkpt>
      <trkpt lat="45.60867" lon="6.65946">
        <ele>2079.1999511719</ele>
        <time>2012-02-12T07:45:01Z</time>
      </trkpt>
      <trkpt lat="45.6087" lon="6.65949">
        <ele>2080.6000976562</ele>
        <time>2012-02-12T07:45:06Z</time>
      </trkpt>
      <trkpt lat="45.60873" lon="6.65952">
        <ele>2081.6000976562</ele>
        <time>2012-02-12T07:45:11Z</time>
      </trkpt>
      <trkpt lat="45.60878" lon="6.65955">
        <ele>2083.3999023438</ele>
        <time>2012-02-12T07:45:18Z</time>
      </trkpt>
      <trkpt lat="45.60883" lon="6.65956">
        <ele>2085.1999511719</ele>
        <time>2012-02-12T07:45:24Z</time>
      </trkpt>
      <trkpt lat="45.60891" lon="6.65958">
        <ele>2087.8000488281</ele>
        <time>2012-02-12T07:45:33Z</time>
      </trkpt>
      <trkpt lat="45.60895" lon="6.65959">
        <ele>2089.1999511719</ele>
        <time>2012-02-12T07:45:37Z</time>
      </trkpt>
      <trkpt lat="45.609" lon="6.65962">
        <ele>2090.8000488281</ele>
        <time>2012-02-12T07:45:43Z</time>
      </trkpt>
      <trkpt lat="45.60905" lon="6.65965">
        <ele>2092.3999023438</ele>
        <time>2012-02-12T07:45:49Z</time>
      </trkpt>
      <trkpt lat="45.60908" lon="6.65967">
        <ele>2093.3999023438</ele>
        <time>2012-02-12T07:45:53Z</time>
      </trkpt>
      <trkpt lat="45.6091" lon="6.6597">
        <ele>2094.1999511719</ele>
        <time>2012-02-12T07:45:57Z</time>
      </trkpt>
      <trkpt lat="45.60914" lon="6.65974">
        <ele>2095.6000976562</ele>
        <time>2012-02-12T07:46:02Z</time>
      </trkpt>
      <trkpt lat="45.60919" lon="6.65978">
        <ele>2097</ele>
        <time>2012-02-12T07:46:07Z</time>
      </trkpt>
      <trkpt lat="45.60921" lon="6.65981">
        <ele>2098</ele>
        <time>2012-02-12T07:46:11Z</time>
      </trkpt>
      <trkpt lat="45.60927" lon="6.65986">
        <ele>2099.8000488281</ele>
        <time>2012-02-12T07:46:18Z</time>
      </trkpt>
      <trkpt lat="45.60935" lon="6.65985">
        <ele>2102</ele>
        <time>2012-02-12T07:46:29Z</time>
      </trkpt>
      <trkpt lat="45.60938" lon="6.6598">
        <ele>2103</ele>
        <time>2012-02-12T07:46:35Z</time>
      </trkpt>
      <trkpt lat="45.60941" lon="6.65977">
        <ele>2103.8000488281</ele>
        <time>2012-02-12T07:46:39Z</time>
      </trkpt>
      <trkpt lat="45.60942" lon="6.65975">
        <ele>2104</ele>
        <time>2012-02-12T07:46:41Z</time>
      </trkpt>
      <trkpt lat="45.60945" lon="6.65966">
        <ele>2104.6000976562</ele>
        <time>2012-02-12T07:46:49Z</time>
      </trkpt>
      <trkpt lat="45.60946" lon="6.65961">
        <ele>2104.8000488281</ele>
        <time>2012-02-12T07:46:53Z</time>
      </trkpt>
      <trkpt lat="45.6095" lon="6.65949">
        <ele>2105.8000488281</ele>
        <time>2012-02-12T07:47:06Z</time>
      </trkpt>
      <trkpt lat="45.60953" lon="6.65948">
        <ele>2106.8000488281</ele>
        <time>2012-02-12T07:47:11Z</time>
      </trkpt>
      <trkpt lat="45.60955" lon="6.65945">
        <ele>2107.1999511719</ele>
        <time>2012-02-12T07:47:15Z</time>
      </trkpt>
      <trkpt lat="45.60957" lon="6.65941">
        <ele>2107.8000488281</ele>
        <time>2012-02-12T07:47:19Z</time>
      </trkpt>
      <trkpt lat="45.60959" lon="6.65935">
        <ele>2108.1999511719</ele>
        <time>2012-02-12T07:47:24Z</time>
      </trkpt>
      <trkpt lat="45.60961" lon="6.65928">
        <ele>2108.6000976562</ele>
        <time>2012-02-12T07:47:30Z</time>
      </trkpt>
      <trkpt lat="45.60965" lon="6.65922">
        <ele>2109.6000976562</ele>
        <time>2012-02-12T07:47:37Z</time>
      </trkpt>
      <trkpt lat="45.6097" lon="6.65921">
        <ele>2111</ele>
        <time>2012-02-12T07:47:43Z</time>
      </trkpt>
      <trkpt lat="45.60976" lon="6.65922">
        <ele>2113</ele>
        <time>2012-02-12T07:47:51Z</time>
      </trkpt>
      <trkpt lat="45.60981" lon="6.65923">
        <ele>2114.3999023438</ele>
        <time>2012-02-12T07:47:57Z</time>
      </trkpt>
      <trkpt lat="45.60986" lon="6.65926">
        <ele>2116</ele>
        <time>2012-02-12T07:48:04Z</time>
      </trkpt>
      <trkpt lat="45.60987" lon="6.65927">
        <ele>2116.3999023438</ele>
        <time>2012-02-12T07:48:09Z</time>
      </trkpt>
      <trkpt lat="45.60994" lon="6.65927">
        <ele>2118.6000976562</ele>
        <time>2012-02-12T07:48:19Z</time>
      </trkpt>
      <trkpt lat="45.60994" lon="6.65927">
        <ele>2118.6000976562</ele>
        <time>2012-02-12T07:48:26Z</time>
      </trkpt>
      <trkpt lat="45.60994" lon="6.65926">
        <ele>2118.3999023438</ele>
        <time>2012-02-12T07:48:35Z</time>
      </trkpt>
      <trkpt lat="45.60994" lon="6.65926">
        <ele>2118.3999023438</ele>
        <time>2012-02-12T07:48:44Z</time>
      </trkpt>
      <trkpt lat="45.60994" lon="6.65926">
        <ele>2118.3999023438</ele>
        <time>2012-02-12T07:48:47Z</time>
      </trkpt>
      <trkpt lat="45.60994" lon="6.65927">
        <ele>2118.3999023438</ele>
        <time>2012-02-12T07:48:56Z</time>
      </trkpt>
      <trkpt lat="45.60994" lon="6.65927">
        <ele>2118.6000976562</ele>
        <time>2012-02-12T07:49:06Z</time>
      </trkpt>
      <trkpt lat="45.60995" lon="6.65926">
        <ele>2118.8000488281</ele>
        <time>2012-02-12T07:49:19Z</time>
      </trkpt>
      <trkpt lat="45.60995" lon="6.65926">
        <ele>2118.8000488281</ele>
        <time>2012-02-12T07:49:35Z</time>
      </trkpt>
      <trkpt lat="45.60994" lon="6.65926">
        <ele>2118.6000976562</ele>
        <time>2012-02-12T07:49:41Z</time>
      </trkpt>
      <trkpt lat="45.60994" lon="6.65925">
        <ele>2118.1999511719</ele>
        <time>2012-02-12T07:49:46Z</time>
      </trkpt>
      <trkpt lat="45.60994" lon="6.65925">
        <ele>2118.1999511719</ele>
        <time>2012-02-12T07:49:57Z</time>
      </trkpt>
      <trkpt lat="45.60995" lon="6.65925">
        <ele>2118.6000976562</ele>
        <time>2012-02-12T07:50:09Z</time>
      </trkpt>
      <trkpt lat="45.60994" lon="6.65924">
        <ele>2118.3999023438</ele>
        <time>2012-02-12T07:50:17Z</time>
      </trkpt>
      <trkpt lat="45.60994" lon="6.65924">
        <ele>2118.3999023438</ele>
        <time>2012-02-12T07:50:24Z</time>
      </trkpt>
      <trkpt lat="45.60994" lon="6.65924">
        <ele>2118.3999023438</ele>
        <time>2012-02-12T07:50:33Z</time>
      </trkpt>
      <trkpt lat="45.60994" lon="6.65924">
        <ele>2118.3999023438</ele>
        <time>2012-02-12T07:50:47Z</time>
      </trkpt>
      <trkpt lat="45.60993" lon="6.65925">
        <ele>2118.1999511719</ele>
        <time>2012-02-12T07:50:52Z</time>
      </trkpt>
      <trkpt lat="45.60993" lon="6.65925">
        <ele>2118.1999511719</ele>
        <time>2012-02-12T07:51:00Z</time>
      </trkpt>
      <trkpt lat="45.60993" lon="6.65925">
        <ele>2118</ele>
        <time>2012-02-12T07:51:14Z</time>
      </trkpt>
      <trkpt lat="45.60993" lon="6.65925">
        <ele>2118.1999511719</ele>
        <time>2012-02-12T07:51:28Z</time>
      </trkpt>
      <trkpt lat="45.60993" lon="6.65925">
        <ele>2118.1999511719</ele>
        <time>2012-02-12T07:51:37Z</time>
      </trkpt>
      <trkpt lat="45.60993" lon="6.65925">
        <ele>2118.1999511719</ele>
        <time>2012-02-12T07:51:45Z</time>
      </trkpt>
      <trkpt lat="45.60994" lon="6.65926">
        <ele>2118.3999023438</ele>
        <time>2012-02-12T07:51:52Z</time>
      </trkpt>
      <trkpt lat="45.60994" lon="6.65926">
        <ele>2118.3999023438</ele>
        <time>2012-02-12T07:51:59Z</time>
      </trkpt>
      <trkpt lat="45.60994" lon="6.65926">
        <ele>2118.3999023438</ele>
        <time>2012-02-12T07:52:10Z</time>
      </trkpt>
      <trkpt lat="45.60994" lon="6.65926">
        <ele>2118.3999023438</ele>
        <time>2012-02-12T07:52:24Z</time>
      </trkpt>
      <trkpt lat="45.60994" lon="6.65927">
        <ele>2118.6000976562</ele>
        <time>2012-02-12T07:52:29Z</time>
      </trkpt>
      <trkpt lat="45.60994" lon="6.65927">
        <ele>2118.3999023438</ele>
        <time>2012-02-12T07:52:37Z</time>
      </trkpt>
      <trkpt lat="45.60988" lon="6.65922">
        <ele>2116.3999023438</ele>
        <time>2012-02-12T07:52:49Z</time>
      </trkpt>
      <trkpt lat="45.60991" lon="6.65914">
        <ele>2116.8000488281</ele>
        <time>2012-02-12T07:53:01Z</time>
      </trkpt>
      <trkpt lat="45.60993" lon="6.65912">
        <ele>2117.1999511719</ele>
        <time>2012-02-12T07:53:09Z</time>
      </trkpt>
      <trkpt lat="45.60996" lon="6.65906">
        <ele>2117.1999511719</ele>
        <time>2012-02-12T07:53:17Z</time>
      </trkpt>
      <trkpt lat="45.61" lon="6.65901">
        <ele>2117.8000488281</ele>
        <time>2012-02-12T07:53:25Z</time>
      </trkpt>
      <trkpt lat="45.61002" lon="6.65899">
        <ele>2118.1999511719</ele>
        <time>2012-02-12T07:53:38Z</time>
      </trkpt>
      <trkpt lat="45.61005" lon="6.65896">
        <ele>2119</ele>
        <time>2012-02-12T07:53:46Z</time>
      </trkpt>
      <trkpt lat="45.61011" lon="6.65893">
        <ele>2121</ele>
        <time>2012-02-12T07:53:58Z</time>
      </trkpt>
      <trkpt lat="45.61015" lon="6.65891">
        <ele>2121.8000488281</ele>
        <time>2012-02-12T07:54:04Z</time>
      </trkpt>
      <trkpt lat="45.61017" lon="6.6589">
        <ele>2122.1999511719</ele>
        <time>2012-02-12T07:54:15Z</time>
      </trkpt>
      <trkpt lat="45.61018" lon="6.6589">
        <ele>2122.8000488281</ele>
        <time>2012-02-12T07:54:24Z</time>
      </trkpt>
      <trkpt lat="45.6102" lon="6.6589">
        <ele>2123.8000488281</ele>
        <time>2012-02-12T07:54:30Z</time>
      </trkpt>
      <trkpt lat="45.61022" lon="6.6589">
        <ele>2124.1999511719</ele>
        <time>2012-02-12T07:54:33Z</time>
      </trkpt>
      <trkpt lat="45.61023" lon="6.65891">
        <ele>2124.8000488281</ele>
        <time>2012-02-12T07:54:35Z</time>
      </trkpt>
      <trkpt lat="45.61033" lon="6.659">
        <ele>2129.1999511719</ele>
        <time>2012-02-12T07:54:51Z</time>
      </trkpt>
      <trkpt lat="45.61038" lon="6.65906">
        <ele>2131.6000976562</ele>
        <time>2012-02-12T07:54:59Z</time>
      </trkpt>
      <trkpt lat="45.61042" lon="6.65911">
        <ele>2133.3999023438</ele>
        <time>2012-02-12T07:55:05Z</time>
      </trkpt>
      <trkpt lat="45.61045" lon="6.65917">
        <ele>2135.1999511719</ele>
        <time>2012-02-12T07:55:12Z</time>
      </trkpt>
      <trkpt lat="45.61053" lon="6.65926">
        <ele>2138</ele>
        <time>2012-02-12T07:55:24Z</time>
      </trkpt>
      <trkpt lat="45.61058" lon="6.65935">
        <ele>2140.1999511719</ele>
        <time>2012-02-12T07:55:35Z</time>
      </trkpt>
      <trkpt lat="45.61062" lon="6.65944">
        <ele>2142</ele>
        <time>2012-02-12T07:55:45Z</time>
      </trkpt>
      <trkpt lat="45.61064" lon="6.65949">
        <ele>2143</ele>
        <time>2012-02-12T07:55:49Z</time>
      </trkpt>
      <trkpt lat="45.61067" lon="6.65955">
        <ele>2144</ele>
        <time>2012-02-12T07:55:55Z</time>
      </trkpt>
      <trkpt lat="45.61069" lon="6.65961">
        <ele>2145</ele>
        <time>2012-02-12T07:56:01Z</time>
      </trkpt>
      <trkpt lat="45.61072" lon="6.65965">
        <ele>2146.3999023438</ele>
        <time>2012-02-12T07:56:06Z</time>
      </trkpt>
      <trkpt lat="45.61077" lon="6.65975">
        <ele>2148.6000976562</ele>
        <time>2012-02-12T07:56:16Z</time>
      </trkpt>
      <trkpt lat="45.61079" lon="6.65979">
        <ele>2149.3999023438</ele>
        <time>2012-02-12T07:56:20Z</time>
      </trkpt>
      <trkpt lat="45.61082" lon="6.65987">
        <ele>2150.8000488281</ele>
        <time>2012-02-12T07:56:29Z</time>
      </trkpt>
      <trkpt lat="45.61084" lon="6.65993">
        <ele>2152</ele>
        <time>2012-02-12T07:56:34Z</time>
      </trkpt>
      <trkpt lat="45.61088" lon="6.66">
        <ele>2153.8000488281</ele>
        <time>2012-02-12T07:56:42Z</time>
      </trkpt>
      <trkpt lat="45.61091" lon="6.66005">
        <ele>2155.3999023438</ele>
        <time>2012-02-12T07:56:49Z</time>
      </trkpt>
      <trkpt lat="45.61099" lon="6.65998">
        <ele>2157.6000976562</ele>
        <time>2012-02-12T07:57:02Z</time>
      </trkpt>
      <trkpt lat="45.61102" lon="6.65993">
        <ele>2158.3999023438</ele>
        <time>2012-02-12T07:57:08Z</time>
      </trkpt>
      <trkpt lat="45.61104" lon="6.65989">
        <ele>2159.1999511719</ele>
        <time>2012-02-12T07:57:14Z</time>
      </trkpt>
      <trkpt lat="45.61108" lon="6.65979">
        <ele>2160.3999023438</ele>
        <time>2012-02-12T07:57:25Z</time>
      </trkpt>
      <trkpt lat="45.6111" lon="6.65975">
        <ele>2160.8000488281</ele>
        <time>2012-02-12T07:57:30Z</time>
      </trkpt>
      <trkpt lat="45.61112" lon="6.65971">
        <ele>2161.3999023438</ele>
        <time>2012-02-12T07:57:35Z</time>
      </trkpt>
      <trkpt lat="45.61114" lon="6.65965">
        <ele>2161.8000488281</ele>
        <time>2012-02-12T07:57:43Z</time>
      </trkpt>
      <trkpt lat="45.61117" lon="6.65955">
        <ele>2162.8000488281</ele>
        <time>2012-02-12T07:57:52Z</time>
      </trkpt>
      <trkpt lat="45.61118" lon="6.65951">
        <ele>2163.1999511719</ele>
        <time>2012-02-12T07:57:56Z</time>
      </trkpt>
      <trkpt lat="45.61121" lon="6.65946">
        <ele>2164</ele>
        <time>2012-02-12T07:58:02Z</time>
      </trkpt>
      <trkpt lat="45.61124" lon="6.65945">
        <ele>2165.1999511719</ele>
        <time>2012-02-12T07:58:07Z</time>
      </trkpt>
      <trkpt lat="45.61126" lon="6.65948">
        <ele>2166.1999511719</ele>
        <time>2012-02-12T07:58:12Z</time>
      </trkpt>
      <trkpt lat="45.61128" lon="6.65951">
        <ele>2166.8000488281</ele>
        <time>2012-02-12T07:58:17Z</time>
      </trkpt>
      <trkpt lat="45.6113" lon="6.65956">
        <ele>2168</ele>
        <time>2012-02-12T07:58:23Z</time>
      </trkpt>
      <trkpt lat="45.61133" lon="6.6596">
        <ele>2169</ele>
        <time>2012-02-12T07:58:28Z</time>
      </trkpt>
      <trkpt lat="45.61134" lon="6.65964">
        <ele>2169.6000976562</ele>
        <time>2012-02-12T07:58:33Z</time>
      </trkpt>
      <trkpt lat="45.61137" lon="6.6597">
        <ele>2171</ele>
        <time>2012-02-12T07:58:40Z</time>
      </trkpt>
      <trkpt lat="45.61144" lon="6.65979">
        <ele>2173.8000488281</ele>
        <time>2012-02-12T07:58:53Z</time>
      </trkpt>
      <trkpt lat="45.61146" lon="6.65981">
        <ele>2174.1999511719</ele>
        <time>2012-02-12T07:58:58Z</time>
      </trkpt>
      <trkpt lat="45.6115" lon="6.65986">
        <ele>2176</ele>
        <time>2012-02-12T07:59:04Z</time>
      </trkpt>
      <trkpt lat="45.61153" lon="6.65989">
        <ele>2177.1999511719</ele>
        <time>2012-02-12T07:59:08Z</time>
      </trkpt>
      <trkpt lat="45.61155" lon="6.6599">
        <ele>2178</ele>
        <time>2012-02-12T07:59:12Z</time>
      </trkpt>
      <trkpt lat="45.61159" lon="6.65993">
        <ele>2179.1999511719</ele>
        <time>2012-02-12T07:59:17Z</time>
      </trkpt>
      <trkpt lat="45.61163" lon="6.65996">
        <ele>2180.6000976562</ele>
        <time>2012-02-12T07:59:23Z</time>
      </trkpt>
      <trkpt lat="45.61167" lon="6.65999">
        <ele>2182</ele>
        <time>2012-02-12T07:59:29Z</time>
      </trkpt>
      <trkpt lat="45.61171" lon="6.66003">
        <ele>2183.3999023438</ele>
        <time>2012-02-12T07:59:35Z</time>
      </trkpt>
      <trkpt lat="45.61174" lon="6.66006">
        <ele>2184.3999023438</ele>
        <time>2012-02-12T07:59:40Z</time>
      </trkpt>
      <trkpt lat="45.61182" lon="6.66012">
        <ele>2186.8000488281</ele>
        <time>2012-02-12T07:59:52Z</time>
      </trkpt>
      <trkpt lat="45.61185" lon="6.66014">
        <ele>2187.8000488281</ele>
        <time>2012-02-12T07:59:57Z</time>
      </trkpt>
      <trkpt lat="45.6119" lon="6.66017">
        <ele>2189.1999511719</ele>
        <time>2012-02-12T08:00:03Z</time>
      </trkpt>
      <trkpt lat="45.61194" lon="6.6602">
        <ele>2190.3999023438</ele>
        <time>2012-02-12T08:00:09Z</time>
      </trkpt>
      <trkpt lat="45.61197" lon="6.66022">
        <ele>2191.3999023438</ele>
        <time>2012-02-12T08:00:14Z</time>
      </trkpt>
      <trkpt lat="45.61198" lon="6.66016">
        <ele>2192</ele>
        <time>2012-02-12T08:00:21Z</time>
      </trkpt>
      <trkpt lat="45.61197" lon="6.6601">
        <ele>2191.8000488281</ele>
        <time>2012-02-12T08:00:27Z</time>
      </trkpt>
      <trkpt lat="45.61196" lon="6.66001">
        <ele>2192</ele>
        <time>2012-02-12T08:00:36Z</time>
      </trkpt>
      <trkpt lat="45.61198" lon="6.65996">
        <ele>2192.6000976562</ele>
        <time>2012-02-12T08:00:41Z</time>
      </trkpt>
      <trkpt lat="45.61206" lon="6.65999">
        <ele>2195.1999511719</ele>
        <time>2012-02-12T08:00:51Z</time>
      </trkpt>
      <trkpt lat="45.61212" lon="6.66001">
        <ele>2197.1999511719</ele>
        <time>2012-02-12T08:00:58Z</time>
      </trkpt>
      <trkpt lat="45.61216" lon="6.66003">
        <ele>2198.3999023438</ele>
        <time>2012-02-12T08:01:04Z</time>
      </trkpt>
      <trkpt lat="45.6122" lon="6.66005">
        <ele>2199.8000488281</ele>
        <time>2012-02-12T08:01:09Z</time>
      </trkpt>
      <trkpt lat="45.61229" lon="6.6601">
        <ele>2202.3999023438</ele>
        <time>2012-02-12T08:01:20Z</time>
      </trkpt>
      <trkpt lat="45.61233" lon="6.66012">
        <ele>2203.8000488281</ele>
        <time>2012-02-12T08:01:26Z</time>
      </trkpt>
      <trkpt lat="45.61238" lon="6.66014">
        <ele>2205.1999511719</ele>
        <time>2012-02-12T08:01:32Z</time>
      </trkpt>
      <trkpt lat="45.61243" lon="6.66014">
        <ele>2206.8000488281</ele>
        <time>2012-02-12T08:01:38Z</time>
      </trkpt>
      <trkpt lat="45.61246" lon="6.66014">
        <ele>2208</ele>
        <time>2012-02-12T08:01:43Z</time>
      </trkpt>
      <trkpt lat="45.61254" lon="6.66014">
        <ele>2210.1999511719</ele>
        <time>2012-02-12T08:01:52Z</time>
      </trkpt>
      <trkpt lat="45.6126" lon="6.66016">
        <ele>2211.6000976562</ele>
        <time>2012-02-12T08:02:00Z</time>
      </trkpt>
      <trkpt lat="45.61265" lon="6.66018">
        <ele>2212.8000488281</ele>
        <time>2012-02-12T08:02:06Z</time>
      </trkpt>
      <trkpt lat="45.61272" lon="6.66022">
        <ele>2214.3999023438</ele>
        <time>2012-02-12T08:02:14Z</time>
      </trkpt>
      <trkpt lat="45.61277" lon="6.66025">
        <ele>2215.3999023438</ele>
        <time>2012-02-12T08:02:20Z</time>
      </trkpt>
      <trkpt lat="45.61282" lon="6.66029">
        <ele>2216.6000976562</ele>
        <time>2012-02-12T08:02:27Z</time>
      </trkpt>
      <trkpt lat="45.61292" lon="6.66036">
        <ele>2218.1999511719</ele>
        <time>2012-02-12T08:02:39Z</time>
      </trkpt>
      <trkpt lat="45.61296" lon="6.66039">
        <ele>2219</ele>
        <time>2012-02-12T08:02:44Z</time>
      </trkpt>
      <trkpt lat="45.613" lon="6.66042">
        <ele>2219.6000976562</ele>
        <time>2012-02-12T08:02:50Z</time>
      </trkpt>
      <trkpt lat="45.61306" lon="6.66047">
        <ele>2220.8000488281</ele>
        <time>2012-02-12T08:02:58Z</time>
      </trkpt>
      <trkpt lat="45.6131" lon="6.66048">
        <ele>2221.6000976562</ele>
        <time>2012-02-12T08:03:07Z</time>
      </trkpt>
      <trkpt lat="45.61316" lon="6.66047">
        <ele>2223</ele>
        <time>2012-02-12T08:03:15Z</time>
      </trkpt>
      <trkpt lat="45.61319" lon="6.66047">
        <ele>2223.8000488281</ele>
        <time>2012-02-12T08:03:20Z</time>
      </trkpt>
      <trkpt lat="45.61318" lon="6.66044">
        <ele>2224</ele>
        <time>2012-02-12T08:03:23Z</time>
      </trkpt>
      <trkpt lat="45.61315" lon="6.66034">
        <ele>2224.1999511719</ele>
        <time>2012-02-12T08:03:33Z</time>
      </trkpt>
      <trkpt lat="45.61314" lon="6.66027">
        <ele>2224.8000488281</ele>
        <time>2012-02-12T08:03:39Z</time>
      </trkpt>
      <trkpt lat="45.61313" lon="6.66018">
        <ele>2225.3999023438</ele>
        <time>2012-02-12T08:03:46Z</time>
      </trkpt>
      <trkpt lat="45.61313" lon="6.66013">
        <ele>2226</ele>
        <time>2012-02-12T08:03:50Z</time>
      </trkpt>
      <trkpt lat="45.6132" lon="6.66015">
        <ele>2227.8000488281</ele>
        <time>2012-02-12T08:03:59Z</time>
      </trkpt>
      <trkpt lat="45.61322" lon="6.66015">
        <ele>2228.1999511719</ele>
        <time>2012-02-12T08:04:01Z</time>
      </trkpt>
      <trkpt lat="45.61331" lon="6.66016">
        <ele>2230.3999023438</ele>
        <time>2012-02-12T08:04:11Z</time>
      </trkpt>
      <trkpt lat="45.61337" lon="6.66016">
        <ele>2232</ele>
        <time>2012-02-12T08:04:19Z</time>
      </trkpt>
      <trkpt lat="45.6135" lon="6.66017">
        <ele>2235.1999511719</ele>
        <time>2012-02-12T08:04:33Z</time>
      </trkpt>
      <trkpt lat="45.6136" lon="6.66017">
        <ele>2237.3999023438</ele>
        <time>2012-02-12T08:04:43Z</time>
      </trkpt>
      <trkpt lat="45.61364" lon="6.66018">
        <ele>2238.6000976562</ele>
        <time>2012-02-12T08:04:48Z</time>
      </trkpt>
      <trkpt lat="45.6137" lon="6.66019">
        <ele>2239.8000488281</ele>
        <time>2012-02-12T08:04:54Z</time>
      </trkpt>
      <trkpt lat="45.61376" lon="6.66021">
        <ele>2241.1999511719</ele>
        <time>2012-02-12T08:05:01Z</time>
      </trkpt>
      <trkpt lat="45.61381" lon="6.66023">
        <ele>2242.1999511719</ele>
        <time>2012-02-12T08:05:07Z</time>
      </trkpt>
      <trkpt lat="45.61386" lon="6.66023">
        <ele>2243.6000976562</ele>
        <time>2012-02-12T08:05:13Z</time>
      </trkpt>
      <trkpt lat="45.61391" lon="6.66022">
        <ele>2245</ele>
        <time>2012-02-12T08:05:20Z</time>
      </trkpt>
      <trkpt lat="45.61397" lon="6.6602">
        <ele>2246.6000976562</ele>
        <time>2012-02-12T08:05:27Z</time>
      </trkpt>
      <trkpt lat="45.61401" lon="6.66018">
        <ele>2247.8000488281</ele>
        <time>2012-02-12T08:05:32Z</time>
      </trkpt>
      <trkpt lat="45.61409" lon="6.66017">
        <ele>2249.6000976562</ele>
        <time>2012-02-12T08:05:41Z</time>
      </trkpt>
      <trkpt lat="45.61414" lon="6.66016">
        <ele>2251</ele>
        <time>2012-02-12T08:05:47Z</time>
      </trkpt>
      <trkpt lat="45.6142" lon="6.66016">
        <ele>2252.6000976562</ele>
        <time>2012-02-12T08:05:54Z</time>
      </trkpt>
      <trkpt lat="45.61424" lon="6.66015">
        <ele>2253.6000976562</ele>
        <time>2012-02-12T08:05:59Z</time>
      </trkpt>
      <trkpt lat="45.6143" lon="6.66016">
        <ele>2255.1999511719</ele>
        <time>2012-02-12T08:06:06Z</time>
      </trkpt>
      <trkpt lat="45.61434" lon="6.66022">
        <ele>2256.1999511719</ele>
        <time>2012-02-12T08:06:14Z</time>
      </trkpt>
      <trkpt lat="45.61439" lon="6.66034">
        <ele>2257.1999511719</ele>
        <time>2012-02-12T08:06:26Z</time>
      </trkpt>
      <trkpt lat="45.6144" lon="6.66035">
        <ele>2257.6000976562</ele>
        <time>2012-02-12T08:06:28Z</time>
      </trkpt>
      <trkpt lat="45.61445" lon="6.66047">
        <ele>2258.8000488281</ele>
        <time>2012-02-12T08:06:42Z</time>
      </trkpt>
      <trkpt lat="45.61448" lon="6.66051">
        <ele>2259.8000488281</ele>
        <time>2012-02-12T08:06:49Z</time>
      </trkpt>
      <trkpt lat="45.6145" lon="6.66055">
        <ele>2260.3999023438</ele>
        <time>2012-02-12T08:06:54Z</time>
      </trkpt>
      <trkpt lat="45.61452" lon="6.6606">
        <ele>2261</ele>
        <time>2012-02-12T08:07:00Z</time>
      </trkpt>
      <trkpt lat="45.61455" lon="6.66065">
        <ele>2262</ele>
        <time>2012-02-12T08:07:07Z</time>
      </trkpt>
      <trkpt lat="45.61462" lon="6.66072">
        <ele>2264</ele>
        <time>2012-02-12T08:07:20Z</time>
      </trkpt>
      <trkpt lat="45.61464" lon="6.66073">
        <ele>2264.6000976562</ele>
        <time>2012-02-12T08:07:23Z</time>
      </trkpt>
      <trkpt lat="45.61471" lon="6.66074">
        <ele>2267</ele>
        <time>2012-02-12T08:07:35Z</time>
      </trkpt>
      <trkpt lat="45.61476" lon="6.66074">
        <ele>2268.1999511719</ele>
        <time>2012-02-12T08:07:42Z</time>
      </trkpt>
      <trkpt lat="45.61478" lon="6.66073">
        <ele>2269</ele>
        <time>2012-02-12T08:07:49Z</time>
      </trkpt>
      <trkpt lat="45.61481" lon="6.6607">
        <ele>2269.8000488281</ele>
        <time>2012-02-12T08:07:57Z</time>
      </trkpt>
      <trkpt lat="45.61483" lon="6.6607">
        <ele>2270.3999023438</ele>
        <time>2012-02-12T08:08:03Z</time>
      </trkpt>
      <trkpt lat="45.61487" lon="6.66068">
        <ele>2271.6000976562</ele>
        <time>2012-02-12T08:08:11Z</time>
      </trkpt>
      <trkpt lat="45.61489" lon="6.66065">
        <ele>2272.1999511719</ele>
        <time>2012-02-12T08:08:15Z</time>
      </trkpt>
      <trkpt lat="45.61494" lon="6.6606">
        <ele>2273.3999023438</ele>
        <time>2012-02-12T08:08:22Z</time>
      </trkpt>
      <trkpt lat="45.61498" lon="6.66059">
        <ele>2274.6000976562</ele>
        <time>2012-02-12T08:08:26Z</time>
      </trkpt>
      <trkpt lat="45.61504" lon="6.66057">
        <ele>2276.6000976562</ele>
        <time>2012-02-12T08:08:33Z</time>
      </trkpt>
      <trkpt lat="45.6151" lon="6.66054">
        <ele>2278.8000488281</ele>
        <time>2012-02-12T08:08:40Z</time>
      </trkpt>
      <trkpt lat="45.61521" lon="6.66054">
        <ele>2283</ele>
        <time>2012-02-12T08:08:53Z</time>
      </trkpt>
      <trkpt lat="45.61527" lon="6.66058">
        <ele>2285</ele>
        <time>2012-02-12T08:09:00Z</time>
      </trkpt>
      <trkpt lat="45.61534" lon="6.66062">
        <ele>2287.8000488281</ele>
        <time>2012-02-12T08:09:09Z</time>
      </trkpt>
      <trkpt lat="45.6154" lon="6.66065">
        <ele>2290.1999511719</ele>
        <time>2012-02-12T08:09:17Z</time>
      </trkpt>
      <trkpt lat="45.61545" lon="6.66064">
        <ele>2291.8000488281</ele>
        <time>2012-02-12T08:09:23Z</time>
      </trkpt>
      <trkpt lat="45.61547" lon="6.66063">
        <ele>2292.6000976562</ele>
        <time>2012-02-12T08:09:26Z</time>
      </trkpt>
      <trkpt lat="45.61552" lon="6.66064">
        <ele>2294.3999023438</ele>
        <time>2012-02-12T08:09:32Z</time>
      </trkpt>
      <trkpt lat="45.61557" lon="6.66068">
        <ele>2296.3999023438</ele>
        <time>2012-02-12T08:09:39Z</time>
      </trkpt>
      <trkpt lat="45.61563" lon="6.66073">
        <ele>2298.6000976562</ele>
        <time>2012-02-12T08:09:48Z</time>
      </trkpt>
      <trkpt lat="45.61568" lon="6.66077">
        <ele>2300.3999023438</ele>
        <time>2012-02-12T08:09:55Z</time>
      </trkpt>
      <trkpt lat="45.61571" lon="6.66079">
        <ele>2301.6000976562</ele>
        <time>2012-02-12T08:10:01Z</time>
      </trkpt>
      <trkpt lat="45.61578" lon="6.66083">
        <ele>2304</ele>
        <time>2012-02-12T08:10:12Z</time>
      </trkpt>
      <trkpt lat="45.61579" lon="6.66078">
        <ele>2304.3999023438</ele>
        <time>2012-02-12T08:10:18Z</time>
      </trkpt>
      <trkpt lat="45.61579" lon="6.66073">
        <ele>2304.3999023438</ele>
        <time>2012-02-12T08:10:23Z</time>
      </trkpt>
      <trkpt lat="45.61579" lon="6.66072">
        <ele>2304.1999511719</ele>
        <time>2012-02-12T08:10:28Z</time>
      </trkpt>
      <trkpt lat="45.61578" lon="6.66065">
        <ele>2304.1999511719</ele>
        <time>2012-02-12T08:10:36Z</time>
      </trkpt>
      <trkpt lat="45.61582" lon="6.66063">
        <ele>2305.6000976562</ele>
        <time>2012-02-12T08:10:42Z</time>
      </trkpt>
      <trkpt lat="45.61587" lon="6.66068">
        <ele>2306.8000488281</ele>
        <time>2012-02-12T08:10:49Z</time>
      </trkpt>
      <trkpt lat="45.61593" lon="6.66073">
        <ele>2308.3999023438</ele>
        <time>2012-02-12T08:11:01Z</time>
      </trkpt>
      <trkpt lat="45.61595" lon="6.66076">
        <ele>2309</ele>
        <time>2012-02-12T08:11:04Z</time>
      </trkpt>
      <trkpt lat="45.61598" lon="6.66078">
        <ele>2309.6000976562</ele>
        <time>2012-02-12T08:11:09Z</time>
      </trkpt>
      <trkpt lat="45.61601" lon="6.6608">
        <ele>2310.3999023438</ele>
        <time>2012-02-12T08:11:15Z</time>
      </trkpt>
      <trkpt lat="45.61604" lon="6.66083">
        <ele>2311.3999023438</ele>
        <time>2012-02-12T08:11:21Z</time>
      </trkpt>
      <trkpt lat="45.61607" lon="6.66086">
        <ele>2311.6000976562</ele>
        <time>2012-02-12T08:11:27Z</time>
      </trkpt>
      <trkpt lat="45.61611" lon="6.66089">
        <ele>2311.6000976562</ele>
        <time>2012-02-12T08:11:33Z</time>
      </trkpt>
      <trkpt lat="45.61611" lon="6.66088">
        <ele>2311.8000488281</ele>
        <time>2012-02-12T08:11:38Z</time>
      </trkpt>
      <trkpt lat="45.61611" lon="6.66085">
        <ele>2312.8000488281</ele>
        <time>2012-02-12T08:11:42Z</time>
      </trkpt>
      <trkpt lat="45.6161" lon="6.6608">
        <ele>2313.1999511719</ele>
        <time>2012-02-12T08:11:47Z</time>
      </trkpt>
      <trkpt lat="45.6161" lon="6.66073">
        <ele>2313</ele>
        <time>2012-02-12T08:11:55Z</time>
      </trkpt>
      <trkpt lat="45.61611" lon="6.66068">
        <ele>2313</ele>
        <time>2012-02-12T08:12:00Z</time>
      </trkpt>
      <trkpt lat="45.61612" lon="6.66064">
        <ele>2313</ele>
        <time>2012-02-12T08:12:06Z</time>
      </trkpt>
      <trkpt lat="45.61613" lon="6.66059">
        <ele>2313.1999511719</ele>
        <time>2012-02-12T08:12:10Z</time>
      </trkpt>
      <trkpt lat="45.61614" lon="6.66059">
        <ele>2313.6000976562</ele>
        <time>2012-02-12T08:12:14Z</time>
      </trkpt>
      <trkpt lat="45.6162" lon="6.66069">
        <ele>2315.1999511719</ele>
        <time>2012-02-12T08:12:28Z</time>
      </trkpt>
      <trkpt lat="45.61627" lon="6.66075">
        <ele>2317.1999511719</ele>
        <time>2012-02-12T08:12:41Z</time>
      </trkpt>
      <trkpt lat="45.61632" lon="6.66079">
        <ele>2318.6000976562</ele>
        <time>2012-02-12T08:12:49Z</time>
      </trkpt>
      <trkpt lat="45.61635" lon="6.6608">
        <ele>2319.6000976562</ele>
        <time>2012-02-12T08:12:54Z</time>
      </trkpt>
      <trkpt lat="45.61639" lon="6.66083">
        <ele>2320.6000976562</ele>
        <time>2012-02-12T08:13:00Z</time>
      </trkpt>
      <trkpt lat="45.61643" lon="6.66086">
        <ele>2321</ele>
        <time>2012-02-12T08:13:06Z</time>
      </trkpt>
      <trkpt lat="45.61649" lon="6.66089">
        <ele>2321.6000976562</ele>
        <time>2012-02-12T08:13:17Z</time>
      </trkpt>
      <trkpt lat="45.61653" lon="6.66091">
        <ele>2322</ele>
        <time>2012-02-12T08:13:23Z</time>
      </trkpt>
      <trkpt lat="45.61656" lon="6.66092">
        <ele>2322.6000976562</ele>
        <time>2012-02-12T08:13:27Z</time>
      </trkpt>
      <trkpt lat="45.61662" lon="6.66093">
        <ele>2323.3999023438</ele>
        <time>2012-02-12T08:13:34Z</time>
      </trkpt>
      <trkpt lat="45.61666" lon="6.66093">
        <ele>2324.6000976562</ele>
        <time>2012-02-12T08:13:40Z</time>
      </trkpt>
      <trkpt lat="45.61669" lon="6.66093">
        <ele>2325.6000976562</ele>
        <time>2012-02-12T08:13:44Z</time>
      </trkpt>
      <trkpt lat="45.61674" lon="6.66093">
        <ele>2327</ele>
        <time>2012-02-12T08:13:51Z</time>
      </trkpt>
      <trkpt lat="45.61677" lon="6.66093">
        <ele>2328</ele>
        <time>2012-02-12T08:13:56Z</time>
      </trkpt>
      <trkpt lat="45.61687" lon="6.66092">
        <ele>2331.3999023438</ele>
        <time>2012-02-12T08:14:09Z</time>
      </trkpt>
      <trkpt lat="45.61691" lon="6.66091">
        <ele>2332.8000488281</ele>
        <time>2012-02-12T08:14:15Z</time>
      </trkpt>
      <trkpt lat="45.61696" lon="6.66089">
        <ele>2335</ele>
        <time>2012-02-12T08:14:22Z</time>
      </trkpt>
      <trkpt lat="45.61698" lon="6.66088">
        <ele>2336</ele>
        <time>2012-02-12T08:14:25Z</time>
      </trkpt>
      <trkpt lat="45.61705" lon="6.66086">
        <ele>2339.1999511719</ele>
        <time>2012-02-12T08:14:34Z</time>
      </trkpt>
      <trkpt lat="45.61712" lon="6.66085">
        <ele>2342.1999511719</ele>
        <time>2012-02-12T08:14:44Z</time>
      </trkpt>
      <trkpt lat="45.61725" lon="6.66084">
        <ele>2346.6000976562</ele>
        <time>2012-02-12T08:14:59Z</time>
      </trkpt>
      <trkpt lat="45.61733" lon="6.66084">
        <ele>2349.1999511719</ele>
        <time>2012-02-12T08:15:08Z</time>
      </trkpt>
      <trkpt lat="45.61742" lon="6.66084">
        <ele>2351.8000488281</ele>
        <time>2012-02-12T08:15:18Z</time>
      </trkpt>
      <trkpt lat="45.61748" lon="6.66084">
        <ele>2354.1999511719</ele>
        <time>2012-02-12T08:15:26Z</time>
      </trkpt>
      <trkpt lat="45.61757" lon="6.66084">
        <ele>2354.6000976562</ele>
        <time>2012-02-12T08:15:36Z</time>
      </trkpt>
      <trkpt lat="45.61759" lon="6.66084">
        <ele>2354.3999023438</ele>
        <time>2012-02-12T08:15:39Z</time>
      </trkpt>
      <trkpt lat="45.61764" lon="6.66084">
        <ele>2354.1999511719</ele>
        <time>2012-02-12T08:15:45Z</time>
      </trkpt>
      <trkpt lat="45.6177" lon="6.66085">
        <ele>2353.6000976562</ele>
        <time>2012-02-12T08:15:52Z</time>
      </trkpt>
      <trkpt lat="45.61781" lon="6.66083">
        <ele>2353.8000488281</ele>
        <time>2012-02-12T08:16:05Z</time>
      </trkpt>
      <trkpt lat="45.61787" lon="6.6608">
        <ele>2352.8000488281</ele>
        <time>2012-02-12T08:16:13Z</time>
      </trkpt>
      <trkpt lat="45.61793" lon="6.66079">
        <ele>2352.6000976562</ele>
        <time>2012-02-12T08:16:20Z</time>
      </trkpt>
      <trkpt lat="45.61798" lon="6.66076">
        <ele>2351.8000488281</ele>
        <time>2012-02-12T08:16:27Z</time>
      </trkpt>
      <trkpt lat="45.61802" lon="6.66075">
        <ele>2351.3999023438</ele>
        <time>2012-02-12T08:16:32Z</time>
      </trkpt>
      <trkpt lat="45.61805" lon="6.66075">
        <ele>2351.3999023438</ele>
        <time>2012-02-12T08:16:36Z</time>
      </trkpt>
      <trkpt lat="45.6181" lon="6.66075">
        <ele>2351.3999023438</ele>
        <time>2012-02-12T08:16:42Z</time>
      </trkpt>
      <trkpt lat="45.61816" lon="6.66071">
        <ele>2350.6000976562</ele>
        <time>2012-02-12T08:16:49Z</time>
      </trkpt>
      <trkpt lat="45.61821" lon="6.66067">
        <ele>2350</ele>
        <time>2012-02-12T08:16:56Z</time>
      </trkpt>
      <trkpt lat="45.61827" lon="6.66063">
        <ele>2349.1999511719</ele>
        <time>2012-02-12T08:17:04Z</time>
      </trkpt>
      <trkpt lat="45.61841" lon="6.66053">
        <ele>2348.8000488281</ele>
        <time>2012-02-12T08:17:19Z</time>
      </trkpt>
      <trkpt lat="45.61857" lon="6.66043">
        <ele>2349.1999511719</ele>
        <time>2012-02-12T08:17:31Z</time>
      </trkpt>
      <trkpt lat="45.61875" lon="6.66042">
        <ele>2350.8000488281</ele>
        <time>2012-02-12T08:17:45Z</time>
      </trkpt>
      <trkpt lat="45.61894" lon="6.66044">
        <ele>2353</ele>
        <time>2012-02-12T08:18:02Z</time>
      </trkpt>
      <trkpt lat="45.61907" lon="6.66047">
        <ele>2354.8000488281</ele>
        <time>2012-02-12T08:18:17Z</time>
      </trkpt>
      <trkpt lat="45.61913" lon="6.66049">
        <ele>2355.8000488281</ele>
        <time>2012-02-12T08:18:30Z</time>
      </trkpt>
      <trkpt lat="45.61914" lon="6.66049">
        <ele>2355.8000488281</ele>
        <time>2012-02-12T08:18:39Z</time>
      </trkpt>
      <trkpt lat="45.6192" lon="6.66048">
        <ele>2357</ele>
        <time>2012-02-12T08:18:48Z</time>
      </trkpt>
      <trkpt lat="45.61925" lon="6.66049">
        <ele>2358.8000488281</ele>
        <time>2012-02-12T08:18:57Z</time>
      </trkpt>
      <trkpt lat="45.61932" lon="6.66052">
        <ele>2361.1999511719</ele>
        <time>2012-02-12T08:19:07Z</time>
      </trkpt>
      <trkpt lat="45.61936" lon="6.66054">
        <ele>2363</ele>
        <time>2012-02-12T08:19:13Z</time>
      </trkpt>
      <trkpt lat="45.61944" lon="6.66056">
        <ele>2365.8000488281</ele>
        <time>2012-02-12T08:19:22Z</time>
      </trkpt>
      <trkpt lat="45.61954" lon="6.66058">
        <ele>2369.3999023438</ele>
        <time>2012-02-12T08:19:35Z</time>
      </trkpt>
      <trkpt lat="45.61961" lon="6.6606">
        <ele>2372</ele>
        <time>2012-02-12T08:19:43Z</time>
      </trkpt>
      <trkpt lat="45.61965" lon="6.66061">
        <ele>2373.8000488281</ele>
        <time>2012-02-12T08:19:49Z</time>
      </trkpt>
      <trkpt lat="45.61969" lon="6.66062">
        <ele>2375.1999511719</ele>
        <time>2012-02-12T08:19:54Z</time>
      </trkpt>
      <trkpt lat="45.61977" lon="6.66065">
        <ele>2378.8000488281</ele>
        <time>2012-02-12T08:20:06Z</time>
      </trkpt>
      <trkpt lat="45.61983" lon="6.66067">
        <ele>2381.3999023438</ele>
        <time>2012-02-12T08:20:16Z</time>
      </trkpt>
      <trkpt lat="45.61988" lon="6.66069">
        <ele>2383.6000976562</ele>
        <time>2012-02-12T08:20:26Z</time>
      </trkpt>
      <trkpt lat="45.61991" lon="6.66071">
        <ele>2385.1999511719</ele>
        <time>2012-02-12T08:20:30Z</time>
      </trkpt>
      <trkpt lat="45.61995" lon="6.66073">
        <ele>2387.3999023438</ele>
        <time>2012-02-12T08:20:37Z</time>
      </trkpt>
      <trkpt lat="45.61997" lon="6.66074">
        <ele>2388.3999023438</ele>
        <time>2012-02-12T08:20:41Z</time>
      </trkpt>
      <trkpt lat="45.61997" lon="6.66074">
        <ele>2388.6000976562</ele>
        <time>2012-02-12T08:20:45Z</time>
      </trkpt>
      <trkpt lat="45.62" lon="6.66076">
        <ele>2390</ele>
        <time>2012-02-12T08:20:50Z</time>
      </trkpt>
      <trkpt lat="45.62002" lon="6.66077">
        <ele>2391</ele>
        <time>2012-02-12T08:20:56Z</time>
      </trkpt>
      <trkpt lat="45.62005" lon="6.66079">
        <ele>2392.1999511719</ele>
        <time>2012-02-12T08:21:03Z</time>
      </trkpt>
      <trkpt lat="45.62006" lon="6.6608">
        <ele>2392.8000488281</ele>
        <time>2012-02-12T08:21:07Z</time>
      </trkpt>
      <trkpt lat="45.62007" lon="6.6608">
        <ele>2393.1999511719</ele>
        <time>2012-02-12T08:21:09Z</time>
      </trkpt>
      <trkpt lat="45.62009" lon="6.6608">
        <ele>2393.3999023438</ele>
        <time>2012-02-12T08:21:17Z</time>
      </trkpt>
      <trkpt lat="45.62011" lon="6.66081">
        <ele>2394.1999511719</ele>
        <time>2012-02-12T08:21:22Z</time>
      </trkpt>
      <trkpt lat="45.62013" lon="6.66081">
        <ele>2394.6000976562</ele>
        <time>2012-02-12T08:21:27Z</time>
      </trkpt>
      <trkpt lat="45.62016" lon="6.66082">
        <ele>2395.8000488281</ele>
        <time>2012-02-12T08:21:33Z</time>
      </trkpt>
      <trkpt lat="45.62018" lon="6.66082">
        <ele>2395.8000488281</ele>
        <time>2012-02-12T08:21:38Z</time>
      </trkpt>
      <trkpt lat="45.62022" lon="6.6608">
        <ele>2396</ele>
        <time>2012-02-12T08:21:44Z</time>
      </trkpt>
      <trkpt lat="45.62027" lon="6.66079">
        <ele>2396.6000976562</ele>
        <time>2012-02-12T08:21:50Z</time>
      </trkpt>
      <trkpt lat="45.62029" lon="6.66079">
        <ele>2396.8000488281</ele>
        <time>2012-02-12T08:21:52Z</time>
      </trkpt>
      <trkpt lat="45.62036" lon="6.66078">
        <ele>2398</ele>
        <time>2012-02-12T08:22:02Z</time>
      </trkpt>
      <trkpt lat="45.62042" lon="6.66077">
        <ele>2398.6000976562</ele>
        <time>2012-02-12T08:22:09Z</time>
      </trkpt>
      <trkpt lat="45.6205" lon="6.66077">
        <ele>2400</ele>
        <time>2012-02-12T08:22:18Z</time>
      </trkpt>
      <trkpt lat="45.62055" lon="6.66077">
        <ele>2401.1999511719</ele>
        <time>2012-02-12T08:22:24Z</time>
      </trkpt>
      <trkpt lat="45.62064" lon="6.66078">
        <ele>2402.8000488281</ele>
        <time>2012-02-12T08:22:33Z</time>
      </trkpt>
      <trkpt lat="45.62071" lon="6.66078">
        <ele>2404.3999023438</ele>
        <time>2012-02-12T08:22:41Z</time>
      </trkpt>
      <trkpt lat="45.62077" lon="6.66079">
        <ele>2405.6000976562</ele>
        <time>2012-02-12T08:22:48Z</time>
      </trkpt>
      <trkpt lat="45.62084" lon="6.66079">
        <ele>2407.1999511719</ele>
        <time>2012-02-12T08:22:57Z</time>
      </trkpt>
      <trkpt lat="45.6209" lon="6.66081">
        <ele>2408.1999511719</ele>
        <time>2012-02-12T08:23:05Z</time>
      </trkpt>
      <trkpt lat="45.62095" lon="6.66083">
        <ele>2409.1999511719</ele>
        <time>2012-02-12T08:23:13Z</time>
      </trkpt>
      <trkpt lat="45.62101" lon="6.66085">
        <ele>2409</ele>
        <time>2012-02-12T08:23:21Z</time>
      </trkpt>
      <trkpt lat="45.62106" lon="6.66087">
        <ele>2408.8000488281</ele>
        <time>2012-02-12T08:23:28Z</time>
      </trkpt>
      <trkpt lat="45.6211" lon="6.66088">
        <ele>2408.8000488281</ele>
        <time>2012-02-12T08:23:34Z</time>
      </trkpt>
      <trkpt lat="45.62116" lon="6.66091">
        <ele>2409</ele>
        <time>2012-02-12T08:23:44Z</time>
      </trkpt>
      <trkpt lat="45.6212" lon="6.66093">
        <ele>2409</ele>
        <time>2012-02-12T08:23:49Z</time>
      </trkpt>
      <trkpt lat="45.62125" lon="6.66095">
        <ele>2409.1999511719</ele>
        <time>2012-02-12T08:23:56Z</time>
      </trkpt>
      <trkpt lat="45.62133" lon="6.661">
        <ele>2409.8000488281</ele>
        <time>2012-02-12T08:24:08Z</time>
      </trkpt>
      <trkpt lat="45.62136" lon="6.66101">
        <ele>2410.1999511719</ele>
        <time>2012-02-12T08:24:13Z</time>
      </trkpt>
      <trkpt lat="45.62139" lon="6.66103">
        <ele>2410.6000976562</ele>
        <time>2012-02-12T08:24:18Z</time>
      </trkpt>
      <trkpt lat="45.62142" lon="6.66104">
        <ele>2411</ele>
        <time>2012-02-12T08:24:23Z</time>
      </trkpt>
      <trkpt lat="45.62146" lon="6.66105">
        <ele>2411.3999023438</ele>
        <time>2012-02-12T08:24:28Z</time>
      </trkpt>
      <trkpt lat="45.62151" lon="6.66106">
        <ele>2412.1999511719</ele>
        <time>2012-02-12T08:24:35Z</time>
      </trkpt>
      <trkpt lat="45.62154" lon="6.66107">
        <ele>2412.6000976562</ele>
        <time>2012-02-12T08:24:39Z</time>
      </trkpt>
      <trkpt lat="45.62161" lon="6.66108">
        <ele>2413.8000488281</ele>
        <time>2012-02-12T08:24:48Z</time>
      </trkpt>
      <trkpt lat="45.62169" lon="6.66111">
        <ele>2414.1999511719</ele>
        <time>2012-02-12T08:25:00Z</time>
      </trkpt>
      <trkpt lat="45.62175" lon="6.66112">
        <ele>2412.3999023438</ele>
        <time>2012-02-12T08:25:11Z</time>
      </trkpt>
      <trkpt lat="45.62175" lon="6.66112">
        <ele>2412.1999511719</ele>
        <time>2012-02-12T08:25:20Z</time>
      </trkpt>
      <trkpt lat="45.62175" lon="6.66112">
        <ele>2412.1999511719</ele>
        <time>2012-02-12T08:25:29Z</time>
      </trkpt>
      <trkpt lat="45.62175" lon="6.66113">
        <ele>2412.1999511719</ele>
        <time>2012-02-12T08:25:36Z</time>
      </trkpt>
      <trkpt lat="45.62175" lon="6.66113">
        <ele>2412.1999511719</ele>
        <time>2012-02-12T08:25:40Z</time>
      </trkpt>
      <trkpt lat="45.62173" lon="6.66113">
        <ele>2412.8000488281</ele>
        <time>2012-02-12T08:37:30Z</time>
      </trkpt>
      <trkpt lat="45.62173" lon="6.66113">
        <ele>2413</ele>
        <time>2012-02-12T08:37:37Z</time>
      </trkpt>
      <trkpt lat="45.62173" lon="6.66113">
        <ele>2413.1999511719</ele>
        <time>2012-02-12T08:37:54Z</time>
      </trkpt>
      <trkpt lat="45.62173" lon="6.66113">
        <ele>2413.1999511719</ele>
        <time>2012-02-12T08:38:02Z</time>
      </trkpt>
      <trkpt lat="45.62173" lon="6.66113">
        <ele>2413.1999511719</ele>
        <time>2012-02-12T08:38:09Z</time>
      </trkpt>
      <trkpt lat="45.62173" lon="6.66113">
        <ele>2413</ele>
        <time>2012-02-12T08:38:20Z</time>
      </trkpt>
      <trkpt lat="45.62173" lon="6.66113">
        <ele>2413</ele>
        <time>2012-02-12T08:38:28Z</time>
      </trkpt>
      <trkpt lat="45.62173" lon="6.66113">
        <ele>2413</ele>
        <time>2012-02-12T08:38:35Z</time>
      </trkpt>
      <trkpt lat="45.62173" lon="6.66113">
        <ele>2412.8000488281</ele>
        <time>2012-02-12T08:38:44Z</time>
      </trkpt>
      <trkpt lat="45.62173" lon="6.66112">
        <ele>2412.8000488281</ele>
        <time>2012-02-12T08:38:48Z</time>
      </trkpt>
      <trkpt lat="45.62172" lon="6.66113">
        <ele>2413.1999511719</ele>
        <time>2012-02-12T08:38:53Z</time>
      </trkpt>
      <trkpt lat="45.62172" lon="6.66113">
        <ele>2413.3999023438</ele>
        <time>2012-02-12T08:38:59Z</time>
      </trkpt>
      <trkpt lat="45.62171" lon="6.66113">
        <ele>2413.6000976562</ele>
        <time>2012-02-12T08:39:08Z</time>
      </trkpt>
      <trkpt lat="45.62162" lon="6.66113">
        <ele>2414.6000976562</ele>
        <time>2012-02-12T08:39:16Z</time>
      </trkpt>
      <trkpt lat="45.6215" lon="6.66108">
        <ele>2412.3999023438</ele>
        <time>2012-02-12T08:39:21Z</time>
      </trkpt>
      <trkpt lat="45.62146" lon="6.66106">
        <ele>2411.6000976562</ele>
        <time>2012-02-12T08:39:24Z</time>
      </trkpt>
      <trkpt lat="45.62145" lon="6.66106">
        <ele>2411.3999023438</ele>
        <time>2012-02-12T08:39:28Z</time>
      </trkpt>
      <trkpt lat="45.62138" lon="6.66106">
        <ele>2410.6000976562</ele>
        <time>2012-02-12T08:39:31Z</time>
      </trkpt>
      <trkpt lat="45.62131" lon="6.66105">
        <ele>2409.6000976562</ele>
        <time>2012-02-12T08:39:33Z</time>
      </trkpt>
      <trkpt lat="45.62123" lon="6.66101">
        <ele>2408.8000488281</ele>
        <time>2012-02-12T08:39:35Z</time>
      </trkpt>
      <trkpt lat="45.62118" lon="6.66094">
        <ele>2408.8000488281</ele>
        <time>2012-02-12T08:39:37Z</time>
      </trkpt>
      <trkpt lat="45.62111" lon="6.66087">
        <ele>2409</ele>
        <time>2012-02-12T08:39:40Z</time>
      </trkpt>
      <trkpt lat="45.62104" lon="6.66089">
        <ele>2408.6000976562</ele>
        <time>2012-02-12T08:39:42Z</time>
      </trkpt>
      <trkpt lat="45.62098" lon="6.66086">
        <ele>2408.8000488281</ele>
        <time>2012-02-12T08:39:44Z</time>
      </trkpt>
      <trkpt lat="45.62091" lon="6.66085">
        <ele>2408.8000488281</ele>
        <time>2012-02-12T08:39:46Z</time>
      </trkpt>
      <trkpt lat="45.6208" lon="6.66082">
        <ele>2407.6000976562</ele>
        <time>2012-02-12T08:39:49Z</time>
      </trkpt>
      <trkpt lat="45.62066" lon="6.66079">
        <ele>2403.8000488281</ele>
        <time>2012-02-12T08:39:52Z</time>
      </trkpt>
      <trkpt lat="45.62053" lon="6.66078">
        <ele>2400.8000488281</ele>
        <time>2012-02-12T08:39:56Z</time>
      </trkpt>
      <trkpt lat="45.62047" lon="6.66077">
        <ele>2399.3999023438</ele>
        <time>2012-02-12T08:40:03Z</time>
      </trkpt>
      <trkpt lat="45.62033" lon="6.66079">
        <ele>2397.6000976562</ele>
        <time>2012-02-12T08:40:09Z</time>
      </trkpt>
      <trkpt lat="45.62016" lon="6.66079">
        <ele>2394.3999023438</ele>
        <time>2012-02-12T08:40:14Z</time>
      </trkpt>
      <trkpt lat="45.62008" lon="6.66076">
        <ele>2391.6000976562</ele>
        <time>2012-02-12T08:40:18Z</time>
      </trkpt>
      <trkpt lat="45.62003" lon="6.66074">
        <ele>2390.3999023438</ele>
        <time>2012-02-12T08:40:20Z</time>
      </trkpt>
      <trkpt lat="45.61996" lon="6.6607">
        <ele>2386.8000488281</ele>
        <time>2012-02-12T08:40:22Z</time>
      </trkpt>
      <trkpt lat="45.61989" lon="6.66067">
        <ele>2383.3999023438</ele>
        <time>2012-02-12T08:40:24Z</time>
      </trkpt>
      <trkpt lat="45.61977" lon="6.66061">
        <ele>2377.3999023438</ele>
        <time>2012-02-12T08:40:27Z</time>
      </trkpt>
      <trkpt lat="45.61967" lon="6.66057">
        <ele>2373</ele>
        <time>2012-02-12T08:40:29Z</time>
      </trkpt>
      <trkpt lat="45.61959" lon="6.66057">
        <ele>2370.6000976562</ele>
        <time>2012-02-12T08:40:31Z</time>
      </trkpt>
      <trkpt lat="45.6195" lon="6.66053">
        <ele>2367</ele>
        <time>2012-02-12T08:40:33Z</time>
      </trkpt>
      <trkpt lat="45.61934" lon="6.66047">
        <ele>2360.8000488281</ele>
        <time>2012-02-12T08:40:36Z</time>
      </trkpt>
      <trkpt lat="45.61915" lon="6.66049">
        <ele>2356</ele>
        <time>2012-02-12T08:40:41Z</time>
      </trkpt>
      <trkpt lat="45.61904" lon="6.66049">
        <ele>2355</ele>
        <time>2012-02-12T08:40:43Z</time>
      </trkpt>
      <trkpt lat="45.61885" lon="6.66046">
        <ele>2352.3999023438</ele>
        <time>2012-02-12T08:40:46Z</time>
      </trkpt>
      <trkpt lat="45.61858" lon="6.66046">
        <ele>2349.6000976562</ele>
        <time>2012-02-12T08:40:51Z</time>
      </trkpt>
      <trkpt lat="45.61842" lon="6.66055">
        <ele>2349.1999511719</ele>
        <time>2012-02-12T08:41:01Z</time>
      </trkpt>
      <trkpt lat="45.61838" lon="6.66057">
        <ele>2349</ele>
        <time>2012-02-12T08:41:05Z</time>
      </trkpt>
      <trkpt lat="45.61826" lon="6.66066">
        <ele>2349.8000488281</ele>
        <time>2012-02-12T08:41:15Z</time>
      </trkpt>
      <trkpt lat="45.61819" lon="6.6607">
        <ele>2350.1999511719</ele>
        <time>2012-02-12T08:41:18Z</time>
      </trkpt>
      <trkpt lat="45.61817" lon="6.66069">
        <ele>2350.1999511719</ele>
        <time>2012-02-12T08:41:20Z</time>
      </trkpt>
      <trkpt lat="45.61816" lon="6.66069">
        <ele>2350.1999511719</ele>
        <time>2012-02-12T08:41:26Z</time>
      </trkpt>
      <trkpt lat="45.61817" lon="6.66068">
        <ele>2350</ele>
        <time>2012-02-12T08:41:39Z</time>
      </trkpt>
      <trkpt lat="45.61811" lon="6.66069">
        <ele>2350.1999511719</ele>
        <time>2012-02-12T08:41:52Z</time>
      </trkpt>
      <trkpt lat="45.61805" lon="6.66073">
        <ele>2351</ele>
        <time>2012-02-12T08:41:54Z</time>
      </trkpt>
      <trkpt lat="45.61793" lon="6.66076">
        <ele>2352</ele>
        <time>2012-02-12T08:41:57Z</time>
      </trkpt>
      <trkpt lat="45.61772" lon="6.66073">
        <ele>2351.6000976562</ele>
        <time>2012-02-12T08:42:02Z</time>
      </trkpt>
      <trkpt lat="45.6176" lon="6.66069">
        <ele>2350.6000976562</ele>
        <time>2012-02-12T08:42:05Z</time>
      </trkpt>
      <trkpt lat="45.61752" lon="6.66067">
        <ele>2350.1999511719</ele>
        <time>2012-02-12T08:42:07Z</time>
      </trkpt>
      <trkpt lat="45.61735" lon="6.66061">
        <ele>2344.3999023438</ele>
        <time>2012-02-12T08:42:11Z</time>
      </trkpt>
      <trkpt lat="45.61718" lon="6.66057">
        <ele>2339.1999511719</ele>
        <time>2012-02-12T08:42:15Z</time>
      </trkpt>
      <trkpt lat="45.61706" lon="6.66052">
        <ele>2335.1999511719</ele>
        <time>2012-02-12T08:42:19Z</time>
      </trkpt>
      <trkpt lat="45.61692" lon="6.66046">
        <ele>2331.1999511719</ele>
        <time>2012-02-12T08:42:24Z</time>
      </trkpt>
      <trkpt lat="45.61684" lon="6.66047">
        <ele>2329.6000976562</ele>
        <time>2012-02-12T08:42:27Z</time>
      </trkpt>
      <trkpt lat="45.61674" lon="6.66047">
        <ele>2327.1999511719</ele>
        <time>2012-02-12T08:42:30Z</time>
      </trkpt>
      <trkpt lat="45.61666" lon="6.66047">
        <ele>2325.6000976562</ele>
        <time>2012-02-12T08:42:32Z</time>
      </trkpt>
      <trkpt lat="45.61657" lon="6.66044">
        <ele>2323.3999023438</ele>
        <time>2012-02-12T08:42:34Z</time>
      </trkpt>
      <trkpt lat="45.6165" lon="6.66046">
        <ele>2321.8000488281</ele>
        <time>2012-02-12T08:42:36Z</time>
      </trkpt>
      <trkpt lat="45.61642" lon="6.66042">
        <ele>2319.8000488281</ele>
        <time>2012-02-12T08:42:38Z</time>
      </trkpt>
      <trkpt lat="45.61633" lon="6.66049">
        <ele>2318</ele>
        <time>2012-02-12T08:42:41Z</time>
      </trkpt>
      <trkpt lat="45.61626" lon="6.66045">
        <ele>2316.1999511719</ele>
        <time>2012-02-12T08:42:43Z</time>
      </trkpt>
      <trkpt lat="45.61618" lon="6.66048">
        <ele>2314.1999511719</ele>
        <time>2012-02-12T08:42:45Z</time>
      </trkpt>
      <trkpt lat="45.6161" lon="6.6605">
        <ele>2312.3999023438</ele>
        <time>2012-02-12T08:42:47Z</time>
      </trkpt>
      <trkpt lat="45.61604" lon="6.66044">
        <ele>2310.8000488281</ele>
        <time>2012-02-12T08:42:49Z</time>
      </trkpt>
      <trkpt lat="45.61596" lon="6.66046">
        <ele>2309</ele>
        <time>2012-02-12T08:42:51Z</time>
      </trkpt>
      <trkpt lat="45.61584" lon="6.66049">
        <ele>2306.1999511719</ele>
        <time>2012-02-12T08:42:54Z</time>
      </trkpt>
      <trkpt lat="45.61578" lon="6.66045">
        <ele>2304</ele>
        <time>2012-02-12T08:42:56Z</time>
      </trkpt>
      <trkpt lat="45.61571" lon="6.66045">
        <ele>2301.3999023438</ele>
        <time>2012-02-12T08:42:58Z</time>
      </trkpt>
      <trkpt lat="45.61562" lon="6.66035">
        <ele>2298</ele>
        <time>2012-02-12T08:43:01Z</time>
      </trkpt>
      <trkpt lat="45.61554" lon="6.66034">
        <ele>2295</ele>
        <time>2012-02-12T08:43:03Z</time>
      </trkpt>
      <trkpt lat="45.61548" lon="6.66027">
        <ele>2292.3999023438</ele>
        <time>2012-02-12T08:43:05Z</time>
      </trkpt>
      <trkpt lat="45.61536" lon="6.66025">
        <ele>2287.6000976562</ele>
        <time>2012-02-12T08:43:08Z</time>
      </trkpt>
      <trkpt lat="45.61529" lon="6.6602">
        <ele>2284.8000488281</ele>
        <time>2012-02-12T08:43:10Z</time>
      </trkpt>
      <trkpt lat="45.61519" lon="6.66019">
        <ele>2281</ele>
        <time>2012-02-12T08:43:12Z</time>
      </trkpt>
      <trkpt lat="45.61507" lon="6.66015">
        <ele>2276.3999023438</ele>
        <time>2012-02-12T08:43:14Z</time>
      </trkpt>
      <trkpt lat="45.61501" lon="6.66016">
        <ele>2274</ele>
        <time>2012-02-12T08:43:16Z</time>
      </trkpt>
      <trkpt lat="45.61481" lon="6.66023">
        <ele>2268.6000976562</ele>
        <time>2012-02-12T08:43:25Z</time>
      </trkpt>
      <trkpt lat="45.61474" lon="6.6603">
        <ele>2267</ele>
        <time>2012-02-12T08:43:35Z</time>
      </trkpt>
      <trkpt lat="45.61474" lon="6.6603">
        <ele>2267</ele>
        <time>2012-02-12T08:43:48Z</time>
      </trkpt>
      <trkpt lat="45.61474" lon="6.6603">
        <ele>2267.1999511719</ele>
        <time>2012-02-12T08:43:53Z</time>
      </trkpt>
      <trkpt lat="45.61474" lon="6.6603">
        <ele>2267</ele>
        <time>2012-02-12T08:43:55Z</time>
      </trkpt>
      <trkpt lat="45.61473" lon="6.66031">
        <ele>2266.8000488281</ele>
        <time>2012-02-12T08:43:58Z</time>
      </trkpt>
      <trkpt lat="45.61468" lon="6.66034">
        <ele>2265.3999023438</ele>
        <time>2012-02-12T08:44:01Z</time>
      </trkpt>
      <trkpt lat="45.61465" lon="6.66036">
        <ele>2264.8000488281</ele>
        <time>2012-02-12T08:44:03Z</time>
      </trkpt>
      <trkpt lat="45.61461" lon="6.66034">
        <ele>2263.6000976562</ele>
        <time>2012-02-12T08:44:05Z</time>
      </trkpt>
      <trkpt lat="45.6146" lon="6.66029">
        <ele>2263</ele>
        <time>2012-02-12T08:44:07Z</time>
      </trkpt>
      <trkpt lat="45.61455" lon="6.66033">
        <ele>2261.8000488281</ele>
        <time>2012-02-12T08:44:09Z</time>
      </trkpt>
      <trkpt lat="45.61451" lon="6.66042">
        <ele>2260.8000488281</ele>
        <time>2012-02-12T08:44:12Z</time>
      </trkpt>
      <trkpt lat="45.6145" lon="6.66048">
        <ele>2260.1999511719</ele>
        <time>2012-02-12T08:44:14Z</time>
      </trkpt>
      <trkpt lat="45.61448" lon="6.66055">
        <ele>2259.8000488281</ele>
        <time>2012-02-12T08:44:16Z</time>
      </trkpt>
      <trkpt lat="45.6144" lon="6.66056">
        <ele>2257.6000976562</ele>
        <time>2012-02-12T08:44:19Z</time>
      </trkpt>
      <trkpt lat="45.61435" lon="6.66044">
        <ele>2256.1999511719</ele>
        <time>2012-02-12T08:44:22Z</time>
      </trkpt>
      <trkpt lat="45.61431" lon="6.66029">
        <ele>2255.3999023438</ele>
        <time>2012-02-12T08:44:25Z</time>
      </trkpt>
      <trkpt lat="45.61427" lon="6.66016">
        <ele>2254.1999511719</ele>
        <time>2012-02-12T08:44:28Z</time>
      </trkpt>
      <trkpt lat="45.6142" lon="6.66019">
        <ele>2252.3999023438</ele>
        <time>2012-02-12T08:44:30Z</time>
      </trkpt>
      <trkpt lat="45.61408" lon="6.66015">
        <ele>2249.3999023438</ele>
        <time>2012-02-12T08:44:33Z</time>
      </trkpt>
      <trkpt lat="45.61399" lon="6.66019">
        <ele>2247.1999511719</ele>
        <time>2012-02-12T08:44:35Z</time>
      </trkpt>
      <trkpt lat="45.61389" lon="6.66016">
        <ele>2244.8000488281</ele>
        <time>2012-02-12T08:44:37Z</time>
      </trkpt>
      <trkpt lat="45.6138" lon="6.66019">
        <ele>2242.3999023438</ele>
        <time>2012-02-12T08:44:39Z</time>
      </trkpt>
      <trkpt lat="45.6137" lon="6.66021">
        <ele>2239.8000488281</ele>
        <time>2012-02-12T08:44:41Z</time>
      </trkpt>
      <trkpt lat="45.6136" lon="6.66013">
        <ele>2238</ele>
        <time>2012-02-12T08:44:43Z</time>
      </trkpt>
      <trkpt lat="45.61343" lon="6.66005">
        <ele>2234.6000976562</ele>
        <time>2012-02-12T08:44:46Z</time>
      </trkpt>
      <trkpt lat="45.61334" lon="6.65999">
        <ele>2233.1999511719</ele>
        <time>2012-02-12T08:44:48Z</time>
      </trkpt>
      <trkpt lat="45.61322" lon="6.65995">
        <ele>2229.3999023438</ele>
        <time>2012-02-12T08:44:51Z</time>
      </trkpt>
      <trkpt lat="45.6131" lon="6.65984">
        <ele>2225.3999023438</ele>
        <time>2012-02-12T08:44:54Z</time>
      </trkpt>
      <trkpt lat="45.61306" lon="6.65971">
        <ele>2223.1999511719</ele>
        <time>2012-02-12T08:44:58Z</time>
      </trkpt>
      <trkpt lat="45.61301" lon="6.65958">
        <ele>2221</ele>
        <time>2012-02-12T08:45:01Z</time>
      </trkpt>
      <trkpt lat="45.61295" lon="6.65953">
        <ele>2219.1999511719</ele>
        <time>2012-02-12T08:45:03Z</time>
      </trkpt>
      <trkpt lat="45.61287" lon="6.65944">
        <ele>2216.6000976562</ele>
        <time>2012-02-12T08:45:06Z</time>
      </trkpt>
      <trkpt lat="45.6128" lon="6.65942">
        <ele>2214.8000488281</ele>
        <time>2012-02-12T08:45:08Z</time>
      </trkpt>
      <trkpt lat="45.61269" lon="6.65944">
        <ele>2212.6000976562</ele>
        <time>2012-02-12T08:45:10Z</time>
      </trkpt>
      <trkpt lat="45.61263" lon="6.65938">
        <ele>2210.8000488281</ele>
        <time>2012-02-12T08:45:12Z</time>
      </trkpt>
      <trkpt lat="45.61246" lon="6.6593">
        <ele>2206.1999511719</ele>
        <time>2012-02-12T08:45:16Z</time>
      </trkpt>
      <trkpt lat="45.61236" lon="6.65933">
        <ele>2203.1999511719</ele>
        <time>2012-02-12T08:45:19Z</time>
      </trkpt>
      <trkpt lat="45.61217" lon="6.65944">
        <ele>2197.6000976562</ele>
        <time>2012-02-12T08:45:25Z</time>
      </trkpt>
      <trkpt lat="45.61208" lon="6.6595">
        <ele>2195</ele>
        <time>2012-02-12T08:45:28Z</time>
      </trkpt>
      <trkpt lat="45.61206" lon="6.65953">
        <ele>2194.6000976562</ele>
        <time>2012-02-12T08:45:42Z</time>
      </trkpt>
      <trkpt lat="45.61206" lon="6.65953">
        <ele>2194.3999023438</ele>
        <time>2012-02-12T08:45:49Z</time>
      </trkpt>
      <trkpt lat="45.61207" lon="6.65953">
        <ele>2194.6000976562</ele>
        <time>2012-02-12T08:45:58Z</time>
      </trkpt>
      <trkpt lat="45.61207" lon="6.65953">
        <ele>2194.6000976562</ele>
        <time>2012-02-12T08:46:04Z</time>
      </trkpt>
      <trkpt lat="45.61206" lon="6.65954">
        <ele>2194.3999023438</ele>
        <time>2012-02-12T08:46:20Z</time>
      </trkpt>
      <trkpt lat="45.61202" lon="6.65957">
        <ele>2193</ele>
        <time>2012-02-12T08:46:27Z</time>
      </trkpt>
      <trkpt lat="45.61195" lon="6.65951">
        <ele>2191</ele>
        <time>2012-02-12T08:46:30Z</time>
      </trkpt>
      <trkpt lat="45.61193" lon="6.65945">
        <ele>2190.1999511719</ele>
        <time>2012-02-12T08:46:32Z</time>
      </trkpt>
      <trkpt lat="45.61189" lon="6.65946">
        <ele>2188.8000488281</ele>
        <time>2012-02-12T08:46:34Z</time>
      </trkpt>
      <trkpt lat="45.61185" lon="6.65949">
        <ele>2187.6000976562</ele>
        <time>2012-02-12T08:46:36Z</time>
      </trkpt>
      <trkpt lat="45.6118" lon="6.65946">
        <ele>2186</ele>
        <time>2012-02-12T08:46:38Z</time>
      </trkpt>
      <trkpt lat="45.61175" lon="6.6594">
        <ele>2184.3999023438</ele>
        <time>2012-02-12T08:46:42Z</time>
      </trkpt>
      <trkpt lat="45.61171" lon="6.65946">
        <ele>2183.1999511719</ele>
        <time>2012-02-12T08:46:45Z</time>
      </trkpt>
      <trkpt lat="45.61163" lon="6.6595">
        <ele>2180.6000976562</ele>
        <time>2012-02-12T08:46:47Z</time>
      </trkpt>
      <trkpt lat="45.61157" lon="6.65947">
        <ele>2178.1999511719</ele>
        <time>2012-02-12T08:46:49Z</time>
      </trkpt>
      <trkpt lat="45.6115" lon="6.6595">
        <ele>2175.6000976562</ele>
        <time>2012-02-12T08:46:51Z</time>
      </trkpt>
      <trkpt lat="45.61144" lon="6.65947">
        <ele>2173.1999511719</ele>
        <time>2012-02-12T08:46:53Z</time>
      </trkpt>
      <trkpt lat="45.61139" lon="6.65954">
        <ele>2171.3999023438</ele>
        <time>2012-02-12T08:46:56Z</time>
      </trkpt>
      <trkpt lat="45.61134" lon="6.6596">
        <ele>2169.6000976562</ele>
        <time>2012-02-12T08:46:58Z</time>
      </trkpt>
      <trkpt lat="45.61128" lon="6.65957">
        <ele>2167.1999511719</ele>
        <time>2012-02-12T08:47:00Z</time>
      </trkpt>
      <trkpt lat="45.61123" lon="6.65948">
        <ele>2165</ele>
        <time>2012-02-12T08:47:02Z</time>
      </trkpt>
      <trkpt lat="45.61117" lon="6.65944">
        <ele>2162.6000976562</ele>
        <time>2012-02-12T08:47:04Z</time>
      </trkpt>
      <trkpt lat="45.61112" lon="6.6594">
        <ele>2160.6000976562</ele>
        <time>2012-02-12T08:47:06Z</time>
      </trkpt>
      <trkpt lat="45.61103" lon="6.65936">
        <ele>2156.8000488281</ele>
        <time>2012-02-12T08:47:08Z</time>
      </trkpt>
      <trkpt lat="45.61097" lon="6.65932">
        <ele>2154.3999023438</ele>
        <time>2012-02-12T08:47:10Z</time>
      </trkpt>
      <trkpt lat="45.61091" lon="6.65939">
        <ele>2152.1999511719</ele>
        <time>2012-02-12T08:47:13Z</time>
      </trkpt>
      <trkpt lat="45.61086" lon="6.65936">
        <ele>2150</ele>
        <time>2012-02-12T08:47:15Z</time>
      </trkpt>
      <trkpt lat="45.61082" lon="6.65941">
        <ele>2148.8000488281</ele>
        <time>2012-02-12T08:47:17Z</time>
      </trkpt>
      <trkpt lat="45.61081" lon="6.65944">
        <ele>2148.3999023438</ele>
        <time>2012-02-12T08:47:20Z</time>
      </trkpt>
      <trkpt lat="45.61076" lon="6.65949">
        <ele>2147</ele>
        <time>2012-02-12T08:47:22Z</time>
      </trkpt>
      <trkpt lat="45.61069" lon="6.65949">
        <ele>2144.8000488281</ele>
        <time>2012-02-12T08:47:24Z</time>
      </trkpt>
      <trkpt lat="45.61066" lon="6.6596">
        <ele>2144</ele>
        <time>2012-02-12T08:47:27Z</time>
      </trkpt>
      <trkpt lat="45.6106" lon="6.65975">
        <ele>2142.8000488281</ele>
        <time>2012-02-12T08:47:32Z</time>
      </trkpt>
      <trkpt lat="45.61056" lon="6.65977">
        <ele>2141.1999511719</ele>
        <time>2012-02-12T08:47:34Z</time>
      </trkpt>
      <trkpt lat="45.61055" lon="6.65974">
        <ele>2140.8000488281</ele>
        <time>2012-02-12T08:47:38Z</time>
      </trkpt>
      <trkpt lat="45.61055" lon="6.65973">
        <ele>2140.8000488281</ele>
        <time>2012-02-12T08:47:47Z</time>
      </trkpt>
      <trkpt lat="45.61053" lon="6.6597">
        <ele>2139.8000488281</ele>
        <time>2012-02-12T08:47:52Z</time>
      </trkpt>
      <trkpt lat="45.61046" lon="6.65965">
        <ele>2137</ele>
        <time>2012-02-12T08:47:54Z</time>
      </trkpt>
      <trkpt lat="45.6103" lon="6.65967">
        <ele>2131.6000976562</ele>
        <time>2012-02-12T08:47:59Z</time>
      </trkpt>
      <trkpt lat="45.61023" lon="6.6596">
        <ele>2129.1999511719</ele>
        <time>2012-02-12T08:48:01Z</time>
      </trkpt>
      <trkpt lat="45.61015" lon="6.65958">
        <ele>2126</ele>
        <time>2012-02-12T08:48:03Z</time>
      </trkpt>
      <trkpt lat="45.61005" lon="6.65956">
        <ele>2122.6000976562</ele>
        <time>2012-02-12T08:48:05Z</time>
      </trkpt>
      <trkpt lat="45.60995" lon="6.65949">
        <ele>2119.3999023438</ele>
        <time>2012-02-12T08:48:07Z</time>
      </trkpt>
      <trkpt lat="45.60984" lon="6.65938">
        <ele>2115.8000488281</ele>
        <time>2012-02-12T08:48:10Z</time>
      </trkpt>
      <trkpt lat="45.6098" lon="6.65929">
        <ele>2114.1999511719</ele>
        <time>2012-02-12T08:48:13Z</time>
      </trkpt>
      <trkpt lat="45.60978" lon="6.6593">
        <ele>2113.8000488281</ele>
        <time>2012-02-12T08:48:15Z</time>
      </trkpt>
      <trkpt lat="45.60969" lon="6.65933">
        <ele>2111</ele>
        <time>2012-02-12T08:48:19Z</time>
      </trkpt>
      <trkpt lat="45.60962" lon="6.6593">
        <ele>2108.8000488281</ele>
        <time>2012-02-12T08:48:23Z</time>
      </trkpt>
      <trkpt lat="45.60959" lon="6.65923">
        <ele>2108</ele>
        <time>2012-02-12T08:48:28Z</time>
      </trkpt>
      <trkpt lat="45.60956" lon="6.65923">
        <ele>2107</ele>
        <time>2012-02-12T08:48:30Z</time>
      </trkpt>
      <trkpt lat="45.60952" lon="6.65929">
        <ele>2106</ele>
        <time>2012-02-12T08:48:32Z</time>
      </trkpt>
      <trkpt lat="45.60948" lon="6.65942">
        <ele>2105.1999511719</ele>
        <time>2012-02-12T08:48:35Z</time>
      </trkpt>
      <trkpt lat="45.60941" lon="6.65947">
        <ele>2103</ele>
        <time>2012-02-12T08:48:37Z</time>
      </trkpt>
      <trkpt lat="45.60928" lon="6.65949">
        <ele>2099.1999511719</ele>
        <time>2012-02-12T08:48:41Z</time>
      </trkpt>
      <trkpt lat="45.60929" lon="6.65953">
        <ele>2099.6000976562</ele>
        <time>2012-02-12T08:48:43Z</time>
      </trkpt>
      <trkpt lat="45.60926" lon="6.65963">
        <ele>2099</ele>
        <time>2012-02-12T08:48:45Z</time>
      </trkpt>
      <trkpt lat="45.60919" lon="6.65981">
        <ele>2097.1999511719</ele>
        <time>2012-02-12T08:48:47Z</time>
      </trkpt>
      <trkpt lat="45.60912" lon="6.65998">
        <ele>2095.6000976562</ele>
        <time>2012-02-12T08:48:49Z</time>
      </trkpt>
      <trkpt lat="45.609" lon="6.66016">
        <ele>2093</ele>
        <time>2012-02-12T08:48:52Z</time>
      </trkpt>
      <trkpt lat="45.60884" lon="6.66026">
        <ele>2089</ele>
        <time>2012-02-12T08:48:57Z</time>
      </trkpt>
      <trkpt lat="45.60874" lon="6.66035">
        <ele>2086.6000976562</ele>
        <time>2012-02-12T08:49:01Z</time>
      </trkpt>
      <trkpt lat="45.60866" lon="6.66045">
        <ele>2085</ele>
        <time>2012-02-12T08:49:04Z</time>
      </trkpt>
      <trkpt lat="45.60853" lon="6.66049">
        <ele>2081.3999023438</ele>
        <time>2012-02-12T08:49:07Z</time>
      </trkpt>
      <trkpt lat="45.60848" lon="6.66056">
        <ele>2080.3999023438</ele>
        <time>2012-02-12T08:49:09Z</time>
      </trkpt>
      <trkpt lat="45.60844" lon="6.66065">
        <ele>2080</ele>
        <time>2012-02-12T08:49:18Z</time>
      </trkpt>
      <trkpt lat="45.6084" lon="6.66065">
        <ele>2078.8000488281</ele>
        <time>2012-02-12T08:49:22Z</time>
      </trkpt>
      <trkpt lat="45.60833" lon="6.66053">
        <ele>2075.6000976562</ele>
        <time>2012-02-12T08:49:25Z</time>
      </trkpt>
      <trkpt lat="45.60829" lon="6.66034">
        <ele>2073.1999511719</ele>
        <time>2012-02-12T08:49:28Z</time>
      </trkpt>
      <trkpt lat="45.60828" lon="6.6602">
        <ele>2071.8000488281</ele>
        <time>2012-02-12T08:49:30Z</time>
      </trkpt>
      <trkpt lat="45.60825" lon="6.66003">
        <ele>2069.8000488281</ele>
        <time>2012-02-12T08:49:32Z</time>
      </trkpt>
      <trkpt lat="45.60823" lon="6.65985">
        <ele>2068</ele>
        <time>2012-02-12T08:49:34Z</time>
      </trkpt>
      <trkpt lat="45.60817" lon="6.65967">
        <ele>2065.3999023438</ele>
        <time>2012-02-12T08:49:36Z</time>
      </trkpt>
      <trkpt lat="45.60811" lon="6.65952">
        <ele>2062.8000488281</ele>
        <time>2012-02-12T08:49:38Z</time>
      </trkpt>
      <trkpt lat="45.60803" lon="6.65945">
        <ele>2060.6000976562</ele>
        <time>2012-02-12T08:49:41Z</time>
      </trkpt>
      <trkpt lat="45.60786" lon="6.65938">
        <ele>2056.1999511719</ele>
        <time>2012-02-12T08:49:47Z</time>
      </trkpt>
      <trkpt lat="45.60775" lon="6.65931">
        <ele>2053.1999511719</ele>
        <time>2012-02-12T08:49:50Z</time>
      </trkpt>
      <trkpt lat="45.60774" lon="6.65925">
        <ele>2052.6000976562</ele>
        <time>2012-02-12T08:49:54Z</time>
      </trkpt>
      <trkpt lat="45.60768" lon="6.65918">
        <ele>2051.1999511719</ele>
        <time>2012-02-12T08:49:57Z</time>
      </trkpt>
      <trkpt lat="45.60767" lon="6.65918">
        <ele>2050.8000488281</ele>
        <time>2012-02-12T08:50:04Z</time>
      </trkpt>
      <trkpt lat="45.60761" lon="6.65922">
        <ele>2049.6000976562</ele>
        <time>2012-02-12T08:50:07Z</time>
      </trkpt>
      <trkpt lat="45.60748" lon="6.65928">
        <ele>2046.8000488281</ele>
        <time>2012-02-12T08:50:11Z</time>
      </trkpt>
      <trkpt lat="45.60737" lon="6.65933">
        <ele>2043.8000488281</ele>
        <time>2012-02-12T08:50:14Z</time>
      </trkpt>
      <trkpt lat="45.60727" lon="6.65935">
        <ele>2041.4000244141</ele>
        <time>2012-02-12T08:50:16Z</time>
      </trkpt>
      <trkpt lat="45.6072" lon="6.65941">
        <ele>2039.4000244141</ele>
        <time>2012-02-12T08:50:18Z</time>
      </trkpt>
      <trkpt lat="45.60709" lon="6.65946">
        <ele>2036.8000488281</ele>
        <time>2012-02-12T08:50:21Z</time>
      </trkpt>
      <trkpt lat="45.60699" lon="6.6595">
        <ele>2034.4000244141</ele>
        <time>2012-02-12T08:50:24Z</time>
      </trkpt>
      <trkpt lat="45.6069" lon="6.65948">
        <ele>2032</ele>
        <time>2012-02-12T08:50:26Z</time>
      </trkpt>
      <trkpt lat="45.60682" lon="6.65952">
        <ele>2030.1999511719</ele>
        <time>2012-02-12T08:50:28Z</time>
      </trkpt>
      <trkpt lat="45.60671" lon="6.65949">
        <ele>2027.4000244141</ele>
        <time>2012-02-12T08:50:31Z</time>
      </trkpt>
      <trkpt lat="45.60667" lon="6.65946">
        <ele>2026.1999511719</ele>
        <time>2012-02-12T08:50:34Z</time>
      </trkpt>
      <trkpt lat="45.60668" lon="6.65946">
        <ele>2026.4000244141</ele>
        <time>2012-02-12T08:50:42Z</time>
      </trkpt>
      <trkpt lat="45.60667" lon="6.65945">
        <ele>2026.1999511719</ele>
        <time>2012-02-12T08:50:48Z</time>
      </trkpt>
      <trkpt lat="45.60668" lon="6.65945">
        <ele>2026.1999511719</ele>
        <time>2012-02-12T08:50:59Z</time>
      </trkpt>
      <trkpt lat="45.60668" lon="6.65945">
        <ele>2026.1999511719</ele>
        <time>2012-02-12T08:51:04Z</time>
      </trkpt>
      <trkpt lat="45.60667" lon="6.65943">
        <ele>2026</ele>
        <time>2012-02-12T08:51:15Z</time>
      </trkpt>
      <trkpt lat="45.60665" lon="6.65942">
        <ele>2025.4000244141</ele>
        <time>2012-02-12T08:51:19Z</time>
      </trkpt>
      <trkpt lat="45.60654" lon="6.65945">
        <ele>2022.1999511719</ele>
        <time>2012-02-12T08:51:24Z</time>
      </trkpt>
      <trkpt lat="45.6065" lon="6.65946">
        <ele>2021.1999511719</ele>
        <time>2012-02-12T08:51:26Z</time>
      </trkpt>
      <trkpt lat="45.60641" lon="6.65944">
        <ele>2018.4000244141</ele>
        <time>2012-02-12T08:51:29Z</time>
      </trkpt>
      <trkpt lat="45.60634" lon="6.65943">
        <ele>2016.1999511719</ele>
        <time>2012-02-12T08:51:31Z</time>
      </trkpt>
      <trkpt lat="45.60628" lon="6.65944">
        <ele>2014.4000244141</ele>
        <time>2012-02-12T08:51:33Z</time>
      </trkpt>
      <trkpt lat="45.60619" lon="6.65941">
        <ele>2011.5999755859</ele>
        <time>2012-02-12T08:51:36Z</time>
      </trkpt>
      <trkpt lat="45.60614" lon="6.65936">
        <ele>2010</ele>
        <time>2012-02-12T08:51:39Z</time>
      </trkpt>
      <trkpt lat="45.60612" lon="6.65929">
        <ele>2009.4000244141</ele>
        <time>2012-02-12T08:51:41Z</time>
      </trkpt>
      <trkpt lat="45.60608" lon="6.65921">
        <ele>2008.1999511719</ele>
        <time>2012-02-12T08:51:43Z</time>
      </trkpt>
      <trkpt lat="45.60603" lon="6.65919">
        <ele>2006.8000488281</ele>
        <time>2012-02-12T08:51:45Z</time>
      </trkpt>
      <trkpt lat="45.60593" lon="6.65916">
        <ele>2003.5999755859</ele>
        <time>2012-02-12T08:51:50Z</time>
      </trkpt>
      <trkpt lat="45.60592" lon="6.65915">
        <ele>2003.1999511719</ele>
        <time>2012-02-12T08:51:54Z</time>
      </trkpt>
      <trkpt lat="45.60587" lon="6.65914">
        <ele>2001.5999755859</ele>
        <time>2012-02-12T08:52:00Z</time>
      </trkpt>
      <trkpt lat="45.60581" lon="6.6591">
        <ele>1999.5999755859</ele>
        <time>2012-02-12T08:52:02Z</time>
      </trkpt>
      <trkpt lat="45.60576" lon="6.65902">
        <ele>1997.5999755859</ele>
        <time>2012-02-12T08:52:04Z</time>
      </trkpt>
      <trkpt lat="45.60569" lon="6.65887">
        <ele>1994</ele>
        <time>2012-02-12T08:52:07Z</time>
      </trkpt>
      <trkpt lat="45.60565" lon="6.65877">
        <ele>1991.8000488281</ele>
        <time>2012-02-12T08:52:09Z</time>
      </trkpt>
      <trkpt lat="45.60564" lon="6.65862">
        <ele>1989.8000488281</ele>
        <time>2012-02-12T08:52:12Z</time>
      </trkpt>
      <trkpt lat="45.60564" lon="6.65849">
        <ele>1988.4000244141</ele>
        <time>2012-02-12T08:52:14Z</time>
      </trkpt>
      <trkpt lat="45.60563" lon="6.65837">
        <ele>1987</ele>
        <time>2012-02-12T08:52:16Z</time>
      </trkpt>
      <trkpt lat="45.60567" lon="6.65824">
        <ele>1985.8000488281</ele>
        <time>2012-02-12T08:52:19Z</time>
      </trkpt>
      <trkpt lat="45.60571" lon="6.65812">
        <ele>1984.1999511719</ele>
        <time>2012-02-12T08:52:22Z</time>
      </trkpt>
      <trkpt lat="45.60576" lon="6.65797">
        <ele>1982.8000488281</ele>
        <time>2012-02-12T08:52:25Z</time>
      </trkpt>
      <trkpt lat="45.60581" lon="6.65785">
        <ele>1981.5999755859</ele>
        <time>2012-02-12T08:52:29Z</time>
      </trkpt>
      <trkpt lat="45.6058" lon="6.6578">
        <ele>1980.4000244141</ele>
        <time>2012-02-12T08:52:34Z</time>
      </trkpt>
      <trkpt lat="45.60569" lon="6.65775">
        <ele>1976.4000244141</ele>
        <time>2012-02-12T08:52:37Z</time>
      </trkpt>
      <trkpt lat="45.60562" lon="6.65777">
        <ele>1975</ele>
        <time>2012-02-12T08:52:40Z</time>
      </trkpt>
      <trkpt lat="45.60553" lon="6.65774">
        <ele>1972.1999511719</ele>
        <time>2012-02-12T08:52:43Z</time>
      </trkpt>
      <trkpt lat="45.60546" lon="6.65772">
        <ele>1970</ele>
        <time>2012-02-12T08:52:45Z</time>
      </trkpt>
      <trkpt lat="45.60537" lon="6.65772">
        <ele>1967.5999755859</ele>
        <time>2012-02-12T08:52:48Z</time>
      </trkpt>
      <trkpt lat="45.60536" lon="6.65771">
        <ele>1967</ele>
        <time>2012-02-12T08:52:52Z</time>
      </trkpt>
      <trkpt lat="45.60529" lon="6.65764">
        <ele>1964</ele>
        <time>2012-02-12T08:52:55Z</time>
      </trkpt>
      <trkpt lat="45.60529" lon="6.6576">
        <ele>1963.1999511719</ele>
        <time>2012-02-12T08:52:57Z</time>
      </trkpt>
      <trkpt lat="45.6053" lon="6.65758">
        <ele>1963</ele>
        <time>2012-02-12T08:53:04Z</time>
      </trkpt>
      <trkpt lat="45.60535" lon="6.65749">
        <ele>1962.5999755859</ele>
        <time>2012-02-12T08:53:08Z</time>
      </trkpt>
      <trkpt lat="45.60542" lon="6.65739">
        <ele>1962.1999511719</ele>
        <time>2012-02-12T08:53:12Z</time>
      </trkpt>
      <trkpt lat="45.60553" lon="6.65728">
        <ele>1962</ele>
        <time>2012-02-12T08:53:17Z</time>
      </trkpt>
      <trkpt lat="45.60562" lon="6.6572">
        <ele>1962.4000244141</ele>
        <time>2012-02-12T08:53:20Z</time>
      </trkpt>
      <trkpt lat="45.60577" lon="6.65703">
        <ele>1962.1999511719</ele>
        <time>2012-02-12T08:53:25Z</time>
      </trkpt>
      <trkpt lat="45.60587" lon="6.65693">
        <ele>1962.1999511719</ele>
        <time>2012-02-12T08:53:28Z</time>
      </trkpt>
      <trkpt lat="45.60592" lon="6.65685">
        <ele>1962.1999511719</ele>
        <time>2012-02-12T08:53:30Z</time>
      </trkpt>
      <trkpt lat="45.606" lon="6.65667">
        <ele>1960.5999755859</ele>
        <time>2012-02-12T08:53:33Z</time>
      </trkpt>
      <trkpt lat="45.606" lon="6.65651">
        <ele>1960.4000244141</ele>
        <time>2012-02-12T08:53:36Z</time>
      </trkpt>
      <trkpt lat="45.60591" lon="6.65638">
        <ele>1957.1999511719</ele>
        <time>2012-02-12T08:53:38Z</time>
      </trkpt>
      <trkpt lat="45.60577" lon="6.6562">
        <ele>1951.5999755859</ele>
        <time>2012-02-12T08:53:44Z</time>
      </trkpt>
      <trkpt lat="45.60577" lon="6.6562">
        <ele>1951.4000244141</ele>
        <time>2012-02-12T08:53:54Z</time>
      </trkpt>
      <trkpt lat="45.60576" lon="6.6562">
        <ele>1951.4000244141</ele>
        <time>2012-02-12T08:53:59Z</time>
      </trkpt>
      <trkpt lat="45.60576" lon="6.65621">
        <ele>1951.1999511719</ele>
        <time>2012-02-12T08:54:06Z</time>
      </trkpt>
      <trkpt lat="45.60575" lon="6.65621">
        <ele>1950.8000488281</ele>
        <time>2012-02-12T08:54:17Z</time>
      </trkpt>
      <trkpt lat="45.60574" lon="6.65621">
        <ele>1950.8000488281</ele>
        <time>2012-02-12T08:54:25Z</time>
      </trkpt>
      <trkpt lat="45.60574" lon="6.65621">
        <ele>1950.5999755859</ele>
        <time>2012-02-12T08:54:48Z</time>
      </trkpt>
      <trkpt lat="45.60574" lon="6.65621">
        <ele>1950.5999755859</ele>
        <time>2012-02-12T08:54:58Z</time>
      </trkpt>
      <trkpt lat="45.60573" lon="6.65622">
        <ele>1950.4000244141</ele>
        <time>2012-02-12T08:55:16Z</time>
      </trkpt>
      <trkpt lat="45.60573" lon="6.65622">
        <ele>1950.1999511719</ele>
        <time>2012-02-12T08:55:22Z</time>
      </trkpt>
      <trkpt lat="45.60572" lon="6.65623">
        <ele>1950.1999511719</ele>
        <time>2012-02-12T08:55:33Z</time>
      </trkpt>
      <trkpt lat="45.60572" lon="6.65623">
        <ele>1950.1999511719</ele>
        <time>2012-02-12T08:55:40Z</time>
      </trkpt>
      <trkpt lat="45.60572" lon="6.65623">
        <ele>1950.1999511719</ele>
        <time>2012-02-12T08:55:58Z</time>
      </trkpt>
      <trkpt lat="45.60573" lon="6.65622">
        <ele>1950.1999511719</ele>
        <time>2012-02-12T08:56:13Z</time>
      </trkpt>
      <trkpt lat="45.60572" lon="6.65623">
        <ele>1950.1999511719</ele>
        <time>2012-02-12T08:56:43Z</time>
      </trkpt>
      <trkpt lat="45.60571" lon="6.65624">
        <ele>1950</ele>
        <time>2012-02-12T08:56:55Z</time>
      </trkpt>
      <trkpt lat="45.60572" lon="6.65624">
        <ele>1950</ele>
        <time>2012-02-12T08:57:06Z</time>
      </trkpt>
      <trkpt lat="45.60571" lon="6.65623">
        <ele>1950</ele>
        <time>2012-02-12T08:57:22Z</time>
      </trkpt>
      <trkpt lat="45.60571" lon="6.65623">
        <ele>1950</ele>
        <time>2012-02-12T08:57:27Z</time>
      </trkpt>
      <trkpt lat="45.60571" lon="6.65623">
        <ele>1949.8000488281</ele>
        <time>2012-02-12T08:57:30Z</time>
      </trkpt>
      <trkpt lat="45.60565" lon="6.65623">
        <ele>1948</ele>
        <time>2012-02-12T08:57:36Z</time>
      </trkpt>
      <trkpt lat="45.60558" lon="6.65623">
        <ele>1946</ele>
        <time>2012-02-12T08:57:41Z</time>
      </trkpt>
      <trkpt lat="45.60546" lon="6.65622">
        <ele>1942.4000244141</ele>
        <time>2012-02-12T08:57:47Z</time>
      </trkpt>
      <trkpt lat="45.60537" lon="6.6562">
        <ele>1939.8000488281</ele>
        <time>2012-02-12T08:57:51Z</time>
      </trkpt>
      <trkpt lat="45.6053" lon="6.65618">
        <ele>1937.4000244141</ele>
        <time>2012-02-12T08:57:56Z</time>
      </trkpt>
      <trkpt lat="45.60524" lon="6.65616">
        <ele>1935.4000244141</ele>
        <time>2012-02-12T08:58:04Z</time>
      </trkpt>
      <trkpt lat="45.60523" lon="6.65616">
        <ele>1935.1999511719</ele>
        <time>2012-02-12T08:58:15Z</time>
      </trkpt>
      <trkpt lat="45.60523" lon="6.65616">
        <ele>1935.1999511719</ele>
        <time>2012-02-12T08:58:20Z</time>
      </trkpt>
      <trkpt lat="45.60523" lon="6.65617">
        <ele>1935.1999511719</ele>
        <time>2012-02-12T08:58:28Z</time>
      </trkpt>
      <trkpt lat="45.60518" lon="6.65618">
        <ele>1933.8000488281</ele>
        <time>2012-02-12T08:58:36Z</time>
      </trkpt>
      <trkpt lat="45.60515" lon="6.65618">
        <ele>1933</ele>
        <time>2012-02-12T08:58:40Z</time>
      </trkpt>
      <trkpt lat="45.60508" lon="6.65622">
        <ele>1931.5999755859</ele>
        <time>2012-02-12T08:58:43Z</time>
      </trkpt>
      <trkpt lat="45.60495" lon="6.65629">
        <ele>1928.4000244141</ele>
        <time>2012-02-12T08:58:48Z</time>
      </trkpt>
      <trkpt lat="45.60484" lon="6.65632">
        <ele>1925.5999755859</ele>
        <time>2012-02-12T08:58:53Z</time>
      </trkpt>
      <trkpt lat="45.60485" lon="6.65628">
        <ele>1925.1999511719</ele>
        <time>2012-02-12T08:58:56Z</time>
      </trkpt>
      <trkpt lat="45.60485" lon="6.65627">
        <ele>1925.1999511719</ele>
        <time>2012-02-12T08:59:02Z</time>
      </trkpt>
      <trkpt lat="45.60485" lon="6.65621">
        <ele>1924.4000244141</ele>
        <time>2012-02-12T08:59:05Z</time>
      </trkpt>
      <trkpt lat="45.60489" lon="6.65606">
        <ele>1923.5999755859</ele>
        <time>2012-02-12T08:59:08Z</time>
      </trkpt>
      <trkpt lat="45.60498" lon="6.65588">
        <ele>1924</ele>
        <time>2012-02-12T08:59:12Z</time>
      </trkpt>
      <trkpt lat="45.60504" lon="6.65574">
        <ele>1924.1999511719</ele>
        <time>2012-02-12T08:59:15Z</time>
      </trkpt>
      <trkpt lat="45.60508" lon="6.65564">
        <ele>1924.1999511719</ele>
        <time>2012-02-12T08:59:17Z</time>
      </trkpt>
      <trkpt lat="45.60511" lon="6.65554">
        <ele>1924.1999511719</ele>
        <time>2012-02-12T08:59:20Z</time>
      </trkpt>
      <trkpt lat="45.60506" lon="6.65548">
        <ele>1921.1999511719</ele>
        <time>2012-02-12T08:59:22Z</time>
      </trkpt>
      <trkpt lat="45.60491" lon="6.65554">
        <ele>1917.1999511719</ele>
        <time>2012-02-12T08:59:26Z</time>
      </trkpt>
      <trkpt lat="45.60481" lon="6.65553">
        <ele>1913.8000488281</ele>
        <time>2012-02-12T08:59:29Z</time>
      </trkpt>
      <trkpt lat="45.6048" lon="6.65552">
        <ele>1913</ele>
        <time>2012-02-12T08:59:33Z</time>
      </trkpt>
      <trkpt lat="45.60477" lon="6.65545">
        <ele>1911</ele>
        <time>2012-02-12T08:59:36Z</time>
      </trkpt>
      <trkpt lat="45.60476" lon="6.65533">
        <ele>1909.1999511719</ele>
        <time>2012-02-12T08:59:38Z</time>
      </trkpt>
      <trkpt lat="45.60474" lon="6.65529">
        <ele>1907.8000488281</ele>
        <time>2012-02-12T08:59:41Z</time>
      </trkpt>
      <trkpt lat="45.60462" lon="6.65533">
        <ele>1904.8000488281</ele>
        <time>2012-02-12T08:59:45Z</time>
      </trkpt>
      <trkpt lat="45.60459" lon="6.65524">
        <ele>1902.4000244141</ele>
        <time>2012-02-12T08:59:47Z</time>
      </trkpt>
      <trkpt lat="45.60461" lon="6.65512">
        <ele>1901</ele>
        <time>2012-02-12T08:59:49Z</time>
      </trkpt>
      <trkpt lat="45.60459" lon="6.65479">
        <ele>1900.4000244141</ele>
        <time>2012-02-12T08:59:54Z</time>
      </trkpt>
      <trkpt lat="45.60456" lon="6.65476">
        <ele>1899.8000488281</ele>
        <time>2012-02-12T08:59:59Z</time>
      </trkpt>
      <trkpt lat="45.60453" lon="6.6548">
        <ele>1898.4000244141</ele>
        <time>2012-02-12T09:00:02Z</time>
      </trkpt>
      <trkpt lat="45.60449" lon="6.65492">
        <ele>1896.1999511719</ele>
        <time>2012-02-12T09:00:04Z</time>
      </trkpt>
      <trkpt lat="45.60443" lon="6.65507">
        <ele>1894.8000488281</ele>
        <time>2012-02-12T09:00:07Z</time>
      </trkpt>
      <trkpt lat="45.60428" lon="6.65522">
        <ele>1892</ele>
        <time>2012-02-12T09:00:13Z</time>
      </trkpt>
      <trkpt lat="45.60422" lon="6.65528">
        <ele>1891</ele>
        <time>2012-02-12T09:00:18Z</time>
      </trkpt>
      <trkpt lat="45.6041" lon="6.65525">
        <ele>1887</ele>
        <time>2012-02-12T09:00:24Z</time>
      </trkpt>
      <trkpt lat="45.60409" lon="6.65512">
        <ele>1884.5999755859</ele>
        <time>2012-02-12T09:00:26Z</time>
      </trkpt>
      <trkpt lat="45.60407" lon="6.65491">
        <ele>1882.8000488281</ele>
        <time>2012-02-12T09:00:29Z</time>
      </trkpt>
      <trkpt lat="45.60402" lon="6.65484">
        <ele>1881.8000488281</ele>
        <time>2012-02-12T09:00:31Z</time>
      </trkpt>
      <trkpt lat="45.60395" lon="6.65491">
        <ele>1879.4000244141</ele>
        <time>2012-02-12T09:00:33Z</time>
      </trkpt>
      <trkpt lat="45.6038" lon="6.65508">
        <ele>1875.4000244141</ele>
        <time>2012-02-12T09:00:37Z</time>
      </trkpt>
      <trkpt lat="45.60369" lon="6.6552">
        <ele>1873.5999755859</ele>
        <time>2012-02-12T09:00:40Z</time>
      </trkpt>
      <trkpt lat="45.60358" lon="6.65524">
        <ele>1870.5999755859</ele>
        <time>2012-02-12T09:00:42Z</time>
      </trkpt>
      <trkpt lat="45.6035" lon="6.6553">
        <ele>1868.5999755859</ele>
        <time>2012-02-12T09:00:45Z</time>
      </trkpt>
      <trkpt lat="45.60342" lon="6.65533">
        <ele>1866.4000244141</ele>
        <time>2012-02-12T09:00:49Z</time>
      </trkpt>
      <trkpt lat="45.60342" lon="6.65534">
        <ele>1866.5999755859</ele>
        <time>2012-02-12T09:00:56Z</time>
      </trkpt>
      <trkpt lat="45.60342" lon="6.65534">
        <ele>1866.8000488281</ele>
        <time>2012-02-12T09:01:01Z</time>
      </trkpt>
      <trkpt lat="45.60343" lon="6.65533">
        <ele>1866.8000488281</ele>
        <time>2012-02-12T09:01:11Z</time>
      </trkpt>
      <trkpt lat="45.6034" lon="6.65539">
        <ele>1866.4000244141</ele>
        <time>2012-02-12T09:01:17Z</time>
      </trkpt>
      <trkpt lat="45.6034" lon="6.65539">
        <ele>1866.5999755859</ele>
        <time>2012-02-12T09:01:27Z</time>
      </trkpt>
      <trkpt lat="45.60341" lon="6.65539">
        <ele>1866.8000488281</ele>
        <time>2012-02-12T09:01:44Z</time>
      </trkpt>
      <trkpt lat="45.60341" lon="6.65539">
        <ele>1866.8000488281</ele>
        <time>2012-02-12T09:01:50Z</time>
      </trkpt>
      <trkpt lat="45.60341" lon="6.6554">
        <ele>1866.8000488281</ele>
        <time>2012-02-12T09:01:54Z</time>
      </trkpt>
      <trkpt lat="45.60337" lon="6.65544">
        <ele>1866</ele>
        <time>2012-02-12T09:01:58Z</time>
      </trkpt>
      <trkpt lat="45.60331" lon="6.65552">
        <ele>1864.4000244141</ele>
        <time>2012-02-12T09:02:01Z</time>
      </trkpt>
      <trkpt lat="45.60326" lon="6.65558">
        <ele>1863</ele>
        <time>2012-02-12T09:02:03Z</time>
      </trkpt>
      <trkpt lat="45.6032" lon="6.65568">
        <ele>1861.5999755859</ele>
        <time>2012-02-12T09:02:07Z</time>
      </trkpt>
      <trkpt lat="45.60312" lon="6.65582">
        <ele>1859.1999511719</ele>
        <time>2012-02-12T09:02:11Z</time>
      </trkpt>
      <trkpt lat="45.60302" lon="6.65602">
        <ele>1856.4000244141</ele>
        <time>2012-02-12T09:02:17Z</time>
      </trkpt>
      <trkpt lat="45.60295" lon="6.65615">
        <ele>1854</ele>
        <time>2012-02-12T09:02:22Z</time>
      </trkpt>
      <trkpt lat="45.60291" lon="6.65628">
        <ele>1852.4000244141</ele>
        <time>2012-02-12T09:02:27Z</time>
      </trkpt>
      <trkpt lat="45.60285" lon="6.65643">
        <ele>1850.4000244141</ele>
        <time>2012-02-12T09:02:31Z</time>
      </trkpt>
      <trkpt lat="45.60282" lon="6.65654">
        <ele>1849.5999755859</ele>
        <time>2012-02-12T09:02:35Z</time>
      </trkpt>
      <trkpt lat="45.60281" lon="6.65664">
        <ele>1849.4000244141</ele>
        <time>2012-02-12T09:02:40Z</time>
      </trkpt>
      <trkpt lat="45.60276" lon="6.65669">
        <ele>1846.5999755859</ele>
        <time>2012-02-12T09:02:43Z</time>
      </trkpt>
      <trkpt lat="45.60271" lon="6.65656">
        <ele>1844</ele>
        <time>2012-02-12T09:02:46Z</time>
      </trkpt>
      <trkpt lat="45.60268" lon="6.65644">
        <ele>1842.4000244141</ele>
        <time>2012-02-12T09:02:48Z</time>
      </trkpt>
      <trkpt lat="45.60266" lon="6.65634">
        <ele>1841.4000244141</ele>
        <time>2012-02-12T09:02:50Z</time>
      </trkpt>
      <trkpt lat="45.60263" lon="6.6562">
        <ele>1840</ele>
        <time>2012-02-12T09:02:53Z</time>
      </trkpt>
      <trkpt lat="45.6026" lon="6.65604">
        <ele>1838.1999511719</ele>
        <time>2012-02-12T09:02:58Z</time>
      </trkpt>
      <trkpt lat="45.60258" lon="6.65591">
        <ele>1837.1999511719</ele>
        <time>2012-02-12T09:03:03Z</time>
      </trkpt>
      <trkpt lat="45.60256" lon="6.65586">
        <ele>1836.4000244141</ele>
        <time>2012-02-12T09:03:05Z</time>
      </trkpt>
      <trkpt lat="45.60252" lon="6.65589">
        <ele>1834.8000488281</ele>
        <time>2012-02-12T09:03:07Z</time>
      </trkpt>
      <trkpt lat="45.60248" lon="6.65599">
        <ele>1833.1999511719</ele>
        <time>2012-02-12T09:03:10Z</time>
      </trkpt>
      <trkpt lat="45.60242" lon="6.65615">
        <ele>1830.8000488281</ele>
        <time>2012-02-12T09:03:13Z</time>
      </trkpt>
      <trkpt lat="45.60237" lon="6.65633">
        <ele>1828.8000488281</ele>
        <time>2012-02-12T09:03:17Z</time>
      </trkpt>
      <trkpt lat="45.60233" lon="6.65656">
        <ele>1826.5999755859</ele>
        <time>2012-02-12T09:03:22Z</time>
      </trkpt>
      <trkpt lat="45.6023" lon="6.65668">
        <ele>1825</ele>
        <time>2012-02-12T09:03:25Z</time>
      </trkpt>
      <trkpt lat="45.60229" lon="6.65678">
        <ele>1823.8000488281</ele>
        <time>2012-02-12T09:03:29Z</time>
      </trkpt>
      <trkpt lat="45.60227" lon="6.65689">
        <ele>1822.8000488281</ele>
        <time>2012-02-12T09:03:32Z</time>
      </trkpt>
      <trkpt lat="45.60221" lon="6.65714">
        <ele>1819.4000244141</ele>
        <time>2012-02-12T09:03:40Z</time>
      </trkpt>
      <trkpt lat="45.60218" lon="6.65727">
        <ele>1817.1999511719</ele>
        <time>2012-02-12T09:03:43Z</time>
      </trkpt>
      <trkpt lat="45.60216" lon="6.65731">
        <ele>1816.1999511719</ele>
        <time>2012-02-12T09:03:46Z</time>
      </trkpt>
      <trkpt lat="45.60211" lon="6.6573">
        <ele>1814.1999511719</ele>
        <time>2012-02-12T09:03:52Z</time>
      </trkpt>
      <trkpt lat="45.60209" lon="6.65722">
        <ele>1813.1999511719</ele>
        <time>2012-02-12T09:03:54Z</time>
      </trkpt>
      <trkpt lat="45.60205" lon="6.65712">
        <ele>1811.5999755859</ele>
        <time>2012-02-12T09:03:56Z</time>
      </trkpt>
      <trkpt lat="45.60199" lon="6.65695">
        <ele>1809.5999755859</ele>
        <time>2012-02-12T09:03:59Z</time>
      </trkpt>
      <trkpt lat="45.60195" lon="6.65684">
        <ele>1808</ele>
        <time>2012-02-12T09:04:01Z</time>
      </trkpt>
      <trkpt lat="45.60189" lon="6.65666">
        <ele>1806.1999511719</ele>
        <time>2012-02-12T09:04:05Z</time>
      </trkpt>
      <trkpt lat="45.60185" lon="6.65658">
        <ele>1805</ele>
        <time>2012-02-12T09:04:07Z</time>
      </trkpt>
      <trkpt lat="45.60176" lon="6.65639">
        <ele>1803</ele>
        <time>2012-02-12T09:04:12Z</time>
      </trkpt>
      <trkpt lat="45.60167" lon="6.65638">
        <ele>1799.5999755859</ele>
        <time>2012-02-12T09:04:15Z</time>
      </trkpt>
      <trkpt lat="45.60164" lon="6.65644">
        <ele>1798.5999755859</ele>
        <time>2012-02-12T09:04:18Z</time>
      </trkpt>
      <trkpt lat="45.60165" lon="6.65645">
        <ele>1798.4000244141</ele>
        <time>2012-02-12T09:04:25Z</time>
      </trkpt>
      <trkpt lat="45.60165" lon="6.65645">
        <ele>1798.4000244141</ele>
        <time>2012-02-12T09:04:29Z</time>
      </trkpt>
      <trkpt lat="45.60165" lon="6.65644">
        <ele>1798.5999755859</ele>
        <time>2012-02-12T09:04:39Z</time>
      </trkpt>
      <trkpt lat="45.60165" lon="6.65644">
        <ele>1798.5999755859</ele>
        <time>2012-02-12T09:04:50Z</time>
      </trkpt>
      <trkpt lat="45.6016" lon="6.65656">
        <ele>1796.5999755859</ele>
        <time>2012-02-12T09:04:58Z</time>
      </trkpt>
      <trkpt lat="45.60156" lon="6.65663">
        <ele>1795.1999511719</ele>
        <time>2012-02-12T09:05:00Z</time>
      </trkpt>
      <trkpt lat="45.60146" lon="6.65674">
        <ele>1792.8000488281</ele>
        <time>2012-02-12T09:05:03Z</time>
      </trkpt>
      <trkpt lat="45.60143" lon="6.65682">
        <ele>1791.8000488281</ele>
        <time>2012-02-12T09:05:06Z</time>
      </trkpt>
      <trkpt lat="45.60138" lon="6.65688">
        <ele>1790.4000244141</ele>
        <time>2012-02-12T09:05:13Z</time>
      </trkpt>
      <trkpt lat="45.60133" lon="6.65699">
        <ele>1788.4000244141</ele>
        <time>2012-02-12T09:05:16Z</time>
      </trkpt>
      <trkpt lat="45.60132" lon="6.65709">
        <ele>1787.1999511719</ele>
        <time>2012-02-12T09:05:18Z</time>
      </trkpt>
      <trkpt lat="45.60132" lon="6.65721">
        <ele>1785.8000488281</ele>
        <time>2012-02-12T09:05:22Z</time>
      </trkpt>
      <trkpt lat="45.6013" lon="6.65736">
        <ele>1783.5999755859</ele>
        <time>2012-02-12T09:05:26Z</time>
      </trkpt>
      <trkpt lat="45.60126" lon="6.65739">
        <ele>1782</ele>
        <time>2012-02-12T09:05:28Z</time>
      </trkpt>
      <trkpt lat="45.60116" lon="6.6573">
        <ele>1781</ele>
        <time>2012-02-12T09:05:31Z</time>
      </trkpt>
      <trkpt lat="45.6011" lon="6.65733">
        <ele>1779</ele>
        <time>2012-02-12T09:05:33Z</time>
      </trkpt>
      <trkpt lat="45.60108" lon="6.65741">
        <ele>1777.1999511719</ele>
        <time>2012-02-12T09:05:35Z</time>
      </trkpt>
      <trkpt lat="45.60104" lon="6.65756">
        <ele>1774</ele>
        <time>2012-02-12T09:05:39Z</time>
      </trkpt>
      <trkpt lat="45.60097" lon="6.65758">
        <ele>1772</ele>
        <time>2012-02-12T09:05:42Z</time>
      </trkpt>
      <trkpt lat="45.60094" lon="6.65766">
        <ele>1769.8000488281</ele>
        <time>2012-02-12T09:05:45Z</time>
      </trkpt>
      <trkpt lat="45.60095" lon="6.65769">
        <ele>1769.8000488281</ele>
        <time>2012-02-12T09:05:48Z</time>
      </trkpt>
      <trkpt lat="45.60095" lon="6.65769">
        <ele>1770</ele>
        <time>2012-02-12T09:05:59Z</time>
      </trkpt>
      <trkpt lat="45.60096" lon="6.65768">
        <ele>1770.1999511719</ele>
        <time>2012-02-12T09:06:09Z</time>
      </trkpt>
      <trkpt lat="45.60096" lon="6.6577">
        <ele>1770</ele>
        <time>2012-02-12T09:06:16Z</time>
      </trkpt>
      <trkpt lat="45.60093" lon="6.6578">
        <ele>1768</ele>
        <time>2012-02-12T09:06:21Z</time>
      </trkpt>
      <trkpt lat="45.60092" lon="6.65792">
        <ele>1766</ele>
        <time>2012-02-12T09:06:26Z</time>
      </trkpt>
      <trkpt lat="45.60092" lon="6.65799">
        <ele>1765.1999511719</ele>
        <time>2012-02-12T09:06:28Z</time>
      </trkpt>
      <trkpt lat="45.60092" lon="6.65821">
        <ele>1762.1999511719</ele>
        <time>2012-02-12T09:06:32Z</time>
      </trkpt>
      <trkpt lat="45.60092" lon="6.65839">
        <ele>1760</ele>
        <time>2012-02-12T09:06:35Z</time>
      </trkpt>
      <trkpt lat="45.60091" lon="6.65854">
        <ele>1757.5999755859</ele>
        <time>2012-02-12T09:06:37Z</time>
      </trkpt>
      <trkpt lat="45.60089" lon="6.6587">
        <ele>1755</ele>
        <time>2012-02-12T09:06:39Z</time>
      </trkpt>
      <trkpt lat="45.6009" lon="6.65883">
        <ele>1753.4000244141</ele>
        <time>2012-02-12T09:06:41Z</time>
      </trkpt>
      <trkpt lat="45.60092" lon="6.65895">
        <ele>1752.4000244141</ele>
        <time>2012-02-12T09:06:43Z</time>
      </trkpt>
      <trkpt lat="45.60094" lon="6.65905">
        <ele>1752</ele>
        <time>2012-02-12T09:06:45Z</time>
      </trkpt>
      <trkpt lat="45.60101" lon="6.65927">
        <ele>1752</ele>
        <time>2012-02-12T09:06:49Z</time>
      </trkpt>
      <trkpt lat="45.60088" lon="6.65922">
        <ele>1747.1999511719</ele>
        <time>2012-02-12T09:06:54Z</time>
      </trkpt>
      <trkpt lat="45.60072" lon="6.659">
        <ele>1747.8000488281</ele>
        <time>2012-02-12T09:07:00Z</time>
      </trkpt>
      <trkpt lat="45.60059" lon="6.65896">
        <ele>1748</ele>
        <time>2012-02-12T09:07:04Z</time>
      </trkpt>
      <trkpt lat="45.60062" lon="6.65906">
        <ele>1746.4000244141</ele>
        <time>2012-02-12T09:07:06Z</time>
      </trkpt>
      <trkpt lat="45.60067" lon="6.65924">
        <ele>1743.5999755859</ele>
        <time>2012-02-12T09:07:09Z</time>
      </trkpt>
      <trkpt lat="45.60073" lon="6.6596">
        <ele>1738.5999755859</ele>
        <time>2012-02-12T09:07:15Z</time>
      </trkpt>
      <trkpt lat="45.60082" lon="6.65982">
        <ele>1736.4000244141</ele>
        <time>2012-02-12T09:07:19Z</time>
      </trkpt>
      <trkpt lat="45.60086" lon="6.65992">
        <ele>1736.5999755859</ele>
        <time>2012-02-12T09:07:21Z</time>
      </trkpt>
      <trkpt lat="45.6009" lon="6.66003">
        <ele>1737</ele>
        <time>2012-02-12T09:07:23Z</time>
      </trkpt>
      <trkpt lat="45.60097" lon="6.66015">
        <ele>1738.4000244141</ele>
        <time>2012-02-12T09:07:26Z</time>
      </trkpt>
      <trkpt lat="45.601" lon="6.66033">
        <ele>1736.5999755859</ele>
        <time>2012-02-12T09:07:30Z</time>
      </trkpt>
      <trkpt lat="45.6009" lon="6.66031">
        <ele>1731.1999511719</ele>
        <time>2012-02-12T09:07:33Z</time>
      </trkpt>
      <trkpt lat="45.60085" lon="6.66025">
        <ele>1730</ele>
        <time>2012-02-12T09:07:35Z</time>
      </trkpt>
      <trkpt lat="45.60069" lon="6.66015">
        <ele>1728.5999755859</ele>
        <time>2012-02-12T09:07:40Z</time>
      </trkpt>
      <trkpt lat="45.60059" lon="6.66005">
        <ele>1729.1999511719</ele>
        <time>2012-02-12T09:07:43Z</time>
      </trkpt>
      <trkpt lat="45.60051" lon="6.65993">
        <ele>1730.1999511719</ele>
        <time>2012-02-12T09:07:46Z</time>
      </trkpt>
      <trkpt lat="45.60042" lon="6.65979">
        <ele>1731.4000244141</ele>
        <time>2012-02-12T09:07:49Z</time>
      </trkpt>
      <trkpt lat="45.60032" lon="6.65965">
        <ele>1732.8000488281</ele>
        <time>2012-02-12T09:07:53Z</time>
      </trkpt>
      <trkpt lat="45.6003" lon="6.65973">
        <ele>1731</ele>
        <time>2012-02-12T09:07:55Z</time>
      </trkpt>
      <trkpt lat="45.6003" lon="6.65984">
        <ele>1728.8000488281</ele>
        <time>2012-02-12T09:07:57Z</time>
      </trkpt>
      <trkpt lat="45.60034" lon="6.6601">
        <ele>1724</ele>
        <time>2012-02-12T09:08:02Z</time>
      </trkpt>
      <trkpt lat="45.60038" lon="6.66024">
        <ele>1721.1999511719</ele>
        <time>2012-02-12T09:08:05Z</time>
      </trkpt>
      <trkpt lat="45.60045" lon="6.66042">
        <ele>1718.1999511719</ele>
        <time>2012-02-12T09:08:08Z</time>
      </trkpt>
      <trkpt lat="45.60059" lon="6.66069">
        <ele>1715</ele>
        <time>2012-02-12T09:08:14Z</time>
      </trkpt>
      <trkpt lat="45.60066" lon="6.66088">
        <ele>1712.4000244141</ele>
        <time>2012-02-12T09:08:18Z</time>
      </trkpt>
      <trkpt lat="45.6007" lon="6.66103">
        <ele>1710.1999511719</ele>
        <time>2012-02-12T09:08:21Z</time>
      </trkpt>
      <trkpt lat="45.60075" lon="6.66123">
        <ele>1707.5999755859</ele>
        <time>2012-02-12T09:08:25Z</time>
      </trkpt>
      <trkpt lat="45.6008" lon="6.6615">
        <ele>1703.4000244141</ele>
        <time>2012-02-12T09:08:30Z</time>
      </trkpt>
      <trkpt lat="45.60082" lon="6.66162">
        <ele>1701.5999755859</ele>
        <time>2012-02-12T09:08:32Z</time>
      </trkpt>
      <trkpt lat="45.60087" lon="6.66188">
        <ele>1702.8000488281</ele>
        <time>2012-02-12T09:08:36Z</time>
      </trkpt>
      <trkpt lat="45.60088" lon="6.66231">
        <ele>1702.5999755859</ele>
        <time>2012-02-12T09:08:42Z</time>
      </trkpt>
      <trkpt lat="45.60088" lon="6.6626">
        <ele>1702.5999755859</ele>
        <time>2012-02-12T09:08:46Z</time>
      </trkpt>
      <trkpt lat="45.60088" lon="6.66288">
        <ele>1703</ele>
        <time>2012-02-12T09:08:50Z</time>
      </trkpt>
      <trkpt lat="45.60089" lon="6.66308">
        <ele>1704</ele>
        <time>2012-02-12T09:08:53Z</time>
      </trkpt>
      <trkpt lat="45.60087" lon="6.66322">
        <ele>1703.1999511719</ele>
        <time>2012-02-12T09:08:55Z</time>
      </trkpt>
      <trkpt lat="45.60082" lon="6.66352">
        <ele>1700.8000488281</ele>
        <time>2012-02-12T09:08:59Z</time>
      </trkpt>
      <trkpt lat="45.60076" lon="6.66381">
        <ele>1698.4000244141</ele>
        <time>2012-02-12T09:09:03Z</time>
      </trkpt>
      <trkpt lat="45.60071" lon="6.6641">
        <ele>1696.1999511719</ele>
        <time>2012-02-12T09:09:07Z</time>
      </trkpt>
      <trkpt lat="45.60065" lon="6.66406">
        <ele>1691.8000488281</ele>
        <time>2012-02-12T09:09:10Z</time>
      </trkpt>
      <trkpt lat="45.60064" lon="6.66397">
        <ele>1691.4000244141</ele>
        <time>2012-02-12T09:09:13Z</time>
      </trkpt>
      <trkpt lat="45.60064" lon="6.66383">
        <ele>1690.5999755859</ele>
        <time>2012-02-12T09:09:17Z</time>
      </trkpt>
      <trkpt lat="45.6006" lon="6.66355">
        <ele>1688.1999511719</ele>
        <time>2012-02-12T09:09:23Z</time>
      </trkpt>
      <trkpt lat="45.60058" lon="6.66347">
        <ele>1687</ele>
        <time>2012-02-12T09:09:25Z</time>
      </trkpt>
      <trkpt lat="45.60051" lon="6.66319">
        <ele>1683</ele>
        <time>2012-02-12T09:09:31Z</time>
      </trkpt>
      <trkpt lat="45.60045" lon="6.66303">
        <ele>1680.5999755859</ele>
        <time>2012-02-12T09:09:34Z</time>
      </trkpt>
      <trkpt lat="45.60039" lon="6.66284">
        <ele>1678.5999755859</ele>
        <time>2012-02-12T09:09:37Z</time>
      </trkpt>
      <trkpt lat="45.60033" lon="6.66266">
        <ele>1676.8000488281</ele>
        <time>2012-02-12T09:09:40Z</time>
      </trkpt>
      <trkpt lat="45.60028" lon="6.66253">
        <ele>1675.4000244141</ele>
        <time>2012-02-12T09:09:43Z</time>
      </trkpt>
      <trkpt lat="45.60023" lon="6.66258">
        <ele>1673</ele>
        <time>2012-02-12T09:09:46Z</time>
      </trkpt>
      <trkpt lat="45.60018" lon="6.66259">
        <ele>1670.5999755859</ele>
        <time>2012-02-12T09:09:48Z</time>
      </trkpt>
      <trkpt lat="45.60015" lon="6.66267">
        <ele>1668.5999755859</ele>
        <time>2012-02-12T09:09:50Z</time>
      </trkpt>
      <trkpt lat="45.60008" lon="6.66268">
        <ele>1665.4000244141</ele>
        <time>2012-02-12T09:09:52Z</time>
      </trkpt>
      <trkpt lat="45.6" lon="6.66277">
        <ele>1661</ele>
        <time>2012-02-12T09:09:55Z</time>
      </trkpt>
      <trkpt lat="45.59996" lon="6.66291">
        <ele>1658.8000488281</ele>
        <time>2012-02-12T09:09:57Z</time>
      </trkpt>
      <trkpt lat="45.59995" lon="6.66303">
        <ele>1657.1999511719</ele>
        <time>2012-02-12T09:09:59Z</time>
      </trkpt>
      <trkpt lat="45.59996" lon="6.66331">
        <ele>1653.8000488281</ele>
        <time>2012-02-12T09:10:03Z</time>
      </trkpt>
      <trkpt lat="45.59997" lon="6.66351">
        <ele>1652.5999755859</ele>
        <time>2012-02-12T09:10:06Z</time>
      </trkpt>
      <trkpt lat="45.6" lon="6.66368">
        <ele>1652.1999511719</ele>
        <time>2012-02-12T09:10:09Z</time>
      </trkpt>
      <trkpt lat="45.60001" lon="6.66386">
        <ele>1652</ele>
        <time>2012-02-12T09:10:12Z</time>
      </trkpt>
      <trkpt lat="45.60001" lon="6.66412">
        <ele>1651.1999511719</ele>
        <time>2012-02-12T09:10:16Z</time>
      </trkpt>
      <trkpt lat="45.60001" lon="6.66432">
        <ele>1649.8000488281</ele>
        <time>2012-02-12T09:10:19Z</time>
      </trkpt>
      <trkpt lat="45.6" lon="6.66456">
        <ele>1647.1999511719</ele>
        <time>2012-02-12T09:10:22Z</time>
      </trkpt>
      <trkpt lat="45.59997" lon="6.66488">
        <ele>1643.5999755859</ele>
        <time>2012-02-12T09:10:26Z</time>
      </trkpt>
      <trkpt lat="45.59998" lon="6.66502">
        <ele>1642.4000244141</ele>
        <time>2012-02-12T09:10:28Z</time>
      </trkpt>
      <trkpt lat="45.59999" lon="6.6653">
        <ele>1636.4000244141</ele>
        <time>2012-02-12T09:10:32Z</time>
      </trkpt>
      <trkpt lat="45.60003" lon="6.66545">
        <ele>1635.1999511719</ele>
        <time>2012-02-12T09:10:35Z</time>
      </trkpt>
      <trkpt lat="45.60008" lon="6.66555">
        <ele>1635.8000488281</ele>
        <time>2012-02-12T09:10:37Z</time>
      </trkpt>
      <trkpt lat="45.60014" lon="6.66569">
        <ele>1635.5999755859</ele>
        <time>2012-02-12T09:10:41Z</time>
      </trkpt>
      <trkpt lat="45.60022" lon="6.66585">
        <ele>1636</ele>
        <time>2012-02-12T09:10:45Z</time>
      </trkpt>
      <trkpt lat="45.60037" lon="6.6662">
        <ele>1634.4000244141</ele>
        <time>2012-02-12T09:10:51Z</time>
      </trkpt>
      <trkpt lat="45.60044" lon="6.6664">
        <ele>1632.4000244141</ele>
        <time>2012-02-12T09:10:54Z</time>
      </trkpt>
      <trkpt lat="45.60053" lon="6.66653">
        <ele>1632.8000488281</ele>
        <time>2012-02-12T09:10:57Z</time>
      </trkpt>
      <trkpt lat="45.60065" lon="6.66668">
        <ele>1633.8000488281</ele>
        <time>2012-02-12T09:11:01Z</time>
      </trkpt>
      <trkpt lat="45.60073" lon="6.66682">
        <ele>1632.8000488281</ele>
        <time>2012-02-12T09:11:04Z</time>
      </trkpt>
      <trkpt lat="45.60081" lon="6.66695">
        <ele>1632.1999511719</ele>
        <time>2012-02-12T09:11:07Z</time>
      </trkpt>
      <trkpt lat="45.60093" lon="6.66717">
        <ele>1631</ele>
        <time>2012-02-12T09:11:11Z</time>
      </trkpt>
      <trkpt lat="45.60101" lon="6.66737">
        <ele>1628.8000488281</ele>
        <time>2012-02-12T09:11:14Z</time>
      </trkpt>
      <trkpt lat="45.60109" lon="6.66755">
        <ele>1626.1999511719</ele>
        <time>2012-02-12T09:11:17Z</time>
      </trkpt>
      <trkpt lat="45.60116" lon="6.66765">
        <ele>1625.4000244141</ele>
        <time>2012-02-12T09:11:19Z</time>
      </trkpt>
      <trkpt lat="45.60128" lon="6.66782">
        <ele>1624.5999755859</ele>
        <time>2012-02-12T09:11:23Z</time>
      </trkpt>
      <trkpt lat="45.6014" lon="6.66798">
        <ele>1624.4000244141</ele>
        <time>2012-02-12T09:11:27Z</time>
      </trkpt>
      <trkpt lat="45.60148" lon="6.66808">
        <ele>1624.1999511719</ele>
        <time>2012-02-12T09:11:30Z</time>
      </trkpt>
      <trkpt lat="45.60158" lon="6.66819">
        <ele>1624.4000244141</ele>
        <time>2012-02-12T09:11:33Z</time>
      </trkpt>
      <trkpt lat="45.60166" lon="6.66828">
        <ele>1624.8000488281</ele>
        <time>2012-02-12T09:11:37Z</time>
      </trkpt>
      <trkpt lat="45.60173" lon="6.66834">
        <ele>1625.1999511719</ele>
        <time>2012-02-12T09:11:41Z</time>
      </trkpt>
      <trkpt lat="45.60185" lon="6.66853">
        <ele>1621.8000488281</ele>
        <time>2012-02-12T09:11:52Z</time>
      </trkpt>
      <trkpt lat="45.6019" lon="6.6686">
        <ele>1621.1999511719</ele>
        <time>2012-02-12T09:11:58Z</time>
      </trkpt>
      <trkpt lat="45.60194" lon="6.66864">
        <ele>1621.1999511719</ele>
        <time>2012-02-12T09:12:13Z</time>
      </trkpt>
      <trkpt lat="45.60194" lon="6.66865">
        <ele>1620.8000488281</ele>
        <time>2012-02-12T09:12:17Z</time>
      </trkpt>
      <trkpt lat="45.60194" lon="6.66865">
        <ele>1620.8000488281</ele>
        <time>2012-02-12T09:12:24Z</time>
      </trkpt>
      <trkpt lat="45.60201" lon="6.66881">
        <ele>1617.4000244141</ele>
        <time>2012-02-12T09:12:32Z</time>
      </trkpt>
      <trkpt lat="45.60206" lon="6.66888">
        <ele>1616.4000244141</ele>
        <time>2012-02-12T09:12:35Z</time>
      </trkpt>
      <trkpt lat="45.60214" lon="6.66904">
        <ele>1613.8000488281</ele>
        <time>2012-02-12T09:12:41Z</time>
      </trkpt>
      <trkpt lat="45.60224" lon="6.66919">
        <ele>1612.4000244141</ele>
        <time>2012-02-12T09:12:47Z</time>
      </trkpt>
      <trkpt lat="45.60231" lon="6.66928">
        <ele>1612.5999755859</ele>
        <time>2012-02-12T09:12:51Z</time>
      </trkpt>
      <trkpt lat="45.60233" lon="6.66934">
        <ele>1612</ele>
        <time>2012-02-12T09:12:53Z</time>
      </trkpt>
      <trkpt lat="45.60241" lon="6.66952">
        <ele>1610.5999755859</ele>
        <time>2012-02-12T09:12:59Z</time>
      </trkpt>
      <trkpt lat="45.60253" lon="6.66974">
        <ele>1609.4000244141</ele>
        <time>2012-02-12T09:13:05Z</time>
      </trkpt>
      <trkpt lat="45.60261" lon="6.66989">
        <ele>1608.4000244141</ele>
        <time>2012-02-12T09:13:10Z</time>
      </trkpt>
      <trkpt lat="45.6027" lon="6.67">
        <ele>1608.1999511719</ele>
        <time>2012-02-12T09:13:15Z</time>
      </trkpt>
      <trkpt lat="45.60272" lon="6.67006">
        <ele>1606.4000244141</ele>
        <time>2012-02-12T09:13:18Z</time>
      </trkpt>
      <trkpt lat="45.60273" lon="6.6701">
        <ele>1605.1999511719</ele>
        <time>2012-02-12T09:13:20Z</time>
      </trkpt>
      <trkpt lat="45.60277" lon="6.67022">
        <ele>1601.5999755859</ele>
        <time>2012-02-12T09:13:24Z</time>
      </trkpt>
      <trkpt lat="45.60282" lon="6.67031">
        <ele>1599.5999755859</ele>
        <time>2012-02-12T09:13:28Z</time>
      </trkpt>
      <trkpt lat="45.6029" lon="6.67043">
        <ele>1597.5999755859</ele>
        <time>2012-02-12T09:13:31Z</time>
      </trkpt>
      <trkpt lat="45.60298" lon="6.67056">
        <ele>1595.4000244141</ele>
        <time>2012-02-12T09:13:37Z</time>
      </trkpt>
      <trkpt lat="45.60303" lon="6.67065">
        <ele>1593.1999511719</ele>
        <time>2012-02-12T09:13:43Z</time>
      </trkpt>
      <trkpt lat="45.60308" lon="6.67076">
        <ele>1590.4000244141</ele>
        <time>2012-02-12T09:13:47Z</time>
      </trkpt>
      <trkpt lat="45.60311" lon="6.67087">
        <ele>1588.1999511719</ele>
        <time>2012-02-12T09:13:51Z</time>
      </trkpt>
      <trkpt lat="45.60315" lon="6.67098">
        <ele>1587.5999755859</ele>
        <time>2012-02-12T09:13:54Z</time>
      </trkpt>
      <trkpt lat="45.60308" lon="6.67112">
        <ele>1583.4000244141</ele>
        <time>2012-02-12T09:13:58Z</time>
      </trkpt>
      <trkpt lat="45.60299" lon="6.67116">
        <ele>1580.1999511719</ele>
        <time>2012-02-12T09:14:00Z</time>
      </trkpt>
      <trkpt lat="45.60292" lon="6.67117">
        <ele>1577.8000488281</ele>
        <time>2012-02-12T09:14:02Z</time>
      </trkpt>
      <trkpt lat="45.60279" lon="6.6712">
        <ele>1573.5999755859</ele>
        <time>2012-02-12T09:14:05Z</time>
      </trkpt>
      <trkpt lat="45.60271" lon="6.67116">
        <ele>1571.8000488281</ele>
        <time>2012-02-12T09:14:07Z</time>
      </trkpt>
      <trkpt lat="45.60268" lon="6.67111">
        <ele>1571.4000244141</ele>
        <time>2012-02-12T09:14:11Z</time>
      </trkpt>
      <trkpt lat="45.60268" lon="6.67109">
        <ele>1571.5999755859</ele>
        <time>2012-02-12T09:14:22Z</time>
      </trkpt>
      <trkpt lat="45.60267" lon="6.67109">
        <ele>1571.1999511719</ele>
        <time>2012-02-12T09:14:29Z</time>
      </trkpt>
      <trkpt lat="45.60262" lon="6.67111">
        <ele>1569.4000244141</ele>
        <time>2012-02-12T09:14:31Z</time>
      </trkpt>
      <trkpt lat="45.60254" lon="6.67106">
        <ele>1567.4000244141</ele>
        <time>2012-02-12T09:14:36Z</time>
      </trkpt>
      <trkpt lat="45.60247" lon="6.67101">
        <ele>1565.8000488281</ele>
        <time>2012-02-12T09:14:39Z</time>
      </trkpt>
      <trkpt lat="45.60235" lon="6.67089">
        <ele>1562.8000488281</ele>
        <time>2012-02-12T09:14:44Z</time>
      </trkpt>
      <trkpt lat="45.60225" lon="6.6708">
        <ele>1560.4000244141</ele>
        <time>2012-02-12T09:14:48Z</time>
      </trkpt>
      <trkpt lat="45.60212" lon="6.67068">
        <ele>1559.8000488281</ele>
        <time>2012-02-12T09:14:54Z</time>
      </trkpt>
      <trkpt lat="45.60207" lon="6.67065">
        <ele>1559</ele>
        <time>2012-02-12T09:14:56Z</time>
      </trkpt>
      <trkpt lat="45.60197" lon="6.67059">
        <ele>1557</ele>
        <time>2012-02-12T09:15:00Z</time>
      </trkpt>
      <trkpt lat="45.60189" lon="6.67055">
        <ele>1554.8000488281</ele>
        <time>2012-02-12T09:15:03Z</time>
      </trkpt>
      <trkpt lat="45.60182" lon="6.67053">
        <ele>1553</ele>
        <time>2012-02-12T09:15:05Z</time>
      </trkpt>
      <trkpt lat="45.6017" lon="6.67053">
        <ele>1548</ele>
        <time>2012-02-12T09:15:08Z</time>
      </trkpt>
      <trkpt lat="45.60163" lon="6.67055">
        <ele>1545</ele>
        <time>2012-02-12T09:15:10Z</time>
      </trkpt>
      <trkpt lat="45.60163" lon="6.67062">
        <ele>1543.8000488281</ele>
        <time>2012-02-12T09:15:12Z</time>
      </trkpt>
      <trkpt lat="45.6016" lon="6.67069">
        <ele>1541.1999511719</ele>
        <time>2012-02-12T09:15:15Z</time>
      </trkpt>
      <trkpt lat="45.60153" lon="6.67075">
        <ele>1537.8000488281</ele>
        <time>2012-02-12T09:15:18Z</time>
      </trkpt>
      <trkpt lat="45.60143" lon="6.67076">
        <ele>1535</ele>
        <time>2012-02-12T09:15:21Z</time>
      </trkpt>
      <trkpt lat="45.60137" lon="6.67071">
        <ele>1534.1999511719</ele>
        <time>2012-02-12T09:15:23Z</time>
      </trkpt>
      <trkpt lat="45.60138" lon="6.67071">
        <ele>1534.4000244141</ele>
        <time>2012-02-12T09:15:31Z</time>
      </trkpt>
      <trkpt lat="45.60138" lon="6.67072">
        <ele>1534.1999511719</ele>
        <time>2012-02-12T09:15:39Z</time>
      </trkpt>
      <trkpt lat="45.60135" lon="6.67064">
        <ele>1535</ele>
        <time>2012-02-12T09:15:46Z</time>
      </trkpt>
      <trkpt lat="45.6013" lon="6.67059">
        <ele>1534.8000488281</ele>
        <time>2012-02-12T09:15:50Z</time>
      </trkpt>
      <trkpt lat="45.6012" lon="6.67048">
        <ele>1534.4000244141</ele>
        <time>2012-02-12T09:15:55Z</time>
      </trkpt>
      <trkpt lat="45.6011" lon="6.67035">
        <ele>1534</ele>
        <time>2012-02-12T09:16:00Z</time>
      </trkpt>
      <trkpt lat="45.60097" lon="6.6702">
        <ele>1533.4000244141</ele>
        <time>2012-02-12T09:16:06Z</time>
      </trkpt>
      <trkpt lat="45.6009" lon="6.67013">
        <ele>1533</ele>
        <time>2012-02-12T09:16:09Z</time>
      </trkpt>
      <trkpt lat="45.60076" lon="6.67001">
        <ele>1531.4000244141</ele>
        <time>2012-02-12T09:16:14Z</time>
      </trkpt>
      <trkpt lat="45.60064" lon="6.66991">
        <ele>1530.5999755859</ele>
        <time>2012-02-12T09:16:18Z</time>
      </trkpt>
      <trkpt lat="45.60045" lon="6.66976">
        <ele>1528.8000488281</ele>
        <time>2012-02-12T09:16:24Z</time>
      </trkpt>
      <trkpt lat="45.60031" lon="6.66967">
        <ele>1527.1999511719</ele>
        <time>2012-02-12T09:16:28Z</time>
      </trkpt>
      <trkpt lat="45.60018" lon="6.66965">
        <ele>1524</ele>
        <time>2012-02-12T09:16:32Z</time>
      </trkpt>
      <trkpt lat="45.60016" lon="6.66974">
        <ele>1520.5999755859</ele>
        <time>2012-02-12T09:16:35Z</time>
      </trkpt>
      <trkpt lat="45.60021" lon="6.66982">
        <ele>1519.4000244141</ele>
        <time>2012-02-12T09:16:37Z</time>
      </trkpt>
      <trkpt lat="45.60026" lon="6.66987">
        <ele>1519.5999755859</ele>
        <time>2012-02-12T09:16:40Z</time>
      </trkpt>
      <trkpt lat="45.60032" lon="6.66993">
        <ele>1519.4000244141</ele>
        <time>2012-02-12T09:16:44Z</time>
      </trkpt>
      <trkpt lat="45.60037" lon="6.66999">
        <ele>1519.1999511719</ele>
        <time>2012-02-12T09:16:47Z</time>
      </trkpt>
      <trkpt lat="45.60049" lon="6.67015">
        <ele>1519.8000488281</ele>
        <time>2012-02-12T09:16:56Z</time>
      </trkpt>
      <trkpt lat="45.60055" lon="6.67026">
        <ele>1519.1999511719</ele>
        <time>2012-02-12T09:17:01Z</time>
      </trkpt>
      <trkpt lat="45.60062" lon="6.67048">
        <ele>1517</ele>
        <time>2012-02-12T09:17:11Z</time>
      </trkpt>
      <trkpt lat="45.60064" lon="6.6706">
        <ele>1515</ele>
        <time>2012-02-12T09:17:16Z</time>
      </trkpt>
      <trkpt lat="45.60061" lon="6.67071">
        <ele>1511.8000488281</ele>
        <time>2012-02-12T09:17:20Z</time>
      </trkpt>
      <trkpt lat="45.60057" lon="6.67075">
        <ele>1509.8000488281</ele>
        <time>2012-02-12T09:17:22Z</time>
      </trkpt>
      <trkpt lat="45.60051" lon="6.67069">
        <ele>1509.4000244141</ele>
        <time>2012-02-12T09:17:24Z</time>
      </trkpt>
      <trkpt lat="45.60042" lon="6.67059">
        <ele>1508.5999755859</ele>
        <time>2012-02-12T09:17:27Z</time>
      </trkpt>
      <trkpt lat="45.60035" lon="6.67049">
        <ele>1508.5999755859</ele>
        <time>2012-02-12T09:17:29Z</time>
      </trkpt>
      <trkpt lat="45.60028" lon="6.67041">
        <ele>1508.1999511719</ele>
        <time>2012-02-12T09:17:31Z</time>
      </trkpt>
      <trkpt lat="45.60017" lon="6.67033">
        <ele>1506</ele>
        <time>2012-02-12T09:17:35Z</time>
      </trkpt>
      <trkpt lat="45.59997" lon="6.67027">
        <ele>1501.1999511719</ele>
        <time>2012-02-12T09:17:40Z</time>
      </trkpt>
      <trkpt lat="45.5998" lon="6.67024">
        <ele>1498.1999511719</ele>
        <time>2012-02-12T09:17:44Z</time>
      </trkpt>
      <trkpt lat="45.59967" lon="6.67023">
        <ele>1495.8000488281</ele>
        <time>2012-02-12T09:17:47Z</time>
      </trkpt>
      <trkpt lat="45.5995" lon="6.67021">
        <ele>1492.8000488281</ele>
        <time>2012-02-12T09:17:51Z</time>
      </trkpt>
      <trkpt lat="45.59942" lon="6.6702">
        <ele>1491.4000244141</ele>
        <time>2012-02-12T09:17:53Z</time>
      </trkpt>
      <trkpt lat="45.59929" lon="6.67013">
        <ele>1490</ele>
        <time>2012-02-12T09:17:56Z</time>
      </trkpt>
      <trkpt lat="45.59917" lon="6.67006">
        <ele>1489</ele>
        <time>2012-02-12T09:17:59Z</time>
      </trkpt>
      <trkpt lat="45.59908" lon="6.66996">
        <ele>1488.8000488281</ele>
        <time>2012-02-12T09:18:02Z</time>
      </trkpt>
      <trkpt lat="45.59891" lon="6.66974">
        <ele>1489.8000488281</ele>
        <time>2012-02-12T09:18:08Z</time>
      </trkpt>
      <trkpt lat="45.59882" lon="6.66964">
        <ele>1489.8000488281</ele>
        <time>2012-02-12T09:18:11Z</time>
      </trkpt>
      <trkpt lat="45.59876" lon="6.66958">
        <ele>1489.5999755859</ele>
        <time>2012-02-12T09:18:13Z</time>
      </trkpt>
      <trkpt lat="45.59865" lon="6.66952">
        <ele>1488.1999511719</ele>
        <time>2012-02-12T09:18:16Z</time>
      </trkpt>
      <trkpt lat="45.59857" lon="6.6695">
        <ele>1486.8000488281</ele>
        <time>2012-02-12T09:18:18Z</time>
      </trkpt>
      <trkpt lat="45.59849" lon="6.66949">
        <ele>1485</ele>
        <time>2012-02-12T09:18:20Z</time>
      </trkpt>
      <trkpt lat="45.59827" lon="6.66952">
        <ele>1480</ele>
        <time>2012-02-12T09:18:25Z</time>
      </trkpt>
      <trkpt lat="45.59803" lon="6.66955">
        <ele>1476.1999511719</ele>
        <time>2012-02-12T09:18:30Z</time>
      </trkpt>
      <trkpt lat="45.59794" lon="6.66956">
        <ele>1474.8000488281</ele>
        <time>2012-02-12T09:18:32Z</time>
      </trkpt>
      <trkpt lat="45.59783" lon="6.66955">
        <ele>1473.4000244141</ele>
        <time>2012-02-12T09:18:35Z</time>
      </trkpt>
      <trkpt lat="45.59776" lon="6.66957">
        <ele>1472</ele>
        <time>2012-02-12T09:18:37Z</time>
      </trkpt>
      <trkpt lat="45.59774" lon="6.66958">
        <ele>1471.5999755859</ele>
        <time>2012-02-12T09:18:45Z</time>
      </trkpt>
      <trkpt lat="45.59774" lon="6.66958">
        <ele>1471.8000488281</ele>
        <time>2012-02-12T09:18:50Z</time>
      </trkpt>
      <trkpt lat="45.59774" lon="6.66958">
        <ele>1471.8000488281</ele>
        <time>2012-02-12T09:19:02Z</time>
      </trkpt>
      <trkpt lat="45.59765" lon="6.66958">
        <ele>1470.5999755859</ele>
        <time>2012-02-12T09:19:11Z</time>
      </trkpt>
      <trkpt lat="45.59755" lon="6.66956">
        <ele>1469.5999755859</ele>
        <time>2012-02-12T09:19:16Z</time>
      </trkpt>
      <trkpt lat="45.59743" lon="6.66948">
        <ele>1468.1999511719</ele>
        <time>2012-02-12T09:19:20Z</time>
      </trkpt>
      <trkpt lat="45.59734" lon="6.66931">
        <ele>1468.4000244141</ele>
        <time>2012-02-12T09:19:24Z</time>
      </trkpt>
      <trkpt lat="45.59731" lon="6.66915">
        <ele>1469.5999755859</ele>
        <time>2012-02-12T09:19:27Z</time>
      </trkpt>
      <trkpt lat="45.59731" lon="6.66899">
        <ele>1470.1999511719</ele>
        <time>2012-02-12T09:19:30Z</time>
      </trkpt>
      <trkpt lat="45.59732" lon="6.66878">
        <ele>1471.1999511719</ele>
        <time>2012-02-12T09:19:34Z</time>
      </trkpt>
      <trkpt lat="45.5973" lon="6.66855">
        <ele>1472</ele>
        <time>2012-02-12T09:19:38Z</time>
      </trkpt>
      <trkpt lat="45.59725" lon="6.66834">
        <ele>1471.4000244141</ele>
        <time>2012-02-12T09:19:42Z</time>
      </trkpt>
      <trkpt lat="45.59717" lon="6.66819">
        <ele>1472.4000244141</ele>
        <time>2012-02-12T09:19:45Z</time>
      </trkpt>
      <trkpt lat="45.59697" lon="6.668">
        <ele>1471.4000244141</ele>
        <time>2012-02-12T09:19:50Z</time>
      </trkpt>
      <trkpt lat="45.59679" lon="6.66785">
        <ele>1470.4000244141</ele>
        <time>2012-02-12T09:19:54Z</time>
      </trkpt>
      <trkpt lat="45.59666" lon="6.66775">
        <ele>1469.4000244141</ele>
        <time>2012-02-12T09:19:57Z</time>
      </trkpt>
      <trkpt lat="45.59657" lon="6.66776">
        <ele>1468.4000244141</ele>
        <time>2012-02-12T09:19:59Z</time>
      </trkpt>
      <trkpt lat="45.59643" lon="6.66778">
        <ele>1467.1999511719</ele>
        <time>2012-02-12T09:20:02Z</time>
      </trkpt>
      <trkpt lat="45.59629" lon="6.6678">
        <ele>1465.8000488281</ele>
        <time>2012-02-12T09:20:05Z</time>
      </trkpt>
      <trkpt lat="45.59614" lon="6.66781">
        <ele>1464.8000488281</ele>
        <time>2012-02-12T09:20:08Z</time>
      </trkpt>
      <trkpt lat="45.59598" lon="6.66782">
        <ele>1463.1999511719</ele>
        <time>2012-02-12T09:20:11Z</time>
      </trkpt>
      <trkpt lat="45.59594" lon="6.66798">
        <ele>1458.5999755859</ele>
        <time>2012-02-12T09:20:14Z</time>
      </trkpt>
      <trkpt lat="45.59604" lon="6.66811">
        <ele>1455.5999755859</ele>
        <time>2012-02-12T09:20:17Z</time>
      </trkpt>
      <trkpt lat="45.59616" lon="6.66822">
        <ele>1453.5999755859</ele>
        <time>2012-02-12T09:20:20Z</time>
      </trkpt>
      <trkpt lat="45.59627" lon="6.66835">
        <ele>1451.4000244141</ele>
        <time>2012-02-12T09:20:23Z</time>
      </trkpt>
      <trkpt lat="45.59633" lon="6.66861">
        <ele>1449.5999755859</ele>
        <time>2012-02-12T09:20:27Z</time>
      </trkpt>
      <trkpt lat="45.59633" lon="6.66882">
        <ele>1447.5999755859</ele>
        <time>2012-02-12T09:20:30Z</time>
      </trkpt>
      <trkpt lat="45.59631" lon="6.66919">
        <ele>1443.1999511719</ele>
        <time>2012-02-12T09:20:35Z</time>
      </trkpt>
      <trkpt lat="45.59628" lon="6.66952">
        <ele>1440.5999755859</ele>
        <time>2012-02-12T09:20:39Z</time>
      </trkpt>
      <trkpt lat="45.59629" lon="6.66966">
        <ele>1440</ele>
        <time>2012-02-12T09:20:41Z</time>
      </trkpt>
      <trkpt lat="45.59636" lon="6.66986">
        <ele>1440.1999511719</ele>
        <time>2012-02-12T09:20:44Z</time>
      </trkpt>
      <trkpt lat="45.59638" lon="6.67001">
        <ele>1439.8000488281</ele>
        <time>2012-02-12T09:20:46Z</time>
      </trkpt>
      <trkpt lat="45.59633" lon="6.67022">
        <ele>1445.5999755859</ele>
        <time>2012-02-12T09:20:49Z</time>
      </trkpt>
      <trkpt lat="45.59622" lon="6.67027">
        <ele>1446</ele>
        <time>2012-02-12T09:20:52Z</time>
      </trkpt>
      <trkpt lat="45.59613" lon="6.67025">
        <ele>1444.4000244141</ele>
        <time>2012-02-12T09:20:54Z</time>
      </trkpt>
      <trkpt lat="45.59605" lon="6.67022">
        <ele>1442.5999755859</ele>
        <time>2012-02-12T09:20:56Z</time>
      </trkpt>
      <trkpt lat="45.59589" lon="6.67014">
        <ele>1437.5999755859</ele>
        <time>2012-02-12T09:21:00Z</time>
      </trkpt>
      <trkpt lat="45.59575" lon="6.67012">
        <ele>1435</ele>
        <time>2012-02-12T09:21:03Z</time>
      </trkpt>
      <trkpt lat="45.59555" lon="6.67015">
        <ele>1433</ele>
        <time>2012-02-12T09:21:08Z</time>
      </trkpt>
      <trkpt lat="45.59531" lon="6.67011">
        <ele>1427.8000488281</ele>
        <time>2012-02-12T09:21:14Z</time>
      </trkpt>
      <trkpt lat="45.59506" lon="6.67012">
        <ele>1424.4000244141</ele>
        <time>2012-02-12T09:21:20Z</time>
      </trkpt>
      <trkpt lat="45.59488" lon="6.67025">
        <ele>1425.4000244141</ele>
        <time>2012-02-12T09:21:25Z</time>
      </trkpt>
      <trkpt lat="45.5948" lon="6.67032">
        <ele>1426.1999511719</ele>
        <time>2012-02-12T09:21:27Z</time>
      </trkpt>
      <trkpt lat="45.59466" lon="6.67047">
        <ele>1428.5999755859</ele>
        <time>2012-02-12T09:21:31Z</time>
      </trkpt>
      <trkpt lat="45.59442" lon="6.67054">
        <ele>1425.1999511719</ele>
        <time>2012-02-12T09:21:37Z</time>
      </trkpt>
      <trkpt lat="45.59439" lon="6.67055">
        <ele>1425.1999511719</ele>
        <time>2012-02-12T09:21:39Z</time>
      </trkpt>
      <trkpt lat="45.5944" lon="6.67051">
        <ele>1424</ele>
        <time>2012-02-12T09:21:47Z</time>
      </trkpt>
      <trkpt lat="45.5944" lon="6.6705">
        <ele>1423.5999755859</ele>
        <time>2012-02-12T09:21:52Z</time>
      </trkpt>
      <trkpt lat="45.59439" lon="6.67049">
        <ele>1423.1999511719</ele>
        <time>2012-02-12T09:22:01Z</time>
      </trkpt>
      <trkpt lat="45.59438" lon="6.67049">
        <ele>1422.8000488281</ele>
        <time>2012-02-12T09:22:11Z</time>
      </trkpt>
      <trkpt lat="45.59438" lon="6.67048">
        <ele>1422.5999755859</ele>
        <time>2012-02-12T09:22:18Z</time>
      </trkpt>
      <trkpt lat="45.59439" lon="6.67048">
        <ele>1422.4000244141</ele>
        <time>2012-02-12T09:22:23Z</time>
      </trkpt>
      <trkpt lat="45.59439" lon="6.67047">
        <ele>1422.4000244141</ele>
        <time>2012-02-12T09:22:28Z</time>
      </trkpt>
      <trkpt lat="45.59441" lon="6.67046">
        <ele>1422.4000244141</ele>
        <time>2012-02-12T09:22:35Z</time>
      </trkpt>
      <trkpt lat="45.59442" lon="6.67046">
        <ele>1422.4000244141</ele>
        <time>2012-02-12T09:22:42Z</time>
      </trkpt>
      <trkpt lat="45.59442" lon="6.67046">
        <ele>1422.5999755859</ele>
        <time>2012-02-12T09:22:48Z</time>
      </trkpt>
      <trkpt lat="45.59442" lon="6.67045">
        <ele>1422.4000244141</ele>
        <time>2012-02-12T09:22:59Z</time>
      </trkpt>
      <trkpt lat="45.59442" lon="6.67045">
        <ele>1422.4000244141</ele>
        <time>2012-02-12T09:23:14Z</time>
      </trkpt>
      <trkpt lat="45.59442" lon="6.67045">
        <ele>1422.4000244141</ele>
        <time>2012-02-12T09:23:25Z</time>
      </trkpt>
      <trkpt lat="45.59442" lon="6.67047">
        <ele>1423.1999511719</ele>
        <time>2012-02-12T09:23:54Z</time>
      </trkpt>
      <trkpt lat="45.59442" lon="6.67047">
        <ele>1423.1999511719</ele>
        <time>2012-02-12T09:24:10Z</time>
      </trkpt>
      <trkpt lat="45.59442" lon="6.67047">
        <ele>1423</ele>
        <time>2012-02-12T09:24:17Z</time>
      </trkpt>
      <trkpt lat="45.59441" lon="6.67047">
        <ele>1422.8000488281</ele>
        <time>2012-02-12T09:24:40Z</time>
      </trkpt>
      <trkpt lat="45.5944" lon="6.6705">
        <ele>1423.4000244141</ele>
        <time>2012-02-12T09:24:55Z</time>
      </trkpt>
      <trkpt lat="45.5944" lon="6.6705">
        <ele>1423.5999755859</ele>
        <time>2012-02-12T09:25:03Z</time>
      </trkpt>
      <trkpt lat="45.59439" lon="6.6705">
        <ele>1423.4000244141</ele>
        <time>2012-02-12T09:25:11Z</time>
      </trkpt>
      <trkpt lat="45.59439" lon="6.67051">
        <ele>1423.8000488281</ele>
        <time>2012-02-12T09:25:15Z</time>
      </trkpt>
      <trkpt lat="45.59438" lon="6.67051">
        <ele>1423.5999755859</ele>
        <time>2012-02-12T09:25:21Z</time>
      </trkpt>
      <trkpt lat="45.59438" lon="6.67051">
        <ele>1423.5999755859</ele>
        <time>2012-02-12T09:25:26Z</time>
      </trkpt>
      <trkpt lat="45.59439" lon="6.67052">
        <ele>1424.1999511719</ele>
        <time>2012-02-12T09:25:38Z</time>
      </trkpt>
      <trkpt lat="45.59439" lon="6.67053">
        <ele>1424.4000244141</ele>
        <time>2012-02-12T09:25:52Z</time>
      </trkpt>
      <trkpt lat="45.59439" lon="6.67052">
        <ele>1424.1999511719</ele>
        <time>2012-02-12T09:25:56Z</time>
      </trkpt>
      <trkpt lat="45.5944" lon="6.67052">
        <ele>1424.1999511719</ele>
        <time>2012-02-12T09:26:00Z</time>
      </trkpt>
      <trkpt lat="45.59439" lon="6.67051">
        <ele>1423.5999755859</ele>
        <time>2012-02-12T09:26:07Z</time>
      </trkpt>
      <trkpt lat="45.59438" lon="6.67052">
        <ele>1423.8000488281</ele>
        <time>2012-02-12T09:26:19Z</time>
      </trkpt>
      <trkpt lat="45.59437" lon="6.6705">
        <ele>1423.1999511719</ele>
        <time>2012-02-12T09:26:27Z</time>
      </trkpt>
      <trkpt lat="45.59437" lon="6.67049">
        <ele>1422.5999755859</ele>
        <time>2012-02-12T09:26:36Z</time>
      </trkpt>
      <trkpt lat="45.59437" lon="6.67048">
        <ele>1422.4000244141</ele>
        <time>2012-02-12T09:26:42Z</time>
      </trkpt>
      <trkpt lat="45.59437" lon="6.67049">
        <ele>1422.5999755859</ele>
        <time>2012-02-12T09:26:52Z</time>
      </trkpt>
      <trkpt lat="45.59436" lon="6.67055">
        <ele>1424.5999755859</ele>
        <time>2012-02-12T09:27:01Z</time>
      </trkpt>
      <trkpt lat="45.59436" lon="6.67057">
        <ele>1425.4000244141</ele>
        <time>2012-02-12T09:27:13Z</time>
      </trkpt>
      <trkpt lat="45.59382" lon="6.67084">
        <ele>1426.5999755859</ele>
        <time>2012-02-12T09:28:39Z</time>
      </trkpt>
      <trkpt lat="45.59364" lon="6.6709">
        <ele>1427</ele>
        <time>2012-02-12T09:28:45Z</time>
      </trkpt>
      <trkpt lat="45.5935" lon="6.67093">
        <ele>1426.8000488281</ele>
        <time>2012-02-12T09:28:50Z</time>
      </trkpt>
      <trkpt lat="45.59334" lon="6.67093">
        <ele>1425.1999511719</ele>
        <time>2012-02-12T09:28:55Z</time>
      </trkpt>
      <trkpt lat="45.59321" lon="6.6709">
        <ele>1423.1999511719</ele>
        <time>2012-02-12T09:29:01Z</time>
      </trkpt>
      <trkpt lat="45.59312" lon="6.67088">
        <ele>1421.8000488281</ele>
        <time>2012-02-12T09:29:05Z</time>
      </trkpt>
      <trkpt lat="45.59298" lon="6.67091">
        <ele>1422.5999755859</ele>
        <time>2012-02-12T09:29:11Z</time>
      </trkpt>
      <trkpt lat="45.59287" lon="6.6709">
        <ele>1421.4000244141</ele>
        <time>2012-02-12T09:29:16Z</time>
      </trkpt>
      <trkpt lat="45.5928" lon="6.67088">
        <ele>1420</ele>
        <time>2012-02-12T09:29:21Z</time>
      </trkpt>
      <trkpt lat="45.59268" lon="6.67091">
        <ele>1421</ele>
        <time>2012-02-12T09:29:27Z</time>
      </trkpt>
      <trkpt lat="45.59261" lon="6.6709">
        <ele>1420</ele>
        <time>2012-02-12T09:29:31Z</time>
      </trkpt>
      <trkpt lat="45.5924" lon="6.67092">
        <ele>1419.4000244141</ele>
        <time>2012-02-12T09:29:42Z</time>
      </trkpt>
      <trkpt lat="45.59232" lon="6.67093">
        <ele>1419.4000244141</ele>
        <time>2012-02-12T09:29:46Z</time>
      </trkpt>
      <trkpt lat="45.59224" lon="6.67094">
        <ele>1418.8000488281</ele>
        <time>2012-02-12T09:29:50Z</time>
      </trkpt>
      <trkpt lat="45.5921" lon="6.67099">
        <ele>1419.8000488281</ele>
        <time>2012-02-12T09:29:56Z</time>
      </trkpt>
      <trkpt lat="45.59201" lon="6.67099">
        <ele>1419.1999511719</ele>
        <time>2012-02-12T09:30:02Z</time>
      </trkpt>
    </trkseg>
  </trk>
</gpx>